Logo
 


Wetterdaten - Donnerstag, 17.10.2019 - Rheinberg-Annaberg     25 m ber NN private Wetterstation Rheinberg/Angaben ohne Gewhr!
Wetterdaten: aktuell Donnerstag, 17.10.2019 22:06
Datum Zeit Temp. A. Feuchte A. Luftdruck Regen Wind Richtung Richtung Sonnenschein ET UV Solar Taupunkt Windchill Windben Empfang
17.10.2019 22:06 14,1 C 97 % 1009,2 hPa 0,0 l/m 3,3 km/h S-SW 212 0 min 0,000 mm 0,0 UV-I 0 W/m 13,6 C 14,1 C 5,7 km/h 95,83 %
17.10.2019 22:05 14,1 C 97 % 1009,2 hPa 0,0 l/m 3,2 km/h S-SW 212 0 min 0,000 mm 0,0 UV-I 0 W/m 13,6 C 14,1 C 5,7 km/h 96,30 %
17.10.2019 22:04 14,1 C 97 % 1009,2 hPa 0,0 l/m 4,2 km/h S-SW 209 0 min 0,000 mm 0,0 UV-I 0 W/m 13,6 C 14,1 C 7,7 km/h 100,00 %
17.10.2019 22:03 14,1 C 97 % 1009,2 hPa 0,0 l/m 4,0 km/h S-SW 208 0 min 0,000 mm 0,0 UV-I 0 W/m 13,6 C 14,1 C 7,7 km/h 95,65 %
17.10.2019 22:02 14,1 C 97 % 1009,2 hPa 0,2 l/m 2,5 km/h S-SW 209 0 min 0,000 mm 0,0 UV-I 0 W/m 13,6 C 14,1 C 3,8 km/h 100,00 %
17.10.2019 22:01 14,1 C 97 % 1009,2 hPa 0,0 l/m 0,1 km/h S-SW 209 0 min 0,000 mm 0,0 UV-I 0 W/m 13,6 C 14,1 C 1,9 km/h 95,65 %
17.10.2019 22:00 14,1 C 97 % 1009,2 hPa 0,0 l/m 0,6 km/h S-SW 209 0 min 0,000 mm 0,0 UV-I 0 W/m 13,6 C 14,1 C 1,9 km/h 100,00 %
17.10.2019 21:59 14,1 C 97 % 1009,2 hPa 0,0 l/m 2,0 km/h S-SW 209 0 min 0,000 mm 0,0 UV-I 0 W/m 13,6 C 14,1 C 3,8 km/h 96,30 %
17.10.2019 21:58 14,1 C 97 % 1009,2 hPa 0,0 l/m 1,0 km/h S-SW 209 0 min 0,000 mm 0,0 UV-I 0 W/m 13,6 C 14,1 C 1,9 km/h 95,83 %
17.10.2019 21:57 14,1 C 97 % 1009,2 hPa 0,0 l/m 0,8 km/h S-SW 209 0 min 0,000 mm 0,0 UV-I 0 W/m 13,6 C 14,1 C 1,9 km/h 100,00 %
17.10.2019 21:56 14,1 C 97 % 1009,2 hPa 0,0 l/m 1,2 km/h S-SW 209 0 min 0,000 mm 0,0 UV-I 0 W/m 13,6 C 14,1 C 3,8 km/h 96,67 %
17.10.2019 21:55 14,1 C 97 % 1009,1 hPa 0,0 l/m 1,2 km/h S-SW 209 0 min 0,000 mm 0,0 UV-I 0 W/m 13,6 C 14,1 C 3,8 km/h 100,00 %
17.10.2019 21:54 14,1 C 97 % 1009,1 hPa 0,0 l/m 0,8 km/h S-SW 209 0 min 0,000 mm 0,0 UV-I 0 W/m 13,6 C 14,1 C 1,9 km/h 95,65 %
17.10.2019 21:53 14,1 C 97 % 1009,1 hPa 0,0 l/m 0,1 km/h S-SW 209 0 min 0,000 mm 0,0 UV-I 0 W/m 13,6 C 14,1 C 1,9 km/h 100,00 %
17.10.2019 21:52 14,1 C 97 % 1009,2 hPa 0,0 l/m 1,3 km/h S-SW 209 0 min 0,000 mm 0,0 UV-I 0 W/m 13,6 C 14,1 C 3,8 km/h 96,30 %
17.10.2019 21:51 14,1 C 97 % 1009,2 hPa 0,0 l/m 1,3 km/h S-SW 209 0 min 0,000 mm 0,0 UV-I 0 W/m 13,6 C 14,1 C 3,8 km/h 95,65 %
17.10.2019 21:50 14,1 C 97 % 1009,1 hPa 0,0 l/m 3,1 km/h S-SW 209 0 min 0,000 mm 0,0 UV-I 0 W/m 13,6 C 14,1 C 3,8 km/h 100,00 %
17.10.2019 21:49 14,1 C 97 % 1009,1 hPa 0,0 l/m 0,5 km/h S-SW 209 0 min 0,000 mm 0,0 UV-I 0 W/m 13,6 C 14,1 C 1,9 km/h 95,65 %
17.10.2019 21:48 14,1 C 97 % 1009,2 hPa 0,0 l/m 0,0 km/h S-SW 209 0 min 0,000 mm 0,0 UV-I 0 W/m 13,6 C 14,1 C 0,0 km/h 100,00 %
17.10.2019 21:47 14,1 C 97 % 1009,2 hPa 0,0 l/m 3,5 km/h S-SW 209 0 min 0,000 mm 0,0 UV-I 0 W/m 13,6 C 14,1 C 5,7 km/h 93,33 %
17.10.2019 21:46 14,1 C 97 % 1009,1 hPa 0,0 l/m 3,9 km/h S-SW 209 0 min 0,000 mm 0,0 UV-I 0 W/m 13,6 C 14,1 C 5,7 km/h 96,15 %
17.10.2019 21:45 14,1 C 97 % 1009,0 hPa 0,0 l/m 0,1 km/h S-SW 209 0 min 0,000 mm 0,0 UV-I 0 W/m 13,6 C 14,1 C 1,9 km/h 93,33 %
17.10.2019 21:44 14,1 C 97 % 1009,1 hPa 0,0 l/m 0,8 km/h S-SW 209 0 min 0,000 mm 0,0 UV-I 0 W/m 13,6 C 14,1 C 1,9 km/h 100,00 %
17.10.2019 21:43 14,1 C 97 % 1009,1 hPa 0,0 l/m 2,3 km/h S-SW 209 0 min 0,000 mm 0,0 UV-I 0 W/m 13,6 C 14,1 C 5,7 km/h 95,83 %
17.10.2019 21:42 14,1 C 97 % 1009,2 hPa 0,0 l/m 4,1 km/h S-SW 209 0 min 0,000 mm 0,0 UV-I 0 W/m 13,6 C 14,1 C 5,7 km/h 100,00 %
17.10.2019 21:41 14,1 C 97 % 1009,2 hPa 0,0 l/m 3,0 km/h S-SW 209 0 min 0,000 mm 0,0 UV-I 0 W/m 13,6 C 14,1 C 5,7 km/h 96,43 %
17.10.2019 21:40 14,1 C 97 % 1009,1 hPa 0,0 l/m 1,7 km/h S-SW 209 0 min 0,000 mm 0,0 UV-I 0 W/m 13,6 C 14,1 C 3,8 km/h 96,55 %
17.10.2019 21:39 14,1 C 97 % 1009,1 hPa 0,0 l/m 2,6 km/h S-SW 209 0 min 0,000 mm 0,0 UV-I 0 W/m 13,6 C 14,1 C 3,8 km/h 100,00 %
17.10.2019 21:38 14,1 C 97 % 1009,1 hPa 0,0 l/m 0,4 km/h S-SW 209 0 min 0,000 mm 0,0 UV-I 0 W/m 13,6 C 14,1 C 1,9 km/h 95,83 %
17.10.2019 21:37 14,1 C 97 % 1009,2 hPa 0,0 l/m 0,0 km/h S-SW 209 0 min 0,000 mm 0,0 UV-I 0 W/m 13,6 C 14,1 C 0,0 km/h 100,00 %
17.10.2019 21:36 14,1 C 97 % 1009,1 hPa 0,0 l/m 0,2 km/h S-SW 209 0 min 0,000 mm 0,0 UV-I 0 W/m 13,6 C 14,1 C 1,9 km/h 96,15 %
17.10.2019 21:35 14,0 C 97 % 1009,1 hPa 0,0 l/m 0,6 km/h S-SW 209 0 min 0,000 mm 0,0 UV-I 0 W/m 13,5 C 14,0 C 1,9 km/h 100,00 %
17.10.2019 21:34 14,1 C 97 % 1009,2 hPa 0,0 l/m 0,1 km/h S-SW 209 0 min 0,000 mm 0,0 UV-I 0 W/m 13,6 C 14,1 C 1,9 km/h 95,65 %
17.10.2019 21:33 14,0 C 97 % 1009,1 hPa 0,0 l/m 0,2 km/h S-SW 209 0 min 0,000 mm 0,0 UV-I 0 W/m 13,5 C 14,0 C 1,9 km/h 100,00 %
17.10.2019 21:32 14,0 C 97 % 1009,1 hPa 0,0 l/m 1,5 km/h S-SW 209 0 min 0,000 mm 0,0 UV-I 0 W/m 13,5 C 14,0 C 3,8 km/h 96,15 %
17.10.2019 21:31 14,0 C 97 % 1009,1 hPa 0,0 l/m 1,6 km/h S-SW 209 0 min 0,000 mm 0,0 UV-I 0 W/m 13,5 C 14,0 C 3,8 km/h 95,83 %
17.10.2019 21:30 14,0 C 97 % 1009,1 hPa 0,0 l/m 1,5 km/h S-SW 209 0 min 0,000 mm 0,0 UV-I 0 W/m 13,5 C 14,0 C 3,8 km/h 95,83 %
17.10.2019 21:29 14,0 C 97 % 1009,1 hPa 0,0 l/m 0,6 km/h S-SW 209 0 min 0,000 mm 0,0 UV-I 0 W/m 13,5 C 14,0 C 1,9 km/h 95,65 %
17.10.2019 21:28 14,0 C 97 % 1009,1 hPa 0,0 l/m 0,0 km/h S-SW 209 0 min 0,000 mm 0,0 UV-I 0 W/m 13,5 C 14,0 C 0,0 km/h 96,15 %
17.10.2019 21:27 14,0 C 97 % 1009,2 hPa 0,0 l/m 0,2 km/h S-SW 209 0 min 0,000 mm 0,0 UV-I 0 W/m 13,5 C 14,0 C 1,9 km/h 91,67 %
17.10.2019 21:26 14,0 C 97 % 1009,2 hPa 0,0 l/m 0,3 km/h S-SW 209 0 min 0,000 mm 0,0 UV-I 0 W/m 13,5 C 14,0 C 1,9 km/h 100,00 %
17.10.2019 21:25 14,1 C 97 % 1009,2 hPa 0,0 l/m 0,0 km/h S-SW 209 0 min 0,000 mm 0,0 UV-I 0 W/m 13,6 C 14,1 C 0,0 km/h 96,15 %
17.10.2019 21:24 14,1 C 96 % 1009,2 hPa 0,0 l/m 1,1 km/h S-SW 209 0 min 0,000 mm 0,0 UV-I 0 W/m 13,5 C 14,1 C 3,8 km/h 96,30 %
17.10.2019 21:23 14,1 C 96 % 1009,2 hPa 0,0 l/m 1,1 km/h S-SW 209 0 min 0,000 mm 0,0 UV-I 0 W/m 13,5 C 14,1 C 3,8 km/h 100,00 %
17.10.2019 21:22 14,1 C 96 % 1009,2 hPa 0,0 l/m 1,5 km/h S-SW 209 0 min 0,000 mm 0,0 UV-I 0 W/m 13,5 C 14,1 C 3,8 km/h 95,83 %
17.10.2019 21:21 14,1 C 96 % 1009,2 hPa 0,0 l/m 0,2 km/h S-SW 209 0 min 0,000 mm 0,0 UV-I 0 W/m 13,5 C 14,1 C 1,9 km/h 100,00 %
17.10.2019 21:20 14,1 C 96 % 1009,2 hPa 0,0 l/m 1,4 km/h S-SW 209 0 min 0,000 mm 0,0 UV-I 0 W/m 13,5 C 14,1 C 3,8 km/h 91,67 %
17.10.2019 21:19 14,1 C 96 % 1009,2 hPa 0,0 l/m 2,3 km/h S-SW 209 0 min 0,000 mm 0,0 UV-I 0 W/m 13,5 C 14,1 C 3,8 km/h 100,00 %
17.10.2019 21:18 14,1 C 96 % 1009,2 hPa 0,0 l/m 1,3 km/h S-SW 209 0 min 0,000 mm 0,0 UV-I 0 W/m 13,5 C 14,1 C 1,9 km/h 95,83 %
17.10.2019 21:17 14,1 C 97 % 1009,2 hPa 0,0 l/m 4,7 km/h S-SW 209 0 min 0,000 mm 0,0 UV-I 0 W/m 13,6 C 14,1 C 5,7 km/h 100,00 %
17.10.2019 21:16 14,1 C 97 % 1009,2 hPa 0,0 l/m 1,8 km/h S-SW 207 0 min 0,000 mm 0,0 UV-I 0 W/m 13,6 C 14,1 C 3,8 km/h 95,83 %
17.10.2019 21:15 14,1 C 97 % 1009,2 hPa 0,0 l/m 1,8 km/h S-SW 207 0 min 0,000 mm 0,0 UV-I 0 W/m 13,6 C 14,1 C 5,7 km/h 100,00 %
17.10.2019 21:14 14,2 C 97 % 1009,2 hPa 0,0 l/m 3,7 km/h S-SW 207 0 min 0,000 mm 0,0 UV-I 0 W/m 13,7 C 14,2 C 7,7 km/h 95,83 %
17.10.2019 21:13 14,2 C 97 % 1009,2 hPa 0,0 l/m 4,5 km/h S-SW 202 0 min 0,000 mm 0,0 UV-I 0 W/m 13,7 C 14,2 C 7,7 km/h 91,67 %
17.10.2019 21:12 14,2 C 96 % 1009,2 hPa 0,0 l/m 6,5 km/h S-SW 202 0 min 0,000 mm 0,0 UV-I 0 W/m 13,6 C 14,2 C 11,5 km/h 95,65 %
17.10.2019 21:11 14,2 C 96 % 1009,2 hPa 0,0 l/m 3,1 km/h SW 231 0 min 0,000 mm 0,0 UV-I 0 W/m 13,6 C 14,2 C 7,7 km/h 95,83 %
17.10.2019 21:10 14,2 C 96 % 1009,2 hPa 0,0 l/m 3,9 km/h SW 232 0 min 0,000 mm 0,0 UV-I 0 W/m 13,6 C 14,2 C 7,7 km/h 100,00 %
17.10.2019 21:09 14,2 C 96 % 1009,2 hPa 0,0 l/m 2,1 km/h SW 232 0 min 0,000 mm 0,0 UV-I 0 W/m 13,6 C 14,2 C 5,7 km/h 96,30 %
17.10.2019 21:08 14,2 C 96 % 1009,2 hPa 0,0 l/m 2,1 km/h SW 232 0 min 0,000 mm 0,0 UV-I 0 W/m 13,6 C 14,2 C 5,7 km/h 100,00 %
17.10.2019 21:07 14,3 C 96 % 1009,2 hPa 0,0 l/m 0,6 km/h SW 232 0 min 0,000 mm 0,0 UV-I 0 W/m 13,7 C 14,3 C 1,9 km/h 95,83 %
17.10.2019 21:06 14,3 C 96 % 1009,2 hPa 0,0 l/m 0,8 km/h SW 232 0 min 0,000 mm 0,0 UV-I 0 W/m 13,7 C 14,3 C 3,8 km/h 100,00 %
17.10.2019 21:05 14,3 C 96 % 1009,2 hPa 0,0 l/m 3,9 km/h SW 232 0 min 0,000 mm 0,0 UV-I 0 W/m 13,7 C 14,3 C 5,7 km/h 96,30 %
17.10.2019 21:04 14,3 C 96 % 1009,2 hPa 0,0 l/m 4,3 km/h SW 232 0 min 0,000 mm 0,0 UV-I 0 W/m 13,7 C 14,3 C 7,7 km/h 96,15 %
17.10.2019 21:03 14,3 C 96 % 1009,2 hPa 0,0 l/m 4,4 km/h W-SW 250 0 min 0,000 mm 0,0 UV-I 0 W/m 13,7 C 14,3 C 5,7 km/h 100,00 %
17.10.2019 21:02 14,3 C 96 % 1009,3 hPa 0,0 l/m 5,7 km/h W 259 0 min 0,000 mm 0,0 UV-I 0 W/m 13,7 C 14,3 C 7,7 km/h 95,65 %
17.10.2019 21:01 14,4 C 96 % 1009,3 hPa 0,0 l/m 6,7 km/h SW 228 0 min 0,000 mm 0,0 UV-I 0 W/m 13,8 C 14,2 C 9,6 km/h 100,00 %
17.10.2019 21:00 14,4 C 96 % 1009,3 hPa 0,2 l/m 7,4 km/h S-SW 212 0 min 0,000 mm 0,0 UV-I 0 W/m 13,8 C 13,8 C 11,5 km/h 95,65 %
17.10.2019 20:59 14,4 C 96 % 1009,3 hPa 0,0 l/m 4,9 km/h S-SW 202 0 min 0,000 mm 0,0 UV-I 0 W/m 13,8 C 14,4 C 9,6 km/h 100,00 %
17.10.2019 20:58 14,4 C 96 % 1009,3 hPa 0,0 l/m 7,0 km/h S-SW 192 0 min 0,000 mm 0,0 UV-I 0 W/m 13,8 C 14,1 C 9,6 km/h 96,55 %
17.10.2019 20:57 14,5 C 96 % 1009,3 hPa 0,0 l/m 6,2 km/h SW 218 0 min 0,000 mm 0,0 UV-I 0 W/m 13,9 C 14,5 C 9,6 km/h 100,00 %
17.10.2019 20:56 14,6 C 96 % 1009,3 hPa 0,0 l/m 3,5 km/h S-SW 192 0 min 0,000 mm 0,0 UV-I 0 W/m 14,0 C 14,6 C 7,7 km/h 97,37 %
17.10.2019 20:55 14,6 C 96 % 1009,2 hPa 0,2 l/m 6,9 km/h S 188 0 min 0,000 mm 0,0 UV-I 0 W/m 14,0 C 14,3 C 11,5 km/h 91,67 %
17.10.2019 20:54 14,7 C 96 % 1009,2 hPa 0,0 l/m 7,6 km/h W-SW 242 0 min 0,000 mm 0,0 UV-I 0 W/m 14,1 C 14,0 C 11,5 km/h 96,15 %
17.10.2019 20:53 14,7 C 96 % 1009,2 hPa 0,0 l/m 10,2 km/h SW 216 0 min 0,000 mm 0,0 UV-I 0 W/m 14,1 C 12,7 C 15,3 km/h 96,67 %
17.10.2019 20:52 14,8 C 97 % 1009,2 hPa 0,0 l/m 9,5 km/h SW 225 0 min 0,000 mm 0,0 UV-I 0 W/m 14,3 C 13,1 C 13,4 km/h 100,00 %
17.10.2019 20:51 14,8 C 97 % 1009,2 hPa 0,2 l/m 5,2 km/h S-SW 211 0 min 0,000 mm 0,0 UV-I 0 W/m 14,3 C 14,8 C 9,6 km/h 96,15 %
17.10.2019 20:50 14,8 C 97 % 1009,2 hPa 0,2 l/m 9,2 km/h S-SW 207 0 min 0,000 mm 0,0 UV-I 0 W/m 14,3 C 13,3 C 11,5 km/h 100,00 %
17.10.2019 20:49 14,9 C 97 % 1009,2 hPa 0,0 l/m 4,6 km/h SW 214 0 min 0,000 mm 0,0 UV-I 0 W/m 14,4 C 14,9 C 9,6 km/h 91,30 %
17.10.2019 20:48 14,9 C 97 % 1009,2 hPa 0,2 l/m 3,7 km/h SW 229 0 min 0,000 mm 0,0 UV-I 0 W/m 14,4 C 14,9 C 7,7 km/h 96,00 %
17.10.2019 20:47 14,9 C 97 % 1009,2 hPa 0,2 l/m 8,2 km/h SW 222 0 min 0,000 mm 0,0 UV-I 0 W/m 14,4 C 13,9 C 15,3 km/h 100,00 %
17.10.2019 20:46 14,9 C 97 % 1009,2 hPa 0,2 l/m 4,7 km/h SW 232 0 min 0,000 mm 0,0 UV-I 0 W/m 14,4 C 14,9 C 9,6 km/h 96,00 %
17.10.2019 20:45 14,9 C 97 % 1009,3 hPa 0,0 l/m 5,8 km/h SW 231 0 min 0,000 mm 0,0 UV-I 0 W/m 14,4 C 14,9 C 9,6 km/h 100,00 %
17.10.2019 20:44 14,9 C 97 % 1009,3 hPa 0,0 l/m 5,4 km/h SW 221 0 min 0,000 mm 0,0 UV-I 0 W/m 14,4 C 14,9 C 7,7 km/h 95,83 %
17.10.2019 20:43 14,9 C 97 % 1009,2 hPa 0,0 l/m 1,9 km/h S 182 0 min 0,000 mm 0,0 UV-I 0 W/m 14,4 C 14,9 C 3,8 km/h 95,65 %
17.10.2019 20:42 14,9 C 97 % 1009,2 hPa 0,0 l/m 5,1 km/h S 175 0 min 0,000 mm 0,0 UV-I 0 W/m 14,4 C 14,9 C 9,6 km/h 95,83 %
17.10.2019 20:41 14,9 C 97 % 1009,2 hPa 0,0 l/m 3,6 km/h S 174 0 min 0,000 mm 0,0 UV-I 0 W/m 14,4 C 14,9 C 7,7 km/h 95,65 %
17.10.2019 20:40 14,9 C 97 % 1009,2 hPa 0,0 l/m 5,4 km/h S-SW 204 0 min 0,000 mm 0,0 UV-I 0 W/m 14,4 C 14,9 C 9,6 km/h 100,00 %
17.10.2019 20:39 14,9 C 97 % 1009,2 hPa 0,0 l/m 5,5 km/h S-SO 150 0 min 0,000 mm 0,0 UV-I 0 W/m 14,4 C 14,9 C 7,7 km/h 95,65 %
17.10.2019 20:38 14,9 C 97 % 1009,2 hPa 0,0 l/m 3,9 km/h S 170 0 min 0,000 mm 0,0 UV-I 0 W/m 14,4 C 14,9 C 9,6 km/h 100,00 %
17.10.2019 20:37 14,9 C 97 % 1009,1 hPa 0,0 l/m 6,9 km/h S-SO 155 0 min 0,000 mm 0,0 UV-I 0 W/m 14,4 C 14,6 C 11,5 km/h 95,65 %
17.10.2019 20:36 14,9 C 97 % 1009,1 hPa 0,0 l/m 2,9 km/h S 170 0 min 0,000 mm 0,0 UV-I 0 W/m 14,4 C 14,9 C 7,7 km/h 100,00 %
17.10.2019 20:35 14,9 C 97 % 1009,1 hPa 0,0 l/m 2,7 km/h O 92 0 min 0,000 mm 0,0 UV-I 0 W/m 14,4 C 14,9 C 7,7 km/h 95,83 %
17.10.2019 20:34 14,9 C 97 % 1009,1 hPa 0,0 l/m 5,6 km/h S-SO 155 0 min 0,000 mm 0,0 UV-I 0 W/m 14,4 C 14,9 C 11,5 km/h 100,00 %
17.10.2019 20:33 14,9 C 96 % 1009,2 hPa 0,0 l/m 5,2 km/h O-SO 121 0 min 0,000 mm 0,0 UV-I 0 W/m 14,3 C 14,9 C 9,6 km/h 92,31 %
17.10.2019 20:32 14,9 C 97 % 1009,2 hPa 0,0 l/m 4,1 km/h S-SO 164 0 min 0,000 mm 0,0 UV-I 0 W/m 14,4 C 14,9 C 7,7 km/h 95,83 %
17.10.2019 20:31 14,9 C 96 % 1009,1 hPa 0,0 l/m 5,3 km/h S-SO 163 0 min 0,000 mm 0,0 UV-I 0 W/m 14,3 C 14,9 C 9,6 km/h 100,00 %
17.10.2019 20:30 14,9 C 96 % 1009,1 hPa 0,0 l/m 5,1 km/h S-SO 147 0 min 0,000 mm 0,0 UV-I 0 W/m 14,3 C 14,9 C 7,7 km/h 100,00 %
17.10.2019 20:29 14,9 C 96 % 1009,1 hPa 0,0 l/m 6,8 km/h S-SO 164 0 min 0,000 mm 0,0 UV-I 0 W/m 14,3 C 14,7 C 11,5 km/h 96,30 %
17.10.2019 20:28 14,9 C 96 % 1009,1 hPa 0,0 l/m 6,8 km/h S-SO 155 0 min 0,000 mm 0,0 UV-I 0 W/m 14,3 C 14,7 C 11,5 km/h 91,30 %
17.10.2019 20:27 14,9 C 96 % 1009,1 hPa 0,0 l/m 4,1 km/h S 175 0 min 0,000 mm 0,0 UV-I 0 W/m 14,3 C 14,9 C 7,7 km/h 100,00 %
17.10.2019 20:26 14,9 C 96 % 1009,1 hPa 0,0 l/m 8,4 km/h S-SO 165 0 min 0,000 mm 0,0 UV-I 0 W/m 14,3 C 13,8 C 11,5 km/h 95,65 %
17.10.2019 20:25 14,8 C 96 % 1009,2 hPa 0,0 l/m 5,6 km/h S-SW 194 0 min 0,000 mm 0,0 UV-I 0 W/m 14,2 C 14,8 C 11,5 km/h 100,00 %
17.10.2019 20:24 14,9 C 96 % 1009,1 hPa 0,0 l/m 4,5 km/h S 189 0 min 0,000 mm 0,0 UV-I 0 W/m 14,3 C 14,9 C 9,6 km/h 96,55 %
17.10.2019 20:23 14,9 C 96 % 1009,2 hPa 0,0 l/m 7,0 km/h S 178 0 min 0,000 mm 0,0 UV-I 0 W/m 14,3 C 14,6 C 11,5 km/h 100,00 %
17.10.2019 20:22 14,8 C 96 % 1009,1 hPa 0,0 l/m 8,2 km/h S 171 0 min 0,000 mm 0,0 UV-I 0 W/m 14,2 C 13,8 C 11,5 km/h 92,31 %
17.10.2019 20:21 14,8 C 96 % 1009,1 hPa 0,0 l/m 5,0 km/h S-SO 147 0 min 0,000 mm 0,0 UV-I 0 W/m 14,2 C 14,8 C 9,6 km/h 96,30 %
17.10.2019 20:20 14,8 C 96 % 1009,2 hPa 0,0 l/m 7,5 km/h SO 125 0 min 0,000 mm 0,0 UV-I 0 W/m 14,2 C 14,2 C 11,5 km/h 100,00 %
17.10.2019 20:19 14,8 C 96 % 1009,1 hPa 0,0 l/m 7,3 km/h S-SO 159 0 min 0,000 mm 0,0 UV-I 0 W/m 14,2 C 14,3 C 13,4 km/h 95,83 %
17.10.2019 20:18 14,8 C 96 % 1009,1 hPa 0,0 l/m 7,2 km/h S-SO 165 0 min 0,000 mm 0,0 UV-I 0 W/m 14,2 C 14,3 C 13,4 km/h 100,00 %
17.10.2019 20:17 14,8 C 96 % 1009,1 hPa 0,0 l/m 5,9 km/h S 176 0 min 0,000 mm 0,0 UV-I 0 W/m 14,2 C 14,8 C 9,6 km/h 92,59 %
17.10.2019 20:16 14,8 C 96 % 1009,0 hPa 0,0 l/m 5,7 km/h S-SO 166 0 min 0,000 mm 0,0 UV-I 0 W/m 14,2 C 14,8 C 7,7 km/h 96,15 %
17.10.2019 20:15 14,8 C 96 % 1009,0 hPa 0,0 l/m 5,3 km/h S-SO 161 0 min 0,000 mm 0,0 UV-I 0 W/m 14,2 C 14,8 C 9,6 km/h 100,00 %
17.10.2019 20:14 14,8 C 96 % 1009,1 hPa 0,0 l/m 8,8 km/h S-SO 162 0 min 0,000 mm 0,0 UV-I 0 W/m 14,2 C 13,5 C 13,4 km/h 96,30 %
17.10.2019 20:13 14,8 C 96 % 1009,0 hPa 0,0 l/m 4,9 km/h S-SO 156 0 min 0,000 mm 0,0 UV-I 0 W/m 14,2 C 14,8 C 9,6 km/h 100,00 %
17.10.2019 20:12 14,8 C 96 % 1009,1 hPa 0,0 l/m 6,4 km/h S-SO 167 0 min 0,000 mm 0,0 UV-I 0 W/m 14,2 C 14,8 C 9,6 km/h 91,67 %
17.10.2019 20:11 14,8 C 96 % 1009,0 hPa 0,0 l/m 5,7 km/h S-SO 163 0 min 0,000 mm 0,0 UV-I 0 W/m 14,2 C 14,8 C 7,7 km/h 100,00 %
17.10.2019 20:10 14,8 C 96 % 1009,1 hPa 0,0 l/m 6,4 km/h S-SO 160 0 min 0,000 mm 0,0 UV-I 0 W/m 14,2 C 14,8 C 9,6 km/h 95,83 %
17.10.2019 20:09 14,8 C 96 % 1009,1 hPa 0,0 l/m 6,3 km/h S 173 0 min 0,000 mm 0,0 UV-I 0 W/m 14,2 C 14,8 C 9,6 km/h 100,00 %
17.10.2019 20:08 14,8 C 96 % 1009,1 hPa 0,0 l/m 8,3 km/h S-SO 163 0 min 0,000 mm 0,0 UV-I 0 W/m 14,2 C 13,7 C 13,4 km/h 96,30 %
17.10.2019 20:07 14,8 C 96 % 1009,0 hPa 0,0 l/m 7,6 km/h S-SO 164 0 min 0,000 mm 0,0 UV-I 0 W/m 14,2 C 14,1 C 13,4 km/h 100,00 %
17.10.2019 20:06 14,8 C 96 % 1009,1 hPa 0,0 l/m 4,2 km/h S-SO 167 0 min 0,000 mm 0,0 UV-I 0 W/m 14,2 C 14,8 C 7,7 km/h 95,83 %
17.10.2019 20:05 14,8 C 96 % 1009,1 hPa 0,0 l/m 6,7 km/h S 172 0 min 0,000 mm 0,0 UV-I 0 W/m 14,2 C 14,6 C 11,5 km/h 100,00 %
17.10.2019 20:04 14,8 C 96 % 1009,1 hPa 0,0 l/m 7,9 km/h S-SO 153 0 min 0,000 mm 0,0 UV-I 0 W/m 14,2 C 13,9 C 9,6 km/h 96,30 %
17.10.2019 20:03 14,8 C 96 % 1009,1 hPa 0,0 l/m 5,8 km/h S 169 0 min 0,000 mm 0,0 UV-I 0 W/m 14,2 C 14,8 C 9,6 km/h 96,15 %
17.10.2019 20:02 14,8 C 96 % 1009,1 hPa 0,0 l/m 3,4 km/h SO 138 0 min 0,000 mm 0,0 UV-I 0 W/m 14,2 C 14,8 C 7,7 km/h 100,00 %
17.10.2019 20:01 14,8 C 96 % 1009,1 hPa 0,0 l/m 3,3 km/h SO 141 0 min 0,000 mm 0,0 UV-I 0 W/m 14,2 C 14,8 C 7,7 km/h 95,65 %
17.10.2019 20:00 14,8 C 96 % 1009,1 hPa 0,0 l/m 7,0 km/h SO 141 0 min 0,000 mm 0,0 UV-I 0 W/m 14,2 C 14,5 C 11,5 km/h 100,00 %
17.10.2019 19:59 14,8 C 96 % 1009,1 hPa 0,0 l/m 7,8 km/h S-SO 167 0 min 0,000 mm 0,0 UV-I 0 W/m 14,2 C 14,0 C 9,6 km/h 95,83 %
17.10.2019 19:58 14,8 C 96 % 1009,1 hPa 0,0 l/m 7,5 km/h S-SO 166 0 min 0,000 mm 0,0 UV-I 0 W/m 14,2 C 14,2 C 13,4 km/h 100,00 %
17.10.2019 19:57 14,8 C 96 % 1009,1 hPa 0,0 l/m 4,6 km/h S 171 0 min 0,000 mm 0,0 UV-I 0 W/m 14,2 C 14,8 C 7,7 km/h 97,22 %
17.10.2019 19:56 14,8 C 96 % 1009,0 hPa 0,0 l/m 6,6 km/h S 180 0 min 0,000 mm 0,0 UV-I 0 W/m 14,2 C 14,7 C 11,5 km/h 91,67 %
17.10.2019 19:55 14,8 C 96 % 1009,1 hPa 0,0 l/m 4,4 km/h S-SO 147 0 min 0,000 mm 0,0 UV-I 0 W/m 14,2 C 14,8 C 7,7 km/h 100,00 %
17.10.2019 19:54 14,8 C 96 % 1009,1 hPa 0,0 l/m 5,2 km/h S-SO 157 0 min 0,000 mm 0,0 UV-I 0 W/m 14,2 C 14,8 C 11,5 km/h 95,65 %
17.10.2019 19:53 14,8 C 96 % 1009,1 hPa 0,0 l/m 7,6 km/h S-SO 161 0 min 0,000 mm 0,0 UV-I 0 W/m 14,2 C 14,1 C 11,5 km/h 100,00 %
17.10.2019 19:52 14,8 C 96 % 1009,0 hPa 0,0 l/m 7,7 km/h S-SO 165 0 min 0,000 mm 0,0 UV-I 0 W/m 14,2 C 14,1 C 13,4 km/h 95,65 %
17.10.2019 19:51 14,8 C 96 % 1009,0 hPa 0,0 l/m 5,4 km/h S 169 0 min 0,000 mm 0,0 UV-I 0 W/m 14,2 C 14,8 C 9,6 km/h 96,30 %
17.10.2019 19:50 14,8 C 96 % 1009,0 hPa 0,0 l/m 4,6 km/h S-SO 153 0 min 0,000 mm 0,0 UV-I 0 W/m 14,2 C 14,8 C 7,7 km/h 96,15 %
17.10.2019 19:49 14,8 C 96 % 1009,0 hPa 0,0 l/m 6,5 km/h S-SO 168 0 min 0,000 mm 0,0 UV-I 0 W/m 14,2 C 14,8 C 11,5 km/h 100,00 %
17.10.2019 19:48 14,8 C 96 % 1009,1 hPa 0,0 l/m 9,5 km/h S-SW 196 0 min 0,000 mm 0,0 UV-I 0 W/m 14,2 C 13,1 C 13,4 km/h 95,65 %
17.10.2019 19:47 14,8 C 96 % 1009,1 hPa 0,0 l/m 5,2 km/h S-SO 162 0 min 0,000 mm 0,0 UV-I 0 W/m 14,2 C 14,8 C 9,6 km/h 97,62 %
17.10.2019 19:46 14,8 C 96 % 1009,1 hPa 0,0 l/m 8,9 km/h SO 130 0 min 0,000 mm 0,0 UV-I 0 W/m 14,2 C 13,4 C 13,4 km/h 100,00 %
17.10.2019 19:45 14,8 C 96 % 1009,1 hPa 0,0 l/m 6,7 km/h S-SO 150 0 min 0,000 mm 0,0 UV-I 0 W/m 14,2 C 14,6 C 9,6 km/h 91,67 %
17.10.2019 19:44 14,8 C 96 % 1009,0 hPa 0,0 l/m 8,6 km/h S-SO 147 0 min 0,000 mm 0,0 UV-I 0 W/m 14,2 C 13,6 C 13,4 km/h 100,00 %
17.10.2019 19:43 14,8 C 96 % 1009,1 hPa 0,2 l/m 9,6 km/h S-SO 158 0 min 0,000 mm 0,0 UV-I 0 W/m 14,2 C 13,1 C 11,5 km/h 96,30 %
17.10.2019 19:42 14,8 C 96 % 1009,1 hPa 0,0 l/m 9,3 km/h S-SO 167 0 min 0,000 mm 0,0 UV-I 0 W/m 14,2 C 13,2 C 13,4 km/h 100,00 %
17.10.2019 19:41 14,8 C 96 % 1009,1 hPa 0,0 l/m 11,4 km/h S 178 0 min 0,000 mm 0,0 UV-I 0 W/m 14,2 C 12,3 C 19,1 km/h 95,83 %
17.10.2019 19:40 14,8 C 96 % 1009,0 hPa 0,0 l/m 6,8 km/h S 174 0 min 0,000 mm 0,0 UV-I 0 W/m 14,2 C 14,6 C 13,4 km/h 100,00 %
17.10.2019 19:39 14,8 C 96 % 1009,0 hPa 0,0 l/m 4,5 km/h S-SO 163 0 min 0,000 mm 0,0 UV-I 0 W/m 14,2 C 14,8 C 9,6 km/h 95,83 %
17.10.2019 19:38 14,8 C 96 % 1009,0 hPa 0,0 l/m 9,9 km/h SO 146 0 min 0,000 mm 0,0 UV-I 0 W/m 14,2 C 12,9 C 19,1 km/h 96,15 %
17.10.2019 19:37 14,8 C 96 % 1009,0 hPa 0,0 l/m 5,7 km/h S 180 0 min 0,000 mm 0,0 UV-I 0 W/m 14,2 C 14,8 C 7,7 km/h 100,00 %
17.10.2019 19:36 14,8 C 96 % 1009,0 hPa 0,0 l/m 3,5 km/h S-SO 157 0 min 0,000 mm 0,0 UV-I 0 W/m 14,2 C 14,8 C 7,7 km/h 96,15 %
17.10.2019 19:35 14,7 C 96 % 1009,0 hPa 0,0 l/m 6,0 km/h S-SO 157 0 min 0,000 mm 0,0 UV-I 0 W/m 14,1 C 14,7 C 9,6 km/h 100,00 %
17.10.2019 19:34 14,7 C 96 % 1009,0 hPa 0,0 l/m 4,1 km/h S-SO 163 0 min 0,000 mm 0,0 UV-I 0 W/m 14,1 C 14,7 C 7,7 km/h 96,30 %
17.10.2019 19:33 14,7 C 96 % 1009,0 hPa 0,0 l/m 2,3 km/h S 171 0 min 0,000 mm 0,0 UV-I 0 W/m 14,1 C 14,7 C 3,8 km/h 100,00 %
17.10.2019 19:32 14,7 C 96 % 1009,0 hPa 0,0 l/m 1,4 km/h S 171 0 min 0,000 mm 0,0 UV-I 0 W/m 14,1 C 14,7 C 3,8 km/h 96,15 %
17.10.2019 19:31 14,7 C 96 % 1008,9 hPa 0,0 l/m 3,0 km/h S 171 0 min 0,000 mm 0,0 UV-I 0 W/m 14,1 C 14,7 C 7,7 km/h 100,00 %
17.10.2019 19:30 14,7 C 96 % 1009,0 hPa 0,0 l/m 8,0 km/h S-SO 152 0 min 0,000 mm 0,0 UV-I 0 W/m 14,1 C 13,8 C 17,2 km/h 96,30 %
17.10.2019 19:29 14,7 C 96 % 1009,0 hPa 0,0 l/m 5,6 km/h S-SO 155 0 min 0,000 mm 0,0 UV-I 0 W/m 14,1 C 14,7 C 9,6 km/h 100,00 %
17.10.2019 19:28 14,7 C 96 % 1009,0 hPa 0,0 l/m 4,9 km/h S-SO 152 0 min 0,000 mm 0,0 UV-I 0 W/m 14,1 C 14,7 C 9,6 km/h 95,83 %
17.10.2019 19:27 14,7 C 96 % 1008,9 hPa 0,0 l/m 4,1 km/h O-SO 119 0 min 0,000 mm 0,0 UV-I 0 W/m 14,1 C 14,7 C 7,7 km/h 86,96 %
17.10.2019 19:26 14,7 C 95 % 1008,9 hPa 0,0 l/m 5,9 km/h O-SO 121 0 min 0,000 mm 0,0 UV-I 0 W/m 13,9 C 14,7 C 9,6 km/h 100,00 %
17.10.2019 19:25 14,7 C 95 % 1008,9 hPa 0,0 l/m 3,0 km/h S-SO 154 0 min 0,000 mm 0,0 UV-I 0 W/m 13,9 C 14,7 C 5,7 km/h 95,65 %
17.10.2019 19:24 14,7 C 95 % 1008,9 hPa 0,0 l/m 3,1 km/h S-SO 153 0 min 0,000 mm 0,0 UV-I 0 W/m 13,9 C 14,7 C 5,7 km/h 100,00 %
17.10.2019 19:23 14,7 C 95 % 1008,9 hPa 0,0 l/m 4,7 km/h S-SO 153 0 min 0,000 mm 0,0 UV-I 0 W/m 13,9 C 14,7 C 7,7 km/h 95,83 %
17.10.2019 19:22 14,7 C 95 % 1009,0 hPa 0,0 l/m 2,1 km/h S-SO 163 0 min 0,000 mm 0,0 UV-I 0 W/m 13,9 C 14,7 C 3,8 km/h 96,67 %
17.10.2019 19:21 14,7 C 96 % 1009,0 hPa 0,0 l/m 2,7 km/h S-SO 150 0 min 0,000 mm 0,0 UV-I 0 W/m 14,1 C 14,7 C 3,8 km/h 100,00 %
17.10.2019 19:20 14,6 C 95 % 1009,0 hPa 0,0 l/m 2,6 km/h SO 144 0 min 0,000 mm 0,0 UV-I 0 W/m 13,8 C 14,6 C 3,8 km/h 96,30 %
17.10.2019 19:19 14,6 C 95 % 1008,9 hPa 0,0 l/m 4,6 km/h SO 143 0 min 0,000 mm 0,0 UV-I 0 W/m 13,8 C 14,6 C 11,5 km/h 100,00 %
17.10.2019 19:18 14,6 C 95 % 1008,9 hPa 0,0 l/m 4,1 km/h SO 140 0 min 0,000 mm 0,0 UV-I 0 W/m 13,8 C 14,6 C 7,7 km/h 96,15 %
17.10.2019 19:17 14,6 C 95 % 1008,9 hPa 0,0 l/m 6,6 km/h O 98 0 min 0,000 mm 0,0 UV-I 0 W/m 13,8 C 14,5 C 11,5 km/h 100,00 %
17.10.2019 19:16 14,6 C 95 % 1008,9 hPa 0,0 l/m 4,8 km/h SO 138 0 min 0,000 mm 0,0 UV-I 0 W/m 13,8 C 14,6 C 7,7 km/h 91,67 %
17.10.2019 19:15 14,6 C 95 % 1009,0 hPa 0,0 l/m 6,0 km/h S 171 0 min 0,000 mm 0,0 UV-I 0 W/m 13,8 C 14,6 C 9,6 km/h 100,00 %
17.10.2019 19:14 14,6 C 95 % 1009,0 hPa 0,0 l/m 1,6 km/h O-SO 119 0 min 0,000 mm 0,0 UV-I 0 W/m 13,8 C 14,6 C 3,8 km/h 94,74 %
17.10.2019 19:13 14,6 C 95 % 1009,0 hPa 0,0 l/m 1,1 km/h O-SO 119 0 min 0,000 mm 0,0 UV-I 0 W/m 13,8 C 14,6 C 3,8 km/h 91,67 %
17.10.2019 19:12 14,6 C 95 % 1009,0 hPa 0,0 l/m 2,9 km/h O-SO 119 0 min 0,000 mm 0,0 UV-I 0 W/m 13,8 C 14,6 C 5,7 km/h 100,00 %
17.10.2019 19:11 14,6 C 95 % 1009,1 hPa 0,0 l/m 0,8 km/h O-SO 117 0 min 0,000 mm 0,0 UV-I 0 W/m 13,8 C 14,6 C 1,9 km/h 93,33 %
17.10.2019 19:10 14,5 C 95 % 1009,0 hPa 0,0 l/m 1,1 km/h O-SO 117 0 min 0,000 mm 0,0 UV-I 0 W/m 13,7 C 14,5 C 3,8 km/h 95,65 %
17.10.2019 19:09 14,5 C 95 % 1009,0 hPa 0,0 l/m 0,0 km/h O-SO 117 0 min 0,000 mm 0,0 UV-I 0 W/m 13,7 C 14,5 C 0,0 km/h 96,30 %
17.10.2019 19:08 14,5 C 95 % 1009,0 hPa 0,0 l/m 0,5 km/h O-SO 117 0 min 0,000 mm 0,0 UV-I 0 W/m 13,7 C 14,5 C 1,9 km/h 100,00 %
17.10.2019 19:07 14,5 C 95 % 1009,0 hPa 0,0 l/m 1,3 km/h O-SO 117 0 min 0,000 mm 0,0 UV-I 0 W/m 13,7 C 14,5 C 3,8 km/h 95,83 %
17.10.2019 19:06 14,5 C 95 % 1009,0 hPa 0,0 l/m 0,3 km/h O-SO 117 0 min 0,000 mm 0,0 UV-I 0 W/m 13,7 C 14,5 C 1,9 km/h 96,15 %
17.10.2019 19:05 14,5 C 95 % 1009,0 hPa 0,0 l/m 0,1 km/h O-SO 117 0 min 0,000 mm 0,0 UV-I 0 W/m 13,7 C 14,5 C 1,9 km/h 100,00 %
17.10.2019 19:04 14,5 C 95 % 1009,0 hPa 0,0 l/m 0,0 km/h O-SO 117 0 min 0,000 mm 0,0 UV-I 0 W/m 13,7 C 14,5 C 0,0 km/h 88,24 %
17.10.2019 19:03 14,5 C 95 % 1009,0 hPa 0,0 l/m 0,6 km/h O-SO 117 0 min 0,000 mm 0,0 UV-I 0 W/m 13,7 C 14,5 C 1,9 km/h 100,00 %
17.10.2019 19:02 14,5 C 95 % 1009,0 hPa 0,0 l/m 1,6 km/h O-SO 117 0 min 0,000 mm 0,0 UV-I 0 W/m 13,7 C 14,5 C 3,8 km/h 95,65 %
17.10.2019 19:01 14,5 C 95 % 1009,0 hPa 0,0 l/m 2,2 km/h O-SO 117 0 min 0,000 mm 0,0 UV-I 0 W/m 13,7 C 14,5 C 5,7 km/h 100,00 %
17.10.2019 19:00 14,5 C 95 % 1009,0 hPa 0,0 l/m 0,9 km/h O-SO 117 0 min 0,000 mm 0,0 UV-I 0 W/m 13,7 C 14,5 C 3,8 km/h 95,65 %
17.10.2019 18:59 14,4 C 95 % 1009,0 hPa 0,0 l/m 1,1 km/h O-SO 117 0 min 0,000 mm 0,0 UV-I 0 W/m 13,6 C 14,4 C 1,9 km/h 100,00 %
17.10.2019 18:58 14,4 C 95 % 1009,0 hPa 0,0 l/m 1,0 km/h O-SO 117 0 min 0,000 mm 0,0 UV-I 0 W/m 13,6 C 14,4 C 3,8 km/h 95,83 %
17.10.2019 18:57 14,4 C 95 % 1009,1 hPa 0,0 l/m 1,0 km/h O-SO 117 0 min 0,000 mm 0,0 UV-I 0 W/m 13,6 C 14,4 C 1,9 km/h 95,65 %
17.10.2019 18:56 14,4 C 95 % 1009,0 hPa 0,0 l/m 0,0 km/h O-SO 117 0 min 0,000 mm 0,0 UV-I 0 W/m 13,6 C 14,4 C 0,0 km/h 95,83 %
17.10.2019 18:55 14,4 C 95 % 1009,1 hPa 0,0 l/m 0,2 km/h O-SO 117 0 min 0,000 mm 0,0 UV-I 0 W/m 13,6 C 14,4 C 1,9 km/h 100,00 %
17.10.2019 18:54 14,4 C 95 % 1009,1 hPa 0,0 l/m 0,2 km/h O-SO 117 0 min 0,000 mm 0,0 UV-I 0 W/m 13,6 C 14,4 C 1,9 km/h 95,83 %
17.10.2019 18:53 14,4 C 95 % 1009,1 hPa 0,0 l/m 2,6 km/h O-SO 117 0 min 0,000 mm 0,0 UV-I 0 W/m 13,6 C 14,4 C 3,8 km/h 95,65 %
17.10.2019 18:52 14,4 C 95 % 1009,1 hPa 0,0 l/m 2,1 km/h O-SO 117 0 min 0,000 mm 0,0 UV-I 0 W/m 13,6 C 14,4 C 5,7 km/h 100,00 %
17.10.2019 18:51 14,4 C 95 % 1009,0 hPa 0,0 l/m 0,1 km/h O-SO 117 0 min 0,000 mm 0,0 UV-I 0 W/m 13,6 C 14,4 C 1,9 km/h 95,65 %
17.10.2019 18:50 14,4 C 95 % 1009,1 hPa 0,2 l/m 2,4 km/h O-SO 117 0 min 0,000 mm 0,0 UV-I 0 W/m 13,6 C 14,4 C 5,7 km/h 100,00 %
17.10.2019 18:49 14,4 C 95 % 1009,1 hPa 0,0 l/m 2,6 km/h O-SO 117 0 min 0,000 mm 0,0 UV-I 0 W/m 13,6 C 14,4 C 5,7 km/h 96,15 %
17.10.2019 18:48 14,4 C 95 % 1009,1 hPa 0,0 l/m 1,6 km/h O-SO 112 0 min 0,000 mm 0,0 UV-I 0 W/m 13,6 C 14,4 C 1,9 km/h 95,83 %
17.10.2019 18:47 14,4 C 95 % 1009,1 hPa 0,0 l/m 1,4 km/h O-SO 112 0 min 0,000 mm 0,0 UV-I 0 W/m 13,6 C 14,4 C 1,9 km/h 100,00 %
17.10.2019 18:46 14,5 C 95 % 1009,1 hPa 0,0 l/m 1,4 km/h O-SO 112 0 min 0,000 mm 0,0 UV-I 0 W/m 13,7 C 14,5 C 3,8 km/h 96,30 %
17.10.2019 18:45 14,4 C 95 % 1009,1 hPa 0,0 l/m 2,1 km/h O-SO 112 0 min 0,000 mm 0,0 UV-I 0 W/m 13,6 C 14,4 C 3,8 km/h 96,15 %
17.10.2019 18:44 14,5 C 95 % 1009,1 hPa 0,0 l/m 3,2 km/h O-SO 112 0 min 0,000 mm 0,0 UV-I 0 W/m 13,7 C 14,5 C 5,7 km/h 96,30 %
17.10.2019 18:43 14,5 C 95 % 1009,1 hPa 0,0 l/m 2,5 km/h O-SO 112 0 min 0,000 mm 0,0 UV-I 0 W/m 13,7 C 14,5 C 3,8 km/h 100,00 %
17.10.2019 18:42 14,5 C 95 % 1009,0 hPa 0,0 l/m 0,2 km/h O-SO 112 0 min 0,000 mm 0,0 UV-I 0 W/m 13,7 C 14,5 C 1,9 km/h 95,83 %
17.10.2019 18:41 14,5 C 95 % 1009,0 hPa 0,0 l/m 0,2 km/h O-SO 112 0 min 0,000 mm 0,0 UV-I 0 W/m 13,7 C 14,5 C 1,9 km/h 100,00 %
17.10.2019 18:40 14,5 C 95 % 1009,1 hPa 0,0 l/m 0,6 km/h O-SO 112 0 min 0,000 mm 0,0 UV-I 0 W/m 13,7 C 14,5 C 1,9 km/h 95,83 %
17.10.2019 18:39 14,5 C 95 % 1009,1 hPa 0,0 l/m 0,0 km/h O-SO 112 0 min 0,000 mm 0,0 UV-I 0 W/m 13,7 C 14,5 C 0,0 km/h 100,00 %
17.10.2019 18:38 14,5 C 95 % 1009,1 hPa 0,0 l/m 0,1 km/h O-SO 112 0 min 0,000 mm 0,0 UV-I 0 W/m 13,7 C 14,5 C 1,9 km/h 96,30 %
17.10.2019 18:37 14,5 C 95 % 1009,0 hPa 0,0 l/m 1,4 km/h O-SO 112 0 min 0,000 mm 0,0 UV-I 0 W/m 13,7 C 14,5 C 1,9 km/h 92,31 %
17.10.2019 18:36 14,5 C 95 % 1009,1 hPa 0,0 l/m 1,7 km/h O-SO 112 0 min 0,000 mm 0,0 UV-I 0 W/m 13,7 C 14,5 C 1,9 km/h 100,00 %
17.10.2019 18:35 14,5 C 95 % 1009,1 hPa 0,0 l/m 0,8 km/h O-SO 112 0 min 0,000 mm 0,0 UV-I 0 W/m 13,7 C 14,5 C 1,9 km/h 95,65 %
17.10.2019 18:34 14,5 C 94 % 1009,1 hPa 0,0 l/m 0,6 km/h O-SO 112 0 min 0,000 mm 0,0 UV-I 0 W/m 13,5 C 14,5 C 1,9 km/h 100,00 %
17.10.2019 18:33 14,5 C 94 % 1009,1 hPa 0,0 l/m 3,2 km/h O-SO 112 0 min 0,000 mm 0,0 UV-I 0 W/m 13,5 C 14,5 C 5,7 km/h 92,86 %
17.10.2019 18:32 14,5 C 94 % 1009,0 hPa 0,0 l/m 4,0 km/h O-SO 112 0 min 0,000 mm 0,0 UV-I 0 W/m 13,5 C 14,5 C 5,7 km/h 100,00 %
17.10.2019 18:31 14,5 C 94 % 1009,1 hPa 0,0 l/m 0,2 km/h O-SO 112 0 min 0,000 mm 0,0 UV-I 0 W/m 13,5 C 14,5 C 1,9 km/h 96,30 %
17.10.2019 18:30 14,5 C 94 % 1009,0 hPa 0,0 l/m 2,2 km/h O-SO 112 0 min 0,000 mm 0,0 UV-I 0 W/m 13,5 C 14,5 C 3,8 km/h 91,30 %
17.10.2019 18:29 14,5 C 94 % 1009,0 hPa 0,0 l/m 2,7 km/h O-SO 112 0 min 0,000 mm 0,0 UV-I 0 W/m 13,5 C 14,5 C 3,8 km/h 100,00 %
17.10.2019 18:28 14,5 C 94 % 1009,1 hPa 0,0 l/m 0,9 km/h O-SO 112 0 min 0,000 mm 0,0 UV-I 0 W/m 13,5 C 14,5 C 1,9 km/h 92,31 %
17.10.2019 18:27 14,5 C 94 % 1009,0 hPa 0,0 l/m 2,9 km/h O-SO 112 0 min 0,000 mm 0,0 UV-I 0 W/m 13,5 C 14,5 C 3,8 km/h 100,00 %
17.10.2019 18:26 14,5 C 94 % 1009,1 hPa 0,0 l/m 2,7 km/h O-SO 112 0 min 0,000 mm 0,0 UV-I 0 W/m 13,5 C 14,5 C 3,8 km/h 95,65 %
17.10.2019 18:25 14,5 C 94 % 1009,1 hPa 0,0 l/m 2,8 km/h O-SO 112 0 min 0,000 mm 0,0 UV-I 0 W/m 13,5 C 14,5 C 3,8 km/h 100,00 %
17.10.2019 18:24 14,5 C 94 % 1009,1 hPa 0,0 l/m 1,2 km/h O-SO 112 0 min 0,000 mm 0,0 UV-I 0 W/m 13,5 C 14,5 C 1,9 km/h 100,00 %
17.10.2019 18:23 14,4 C 94 % 1009,1 hPa 0,0 l/m 0,1 km/h O-SO 112 0 min 0,000 mm 0,0 UV-I 0 W/m 13,4 C 14,4 C 1,9 km/h 100,00 %
17.10.2019 18:22 14,4 C 94 % 1009,1 hPa 0,0 l/m 0,8 km/h O-SO 112 0 min 0,000 mm 0,0 UV-I 0 W/m 13,4 C 14,4 C 1,9 km/h 100,00 %
17.10.2019 18:21 14,4 C 94 % 1009,1 hPa 0,0 l/m 1,6 km/h O-SO 112 0 min 0,000 mm 0,0 UV-I 0 W/m 13,4 C 14,4 C 3,8 km/h 100,00 %
17.10.2019 18:20 14,4 C 94 % 1009,2 hPa 0,0 l/m 3,0 km/h O-SO 112 0 min 0,000 mm 0,0 UV-I 0 W/m 13,4 C 14,4 C 3,8 km/h 95,83 %
17.10.2019 18:19 14,4 C 94 % 1009,2 hPa 0,0 l/m 3,1 km/h O-SO 112 0 min 0,000 mm 0,0 UV-I 0 W/m 13,4 C 14,4 C 3,8 km/h 95,65 %
17.10.2019 18:18 14,4 C 94 % 1009,2 hPa 0,0 l/m 3,7 km/h O-SO 112 0 min 0,000 mm 0,0 UV-I 5 W/m 13,4 C 14,4 C 5,7 km/h 100,00 %
17.10.2019 18:17 14,5 C 94 % 1009,2 hPa 0,0 l/m 4,2 km/h O-SO 112 0 min 0,000 mm 0,0 UV-I 5 W/m 13,5 C 14,5 C 5,7 km/h 96,15 %
17.10.2019 18:16 14,4 C 94 % 1009,2 hPa 0,0 l/m 2,5 km/h O-SO 112 0 min 0,000 mm 0,0 UV-I 5 W/m 13,4 C 14,4 C 3,8 km/h 100,00 %
17.10.2019 18:15 14,5 C 94 % 1009,2 hPa 0,0 l/m 2,0 km/h O-SO 112 0 min 0,000 mm 0,0 UV-I 6 W/m 13,5 C 14,5 C 3,8 km/h 96,15 %
17.10.2019 18:14 14,5 C 94 % 1009,2 hPa 0,0 l/m 2,3 km/h O-SO 112 0 min 0,000 mm 0,0 UV-I 7 W/m 13,5 C 14,5 C 3,8 km/h 96,30 %
17.10.2019 18:13 14,5 C 94 % 1009,3 hPa 0,0 l/m 1,7 km/h O-SO 112 0 min 0,000 mm 0,0 UV-I 9 W/m 13,5 C 14,5 C 1,9 km/h 100,00 %
17.10.2019 18:12 14,5 C 94 % 1009,2 hPa 0,0 l/m 2,5 km/h O-SO 112 0 min 0,000 mm 0,0 UV-I 10 W/m 13,5 C 14,5 C 3,8 km/h 95,83 %
17.10.2019 18:11 14,5 C 94 % 1009,2 hPa 0,0 l/m 3,8 km/h O-SO 112 0 min 0,000 mm 0,0 UV-I 11 W/m 13,5 C 14,5 C 5,7 km/h 100,00 %
17.10.2019 18:10 14,5 C 94 % 1009,2 hPa 0,0 l/m 1,7 km/h O-SO 112 0 min 0,000 mm 0,0 UV-I 11 W/m 13,5 C 14,5 C 3,8 km/h 91,67 %
17.10.2019 18:09 14,5 C 94 % 1009,2 hPa 0,0 l/m 1,6 km/h O-SO 112 0 min 0,000 mm 0,0 UV-I 11 W/m 13,5 C 14,5 C 3,8 km/h 100,00 %
17.10.2019 18:08 14,5 C 94 % 1009,2 hPa 0,0 l/m 1,3 km/h O-SO 112 0 min 0,000 mm 0,0 UV-I 12 W/m 13,5 C 14,5 C 3,8 km/h 96,00 %
17.10.2019 18:07 14,5 C 94 % 1009,2 hPa 0,0 l/m 2,6 km/h O-SO 112 0 min 0,000 mm 0,0 UV-I 12 W/m 13,5 C 14,5 C 3,8 km/h 100,00 %
17.10.2019 18:06 14,6 C 94 % 1009,2 hPa 0,0 l/m 2,2 km/h O-SO 112 0 min 0,000 mm 0,0 UV-I 14 W/m 13,6 C 14,6 C 5,7 km/h 100,00 %
17.10.2019 18:05 14,6 C 94 % 1009,1 hPa 0,0 l/m 2,7 km/h O-SO 112 0 min 0,000 mm 0,0 UV-I 13 W/m 13,6 C 14,6 C 3,8 km/h 100,00 %
17.10.2019 18:04 14,6 C 94 % 1009,2 hPa 0,0 l/m 4,7 km/h O-SO 112 0 min 0,000 mm 0,0 UV-I 12 W/m 13,6 C 14,6 C 5,7 km/h 100,00 %
17.10.2019 18:03 14,6 C 94 % 1009,2 hPa 0,0 l/m 2,7 km/h O-SO 112 0 min 0,000 mm 0,0 UV-I 12 W/m 13,6 C 14,6 C 3,8 km/h 100,00 %
17.10.2019 18:02 14,6 C 94 % 1009,2 hPa 0,0 l/m 2,7 km/h O-SO 112 0 min 0,001 mm 0,0 UV-I 14 W/m 13,6 C 14,6 C 5,7 km/h 100,00 %
17.10.2019 18:01 14,6 C 94 % 1009,2 hPa 0,0 l/m 2,0 km/h O-SO 112 0 min 0,025 mm 0,0 UV-I 14 W/m 13,6 C 14,6 C 3,8 km/h 100,00 %
17.10.2019 18:00 14,6 C 94 % 1009,2 hPa 0,0 l/m 1,9 km/h O-SO 112 0 min 0,000 mm 0,0 UV-I 16 W/m 13,6 C 14,6 C 3,8 km/h 100,00 %
17.10.2019 17:59 14,6 C 94 % 1009,2 hPa 0,0 l/m 2,4 km/h O-SO 112 0 min 0,000 mm 0,0 UV-I 15 W/m 13,6 C 14,6 C 3,8 km/h 100,00 %
17.10.2019 17:58 14,6 C 94 % 1009,2 hPa 0,0 l/m 3,3 km/h O-SO 112 0 min 0,000 mm 0,0 UV-I 13 W/m 13,6 C 14,6 C 5,7 km/h 95,65 %
17.10.2019 17:57 14,6 C 93 % 1009,2 hPa 0,0 l/m 2,9 km/h O-SO 112 0 min 0,000 mm 0,0 UV-I 12 W/m 13,5 C 14,6 C 5,7 km/h 100,00 %
17.10.2019 17:56 14,6 C 93 % 1009,2 hPa 0,0 l/m 1,7 km/h O-SO 112 0 min 0,000 mm 0,0 UV-I 14 W/m 13,5 C 14,6 C 3,8 km/h 100,00 %
17.10.2019 17:55 14,6 C 94 % 1009,2 hPa 0,0 l/m 1,9 km/h O-SO 112 0 min 0,000 mm 0,0 UV-I 19 W/m 13,6 C 14,6 C 3,8 km/h 100,00 %
17.10.2019 17:54 14,6 C 93 % 1009,2 hPa 0,0 l/m 2,4 km/h O-SO 112 0 min 0,000 mm 0,0 UV-I 23 W/m 13,5 C 14,6 C 3,8 km/h 100,00 %
17.10.2019 17:53 14,6 C 93 % 1009,2 hPa 0,0 l/m 2,3 km/h O-SO 112 0 min 0,000 mm 0,0 UV-I 28 W/m 13,5 C 14,6 C 5,7 km/h 100,00 %
17.10.2019 17:52 14,6 C 93 % 1009,2 hPa 0,0 l/m 2,4 km/h O-SO 112 0 min 0,000 mm 0,0 UV-I 30 W/m 13,5 C 14,6 C 3,8 km/h 100,00 %
17.10.2019 17:51 14,6 C 93 % 1009,2 hPa 0,0 l/m 1,3 km/h O-SO 112 0 min 0,000 mm 0,0 UV-I 28 W/m 13,5 C 14,6 C 3,8 km/h 100,00 %
17.10.2019 17:50 14,6 C 93 % 1009,2 hPa 0,0 l/m 0,1 km/h O-SO 112 0 min 0,000 mm 0,0 UV-I 26 W/m 13,5 C 14,6 C 1,9 km/h 100,00 %
17.10.2019 17:49 14,6 C 93 % 1009,2 hPa 0,0 l/m 1,2 km/h O-SO 112 0 min 0,000 mm 0,0 UV-I 23 W/m 13,5 C 14,6 C 1,9 km/h 95,83 %
17.10.2019 17:48 14,6 C 93 % 1009,3 hPa 0,0 l/m 3,7 km/h O-SO 112 0 min 0,000 mm 0,0 UV-I 22 W/m 13,5 C 14,6 C 5,7 km/h 100,00 %
17.10.2019 17:47 14,6 C 93 % 1009,3 hPa 0,0 l/m 2,5 km/h O-SO 112 0 min 0,000 mm 0,0 UV-I 22 W/m 13,5 C 14,6 C 3,8 km/h 97,56 %
17.10.2019 17:46 14,7 C 93 % 1009,3 hPa 0,0 l/m 0,3 km/h O-SO 112 0 min 0,000 mm 0,0 UV-I 24 W/m 13,6 C 14,7 C 1,9 km/h 99,52 %
17.10.2019 17:45 14,7 C 93 % 1009,3 hPa 0,0 l/m 1,5 km/h O-SO 112 0 min 0,000 mm 0,0 UV-I 27 W/m 13,6 C 14,7 C 3,8 km/h 100,00 %
17.10.2019 17:44 14,7 C 93 % 1009,3 hPa 0,0 l/m 1,8 km/h O-SO 112 0 min 0,000 mm 0,0 UV-I 30 W/m 13,6 C 14,7 C 3,8 km/h 100,00 %
17.10.2019 17:43 14,6 C 93 % 1009,2 hPa 0,0 l/m 2,2 km/h O-SO 112 0 min 0,000 mm 0,0 UV-I 33 W/m 13,5 C 14,6 C 3,8 km/h 100,00 %
17.10.2019 17:42 14,7 C 93 % 1009,3 hPa 0,0 l/m 2,0 km/h O-SO 112 0 min 0,000 mm 0,0 UV-I 32 W/m 13,6 C 14,7 C 3,8 km/h 100,00 %
17.10.2019 17:41 14,6 C 93 % 1009,3 hPa 0,0 l/m 2,1 km/h O-SO 112 0 min 0,000 mm 0,0 UV-I 28 W/m 13,5 C 14,6 C 3,8 km/h 95,65 %
17.10.2019 17:40 14,7 C 93 % 1009,4 hPa 0,0 l/m 2,4 km/h O-SO 112 0 min 0,000 mm 0,0 UV-I 24 W/m 13,6 C 14,7 C 3,8 km/h 100,00 %
17.10.2019 17:39 14,7 C 93 % 1009,4 hPa 0,0 l/m 5,4 km/h O-SO 112 0 min 0,000 mm 0,0 UV-I 25 W/m 13,6 C 14,7 C 7,7 km/h 100,00 %
17.10.2019 17:38 14,7 C 93 % 1009,3 hPa 0,0 l/m 1,9 km/h O-SO 103 0 min 0,000 mm 0,0 UV-I 26 W/m 13,6 C 14,7 C 3,8 km/h 100,00 %
17.10.2019 17:37 14,7 C 93 % 1009,3 hPa 0,0 l/m 3,4 km/h O-SO 103 0 min 0,000 mm 0,0 UV-I 27 W/m 13,6 C 14,7 C 5,7 km/h 100,00 %
17.10.2019 17:36 14,7 C 93 % 1009,3 hPa 0,0 l/m 3,7 km/h O-SO 103 0 min 0,000 mm 0,0 UV-I 22 W/m 13,6 C 14,7 C 5,7 km/h 100,00 %
17.10.2019 17:35 14,7 C 93 % 1009,3 hPa 0,0 l/m 3,3 km/h O-SO 103 0 min 0,000 mm 0,0 UV-I 16 W/m 13,6 C 14,7 C 7,7 km/h 100,00 %
17.10.2019 17:34 14,7 C 93 % 1009,4 hPa 0,0 l/m 3,2 km/h O-SO 103 0 min 0,000 mm 0,0 UV-I 14 W/m 13,6 C 14,7 C 5,7 km/h 100,00 %
17.10.2019 17:33 14,7 C 92 % 1009,4 hPa 0,0 l/m 4,0 km/h O-SO 103 0 min 0,000 mm 0,0 UV-I 14 W/m 13,4 C 14,7 C 5,7 km/h 100,00 %
17.10.2019 17:32 14,7 C 92 % 1009,4 hPa 0,0 l/m 5,7 km/h O-SO 103 0 min 0,000 mm 0,0 UV-I 14 W/m 13,4 C 14,7 C 7,7 km/h 96,30 %
17.10.2019 17:31 14,7 C 92 % 1009,4 hPa 0,0 l/m 2,0 km/h O 98 0 min 0,000 mm 0,0 UV-I 17 W/m 13,4 C 14,7 C 3,8 km/h 90,91 %
17.10.2019 17:30 14,7 C 92 % 1009,4 hPa 0,0 l/m 3,8 km/h O 98 0 min 0,000 mm 0,0 UV-I 19 W/m 13,4 C 14,7 C 5,7 km/h 100,00 %
17.10.2019 17:29 14,8 C 92 % 1009,4 hPa 0,0 l/m 4,3 km/h O 101 0 min 0,000 mm 0,0 UV-I 19 W/m 13,5 C 14,8 C 7,7 km/h 100,00 %
17.10.2019 17:28 14,8 C 92 % 1009,5 hPa 0,0 l/m 2,9 km/h O 101 0 min 0,000 mm 0,0 UV-I 19 W/m 13,5 C 14,8 C 5,7 km/h 100,00 %
17.10.2019 17:27 14,8 C 92 % 1009,5 hPa 0,0 l/m 1,7 km/h O 101 0 min 0,000 mm 0,0 UV-I 19 W/m 13,5 C 14,8 C 3,8 km/h 100,00 %
17.10.2019 17:26 14,8 C 92 % 1009,5 hPa 0,0 l/m 3,1 km/h O 101 0 min 0,000 mm 0,0 UV-I 21 W/m 13,5 C 14,8 C 5,7 km/h 100,00 %
17.10.2019 17:25 14,8 C 92 % 1009,5 hPa 0,0 l/m 4,2 km/h O 101 0 min 0,000 mm 0,0 UV-I 24 W/m 13,5 C 14,8 C 5,7 km/h 100,00 %
17.10.2019 17:24 14,8 C 92 % 1009,5 hPa 0,0 l/m 2,8 km/h O 101 0 min 0,000 mm 0,0 UV-I 27 W/m 13,5 C 14,8 C 3,8 km/h 100,00 %
17.10.2019 17:23 14,8 C 92 % 1009,4 hPa 0,0 l/m 4,1 km/h O-SO 102 0 min 0,000 mm 0,0 UV-I 27 W/m 13,5 C 14,8 C 5,7 km/h 100,00 %
17.10.2019 17:22 14,8 C 92 % 1009,5 hPa 0,0 l/m 3,1 km/h O 100 0 min 0,000 mm 0,0 UV-I 25 W/m 13,5 C 14,8 C 5,7 km/h 100,00 %
17.10.2019 17:21 14,9 C 92 % 1009,5 hPa 0,0 l/m 3,2 km/h O 100 0 min 0,000 mm 0,0 UV-I 23 W/m 13,6 C 14,9 C 5,7 km/h 100,00 %
17.10.2019 17:20 14,9 C 92 % 1009,5 hPa 0,0 l/m 3,8 km/h O 100 0 min 0,000 mm 0,0 UV-I 19 W/m 13,6 C 14,9 C 5,7 km/h 100,00 %
17.10.2019 17:19 14,9 C 92 % 1009,6 hPa 0,0 l/m 3,0 km/h O 100 0 min 0,000 mm 0,0 UV-I 18 W/m 13,6 C 14,9 C 5,7 km/h 100,00 %
17.10.2019 17:18 14,9 C 91 % 1009,6 hPa 0,0 l/m 3,3 km/h O 100 0 min 0,000 mm 0,0 UV-I 18 W/m 13,4 C 14,9 C 3,8 km/h 100,00 %
17.10.2019 17:17 14,9 C 91 % 1009,6 hPa 0,0 l/m 3,4 km/h O 101 0 min 0,000 mm 0,0 UV-I 19 W/m 13,4 C 14,9 C 5,7 km/h 100,00 %
17.10.2019 17:16 15,0 C 91 % 1009,6 hPa 0,0 l/m 4,6 km/h O 101 0 min 0,000 mm 0,0 UV-I 19 W/m 13,5 C 15,0 C 7,7 km/h 100,00 %
17.10.2019 17:15 15,0 C 91 % 1009,7 hPa 0,0 l/m 2,3 km/h O 100 0 min 0,000 mm 0,0 UV-I 21 W/m 13,5 C 15,0 C 5,7 km/h 100,00 %
17.10.2019 17:14 15,0 C 91 % 1009,7 hPa 0,0 l/m 3,3 km/h O 100 0 min 0,000 mm 0,0 UV-I 19 W/m 13,5 C 15,0 C 5,7 km/h 100,00 %
17.10.2019 17:13 15,0 C 91 % 1009,7 hPa 0,0 l/m 1,1 km/h O 100 0 min 0,000 mm 0,0 UV-I 17 W/m 13,5 C 15,0 C 3,8 km/h 100,00 %
17.10.2019 17:12 15,1 C 91 % 1009,7 hPa 0,2 l/m 1,3 km/h O 100 0 min 0,000 mm 0,0 UV-I 17 W/m 13,6 C 15,1 C 3,8 km/h 99,51 %
17.10.2019 17:11 15,1 C 91 % 1009,7 hPa 0,0 l/m 1,3 km/h O 96 0 min 0,000 mm 0,0 UV-I 18 W/m 13,6 C 15,1 C 3,8 km/h 100,00 %
17.10.2019 17:10 15,1 C 91 % 1009,7 hPa 0,0 l/m 4,1 km/h O 96 0 min 0,000 mm 0,0 UV-I 18 W/m 13,6 C 15,1 C 5,7 km/h 100,00 %
17.10.2019 17:09 15,1 C 90 % 1009,7 hPa 0,0 l/m 5,4 km/h O 97 0 min 0,000 mm 0,0 UV-I 18 W/m 13,5 C 15,1 C 11,5 km/h 100,00 %
17.10.2019 17:08 15,1 C 90 % 1009,7 hPa 0,0 l/m 2,1 km/h SO 127 0 min 0,000 mm 0,0 UV-I 16 W/m 13,5 C 15,1 C 3,8 km/h 100,00 %
17.10.2019 17:07 15,1 C 90 % 1009,8 hPa 0,0 l/m 4,2 km/h SO 127 0 min 0,000 mm 0,0 UV-I 12 W/m 13,5 C 15,1 C 7,7 km/h 100,00 %
17.10.2019 17:06 15,1 C 90 % 1009,8 hPa 0,0 l/m 4,6 km/h SO 127 0 min 0,000 mm 0,0 UV-I 11 W/m 13,5 C 15,1 C 5,7 km/h 100,00 %
17.10.2019 17:05 15,1 C 90 % 1009,8 hPa 0,0 l/m 4,5 km/h SO 127 0 min 0,000 mm 0,0 UV-I 13 W/m 13,5 C 15,1 C 5,7 km/h 100,00 %
17.10.2019 17:04 15,1 C 90 % 1009,7 hPa 0,0 l/m 3,9 km/h SO 127 0 min 0,000 mm 0,0 UV-I 18 W/m 13,5 C 15,1 C 5,7 km/h 100,00 %
17.10.2019 17:03 15,1 C 90 % 1009,7 hPa 0,0 l/m 3,6 km/h SO 128 0 min 0,000 mm 0,0 UV-I 26 W/m 13,5 C 15,1 C 5,7 km/h 96,30 %
17.10.2019 17:02 15,1 C 90 % 1009,7 hPa 0,0 l/m 2,6 km/h SO 128 0 min 0,000 mm 0,0 UV-I 31 W/m 13,5 C 15,1 C 3,8 km/h 100,00 %
17.10.2019 17:01 15,1 C 90 % 1009,7 hPa 0,0 l/m 4,2 km/h SO 128 0 min 0,025 mm 0,0 UV-I 29 W/m 13,5 C 15,1 C 5,7 km/h 100,00 %
17.10.2019 17:00 15,1 C 89 % 1009,8 hPa 0,0 l/m 2,6 km/h SO 129 0 min 0,000 mm 0,0 UV-I 19 W/m 13,3 C 15,1 C 3,8 km/h 100,00 %
17.10.2019 16:59 15,1 C 89 % 1009,8 hPa 0,2 l/m 2,3 km/h S 180 0 min 0,000 mm 0,0 UV-I 13 W/m 13,3 C 15,1 C 3,8 km/h 100,00 %
17.10.2019 16:58 15,1 C 89 % 1009,8 hPa 0,0 l/m 0,2 km/h S 180 0 min 0,000 mm 0,0 UV-I 11 W/m 13,3 C 15,1 C 1,9 km/h 100,00 %
17.10.2019 16:57 15,1 C 89 % 1009,8 hPa 0,0 l/m 2,8 km/h S 180 0 min 0,000 mm 0,0 UV-I 9 W/m 13,3 C 15,1 C 5,7 km/h 100,00 %
17.10.2019 16:56 15,1 C 89 % 1009,8 hPa 0,0 l/m 1,5 km/h S 180 0 min 0,000 mm 0,0 UV-I 9 W/m 13,3 C 15,1 C 3,8 km/h 96,30 %
17.10.2019 16:55 15,1 C 89 % 1009,8 hPa 0,0 l/m 3,0 km/h S 180 0 min 0,000 mm 0,0 UV-I 10 W/m 13,3 C 15,1 C 5,7 km/h 100,00 %
17.10.2019 16:54 15,1 C 89 % 1009,8 hPa 0,0 l/m 2,1 km/h S 180 0 min 0,000 mm 0,0 UV-I 11 W/m 13,3 C 15,1 C 3,8 km/h 100,00 %
17.10.2019 16:53 15,1 C 89 % 1009,8 hPa 0,0 l/m 0,8 km/h S 180 0 min 0,000 mm 0,0 UV-I 15 W/m 13,3 C 15,1 C 1,9 km/h 100,00 %
17.10.2019 16:52 15,1 C 89 % 1009,8 hPa 0,0 l/m 2,2 km/h S 180 0 min 0,000 mm 0,0 UV-I 22 W/m 13,3 C 15,1 C 3,8 km/h 100,00 %
17.10.2019 16:51 15,1 C 89 % 1009,8 hPa 0,0 l/m 3,3 km/h S 180 0 min 0,000 mm 0,0 UV-I 25 W/m 13,3 C 15,1 C 5,7 km/h 100,00 %
17.10.2019 16:50 15,1 C 89 % 1009,8 hPa 0,0 l/m 1,8 km/h S 180 0 min 0,000 mm 0,0 UV-I 26 W/m 13,3 C 15,1 C 3,8 km/h 100,00 %
17.10.2019 16:49 15,1 C 89 % 1009,8 hPa 0,0 l/m 0,2 km/h S 180 0 min 0,000 mm 0,0 UV-I 23 W/m 13,3 C 15,1 C 1,9 km/h 95,65 %
17.10.2019 16:48 15,1 C 89 % 1009,8 hPa 0,0 l/m 1,0 km/h S 180 0 min 0,000 mm 0,0 UV-I 21 W/m 13,3 C 15,1 C 1,9 km/h 100,00 %
17.10.2019 16:47 15,1 C 89 % 1009,8 hPa 0,0 l/m 0,5 km/h S 180 0 min 0,000 mm 0,0 UV-I 22 W/m 13,3 C 15,1 C 1,9 km/h 100,00 %
17.10.2019 16:46 15,1 C 89 % 1009,8 hPa 0,0 l/m 1,6 km/h S 180 0 min 0,000 mm 0,0 UV-I 27 W/m 13,3 C 15,1 C 3,8 km/h 100,00 %
17.10.2019 16:45 15,1 C 88 % 1009,8 hPa 0,0 l/m 0,0 km/h S 180 0 min 0,000 mm 0,0 UV-I 37 W/m 13,1 C 15,1 C 0,0 km/h 100,00 %
17.10.2019 16:44 15,1 C 88 % 1009,8 hPa 0,0 l/m 0,0 km/h S 180 0 min 0,000 mm 0,0 UV-I 48 W/m 13,1 C 15,1 C 0,0 km/h 100,00 %
17.10.2019 16:43 15,1 C 88 % 1009,7 hPa 0,0 l/m 0,0 km/h S 180 0 min 0,000 mm 0,0 UV-I 57 W/m 13,1 C 15,1 C 0,0 km/h 100,00 %
17.10.2019 16:42 15,1 C 88 % 1009,7 hPa 0,0 l/m 0,0 km/h S 180 0 min 0,000 mm 0,0 UV-I 61 W/m 13,1 C 15,1 C 0,0 km/h 96,30 %
17.10.2019 16:41 15,1 C 88 % 1009,7 hPa 0,0 l/m 0,0 km/h S 180 0 min 0,000 mm 0,0 UV-I 59 W/m 13,1 C 15,1 C 0,0 km/h 100,00 %
17.10.2019 16:40 15,1 C 88 % 1009,8 hPa 0,0 l/m 0,0 km/h S 180 0 min 0,000 mm 0,0 UV-I 52 W/m 13,1 C 15,1 C 0,0 km/h 100,00 %
17.10.2019 16:39 15,1 C 88 % 1009,8 hPa 0,0 l/m 0,7 km/h S 180 0 min 0,000 mm 0,0 UV-I 41 W/m 13,1 C 15,1 C 1,9 km/h 100,00 %
17.10.2019 16:38 15,1 C 88 % 1009,8 hPa 0,0 l/m 1,8 km/h S 180 0 min 0,000 mm 0,0 UV-I 34 W/m 13,1 C 15,1 C 3,8 km/h 100,00 %
17.10.2019 16:37 15,1 C 88 % 1009,9 hPa 0,0 l/m 1,5 km/h S 180 0 min 0,000 mm 0,0 UV-I 33 W/m 13,1 C 15,1 C 3,8 km/h 100,00 %
17.10.2019 16:36 15,1 C 88 % 1009,9 hPa 0,0 l/m 2,2 km/h S 180 0 min 0,000 mm 0,0 UV-I 33 W/m 13,1 C 15,1 C 3,8 km/h 100,00 %
17.10.2019 16:35 15,1 C 88 % 1009,9 hPa 0,0 l/m 0,4 km/h S 180 0 min 0,000 mm 0,0 UV-I 34 W/m 13,1 C 15,1 C 1,9 km/h 100,00 %
17.10.2019 16:34 15,1 C 88 % 1009,9 hPa 0,0 l/m 0,0 km/h S 180 0 min 0,000 mm 0,0 UV-I 39 W/m 13,1 C 15,1 C 0,0 km/h 100,00 %
17.10.2019 16:33 15,1 C 88 % 1009,9 hPa 0,0 l/m 0,7 km/h S 180 0 min 0,000 mm 0,0 UV-I 44 W/m 13,1 C 15,1 C 1,9 km/h 100,00 %
17.10.2019 16:32 15,1 C 88 % 1009,9 hPa 0,0 l/m 2,4 km/h S 180 0 min 0,000 mm 0,0 UV-I 50 W/m 13,1 C 15,1 C 3,8 km/h 100,00 %
17.10.2019 16:31 15,0 C 88 % 1010,0 hPa 0,0 l/m 0,6 km/h S 180 0 min 0,000 mm 0,0 UV-I 50 W/m 13,0 C 15,0 C 1,9 km/h 100,00 %
17.10.2019 16:30 15,0 C 88 % 1010,0 hPa 0,0 l/m 0,4 km/h S 180 0 min 0,000 mm 0,0 UV-I 42 W/m 13,0 C 15,0 C 1,9 km/h 100,00 %
17.10.2019 16:29 15,0 C 88 % 1010,0 hPa 0,0 l/m 2,1 km/h S 180 0 min 0,000 mm 0,0 UV-I 38 W/m 13,0 C 15,0 C 3,8 km/h 100,00 %
17.10.2019 16:28 15,0 C 88 % 1009,9 hPa 0,0 l/m 1,9 km/h S 180 0 min 0,000 mm 0,0 UV-I 37 W/m 13,0 C 15,0 C 3,8 km/h 100,00 %
17.10.2019 16:27 14,9 C 88 % 1010,0 hPa 0,0 l/m 0,9 km/h S 180 0 min 0,000 mm 0,0 UV-I 36 W/m 12,9 C 14,9 C 1,9 km/h 100,00 %
17.10.2019 16:26 14,9 C 88 % 1010,0 hPa 0,0 l/m 1,6 km/h S 180 0 min 0,000 mm 0,0 UV-I 31 W/m 12,9 C 14,9 C 3,8 km/h 100,00 %
17.10.2019 16:25 14,9 C 88 % 1010,1 hPa 0,0 l/m 2,6 km/h S 180 0 min 0,000 mm 0,0 UV-I 27 W/m 12,9 C 14,9 C 5,7 km/h 100,00 %
17.10.2019 16:24 14,9 C 88 % 1010,1 hPa 0,0 l/m 2,9 km/h S 179 0 min 0,000 mm 0,0 UV-I 24 W/m 12,9 C 14,9 C 5,7 km/h 100,00 %
17.10.2019 16:23 14,9 C 88 % 1010,1 hPa 0,0 l/m 1,9 km/h S 179 0 min 0,000 mm 0,0 UV-I 23 W/m 12,9 C 14,9 C 5,7 km/h 100,00 %
17.10.2019 16:22 14,9 C 87 % 1010,1 hPa 0,0 l/m 3,2 km/h S 188 0 min 0,000 mm 0,0 UV-I 25 W/m 12,8 C 14,9 C 5,7 km/h 100,00 %
17.10.2019 16:21 15,0 C 87 % 1010,1 hPa 0,0 l/m 3,8 km/h S 188 0 min 0,000 mm 0,0 UV-I 25 W/m 12,9 C 15,0 C 7,7 km/h 95,65 %
17.10.2019 16:20 15,0 C 87 % 1010,1 hPa 0,0 l/m 4,2 km/h S 188 0 min 0,000 mm 0,0 UV-I 25 W/m 12,9 C 15,0 C 5,7 km/h 100,00 %
17.10.2019 16:19 15,0 C 87 % 1010,1 hPa 0,0 l/m 5,6 km/h S 188 0 min 0,000 mm 0,0 UV-I 26 W/m 12,9 C 15,0 C 7,7 km/h 100,00 %
17.10.2019 16:18 15,0 C 87 % 1010,1 hPa 0,0 l/m 4,5 km/h S 186 0 min 0,000 mm 0,0 UV-I 27 W/m 12,9 C 15,0 C 5,7 km/h 100,00 %
17.10.2019 16:17 15,0 C 87 % 1010,1 hPa 0,0 l/m 3,5 km/h S 186 0 min 0,000 mm 0,0 UV-I 28 W/m 12,9 C 15,0 C 7,7 km/h 100,00 %
17.10.2019 16:16 15,0 C 87 % 1010,1 hPa 0,0 l/m 2,2 km/h S 184 0 min 0,000 mm 0,0 UV-I 25 W/m 12,9 C 15,0 C 3,8 km/h 100,00 %
17.10.2019 16:15 15,0 C 87 % 1010,1 hPa 0,0 l/m 2,8 km/h S 184 0 min 0,000 mm 0,0 UV-I 23 W/m 12,9 C 15,0 C 5,7 km/h 100,00 %
17.10.2019 16:14 15,0 C 87 % 1010,2 hPa 0,0 l/m 3,7 km/h S 184 0 min 0,000 mm 0,0 UV-I 22 W/m 12,9 C 15,0 C 5,7 km/h 100,00 %
17.10.2019 16:13 15,0 C 87 % 1010,2 hPa 0,0 l/m 5,2 km/h S 184 0 min 0,000 mm 0,0 UV-I 20 W/m 12,9 C 15,0 C 9,6 km/h 100,00 %
17.10.2019 16:12 15,0 C 87 % 1010,2 hPa 0,0 l/m 7,2 km/h S-SO 167 0 min 0,000 mm 0,0 UV-I 19 W/m 12,9 C 14,5 C 9,6 km/h 100,00 %
17.10.2019 16:11 15,0 C 87 % 1010,2 hPa 0,0 l/m 5,3 km/h S 184 0 min 0,000 mm 0,0 UV-I 19 W/m 12,9 C 15,0 C 9,6 km/h 100,00 %
17.10.2019 16:10 15,0 C 87 % 1010,1 hPa 0,0 l/m 6,2 km/h S 177 0 min 0,000 mm 0,0 UV-I 25 W/m 12,9 C 15,0 C 11,5 km/h 100,00 %
17.10.2019 16:09 15,0 C 87 % 1010,1 hPa 0,0 l/m 5,7 km/h S 175 0 min 0,000 mm 0,0 UV-I 28 W/m 12,9 C 15,0 C 9,6 km/h 96,15 %
17.10.2019 16:08 15,0 C 87 % 1010,1 hPa 0,0 l/m 7,3 km/h S 173 0 min 0,000 mm 0,0 UV-I 37 W/m 12,9 C 14,5 C 9,6 km/h 100,00 %
17.10.2019 16:07 15,0 C 87 % 1010,1 hPa 0,0 l/m 6,1 km/h S-SO 163 0 min 0,000 mm 0,0 UV-I 49 W/m 12,9 C 15,0 C 7,7 km/h 100,00 %
17.10.2019 16:06 15,0 C 87 % 1010,1 hPa 0,0 l/m 6,7 km/h SO 142 0 min 0,000 mm 0,0 UV-I 62 W/m 12,9 C 14,8 C 9,6 km/h 100,00 %
17.10.2019 16:05 15,0 C 87 % 1010,1 hPa 0,0 l/m 6,1 km/h S 175 0 min 0,000 mm 0,0 UV-I 76 W/m 12,9 C 15,0 C 9,6 km/h 100,00 %
17.10.2019 16:04 15,1 C 87 % 1010,1 hPa 0,0 l/m 7,0 km/h S 169 0 min 0,000 mm 0,0 UV-I 87 W/m 13,0 C 14,8 C 11,5 km/h 95,65 %
17.10.2019 16:03 15,1 C 87 % 1010,1 hPa 0,0 l/m 5,3 km/h S 172 0 min 0,000 mm 0,0 UV-I 90 W/m 13,0 C 15,1 C 7,7 km/h 95,83 %
17.10.2019 16:02 15,1 C 87 % 1010,2 hPa 0,0 l/m 7,7 km/h S-SO 152 0 min 0,000 mm 0,0 UV-I 89 W/m 13,0 C 14,4 C 9,6 km/h 100,00 %
17.10.2019 16:01 15,1 C 87 % 1010,1 hPa 0,0 l/m 5,5 km/h S 178 0 min 0,076 mm 0,0 UV-I 87 W/m 13,0 C 15,1 C 9,6 km/h 100,00 %
17.10.2019 16:00 15,1 C 87 % 1010,1 hPa 0,0 l/m 7,5 km/h S 190 0 min 0,000 mm 0,0 UV-I 84 W/m 13,0 C 14,5 C 11,5 km/h 100,00 %
17.10.2019 15:59 15,1 C 87 % 1010,1 hPa 0,0 l/m 4,4 km/h SO 145 0 min 0,000 mm 0,0 UV-I 79 W/m 13,0 C 15,1 C 9,6 km/h 100,00 %
17.10.2019 15:58 15,1 C 87 % 1010,1 hPa 0,0 l/m 8,0 km/h S-SW 194 0 min 0,000 mm 0,0 UV-I 79 W/m 13,0 C 14,2 C 13,4 km/h 96,55 %
17.10.2019 15:57 15,1 C 87 % 1010,2 hPa 0,0 l/m 7,6 km/h S-SO 161 0 min 0,000 mm 0,0 UV-I 79 W/m 13,0 C 14,4 C 11,5 km/h 100,00 %
17.10.2019 15:56 15,1 C 87 % 1010,2 hPa 0,0 l/m 8,2 km/h S-SO 162 0 min 0,000 mm 0,0 UV-I 82 W/m 13,0 C 14,1 C 9,6 km/h 100,00 %
17.10.2019 15:55 15,1 C 87 % 1010,2 hPa 0,0 l/m 4,9 km/h S 188 0 min 0,000 mm 0,0 UV-I 94 W/m 13,0 C 15,1 C 7,7 km/h 100,00 %
17.10.2019 15:54 15,1 C 87 % 1010,2 hPa 0,0 l/m 5,6 km/h S 169 0 min 0,000 mm 0,0 UV-I 98 W/m 13,0 C 15,1 C 9,6 km/h 90,91 %
17.10.2019 15:53 15,1 C 87 % 1010,2 hPa 0,0 l/m 4,2 km/h S 174 0 min 0,000 mm 0,0 UV-I 93 W/m 13,0 C 15,1 C 5,7 km/h 96,30 %
17.10.2019 15:52 15,1 C 87 % 1010,3 hPa 0,0 l/m 3,2 km/h S 184 0 min 0,000 mm 0,0 UV-I 86 W/m 13,0 C 15,1 C 3,8 km/h 100,00 %
17.10.2019 15:51 15,1 C 87 % 1010,3 hPa 0,0 l/m 4,8 km/h S 186 0 min 0,000 mm 0,0 UV-I 85 W/m 13,0 C 15,1 C 5,7 km/h 100,00 %
17.10.2019 15:50 15,1 C 86 % 1010,3 hPa 0,0 l/m 4,3 km/h S 188 0 min 0,000 mm 0,0 UV-I 98 W/m 12,8 C 15,1 C 7,7 km/h 100,00 %
17.10.2019 15:49 15,1 C 86 % 1010,3 hPa 0,0 l/m 7,5 km/h S 175 0 min 0,000 mm 0,0 UV-I 112 W/m 12,8 C 14,5 C 13,4 km/h 100,00 %
17.10.2019 15:48 15,2 C 86 % 1010,3 hPa 0,0 l/m 10,5 km/h S 184 0 min 0,000 mm 0,0 UV-I 114 W/m 12,9 C 13,1 C 15,3 km/h 100,00 %
17.10.2019 15:47 15,2 C 86 % 1010,3 hPa 0,0 l/m 5,3 km/h S 174 0 min 0,000 mm 0,0 UV-I 113 W/m 12,9 C 15,2 C 9,6 km/h 100,00 %
17.10.2019 15:46 15,2 C 86 % 1010,3 hPa 0,0 l/m 5,8 km/h S-SO 163 0 min 0,000 mm 0,2 UV-I 115 W/m 12,9 C 15,2 C 9,6 km/h 100,00 %
17.10.2019 15:45 15,2 C 86 % 1010,2 hPa 0,0 l/m 7,1 km/h S 183 0 min 0,000 mm 0,5 UV-I 118 W/m 12,9 C 14,8 C 11,5 km/h 100,00 %
17.10.2019 15:44 15,2 C 86 % 1010,3 hPa 0,0 l/m 7,4 km/h S 185 0 min 0,000 mm 0,5 UV-I 106 W/m 12,9 C 14,6 C 17,2 km/h 100,00 %
17.10.2019 15:43 15,3 C 86 % 1010,3 hPa 0,0 l/m 7,9 km/h S-SW 205 0 min 0,000 mm 0,5 UV-I 89 W/m 13,0 C 14,5 C 11,5 km/h 100,00 %
17.10.2019 15:42 15,3 C 86 % 1010,3 hPa 0,0 l/m 6,1 km/h S 190 0 min 0,000 mm 0,5 UV-I 88 W/m 13,0 C 15,3 C 9,6 km/h 100,00 %
17.10.2019 15:41 15,2 C 86 % 1010,3 hPa 0,0 l/m 7,6 km/h S-SO 162 0 min 0,000 mm 0,5 UV-I 97 W/m 12,9 C 14,5 C 11,5 km/h 100,00 %
17.10.2019 15:40 15,2 C 86 % 1010,3 hPa 0,0 l/m 2,9 km/h S 181 0 min 0,000 mm 0,5 UV-I 103 W/m 12,9 C 15,2 C 3,8 km/h 100,00 %
17.10.2019 15:39 15,3 C 86 % 1010,3 hPa 0,0 l/m 5,6 km/h S 180 0 min 0,000 mm 0,6 UV-I 122 W/m 13,0 C 15,3 C 11,5 km/h 100,00 %
17.10.2019 15:38 15,2 C 86 % 1010,3 hPa 0,0 l/m 7,2 km/h S-SW 200 0 min 0,000 mm 0,6 UV-I 136 W/m 12,9 C 14,8 C 11,5 km/h 100,00 %
17.10.2019 15:37 15,2 C 86 % 1010,3 hPa 0,0 l/m 7,7 km/h S 173 0 min 0,000 mm 0,7 UV-I 144 W/m 12,9 C 14,5 C 11,5 km/h 100,00 %
17.10.2019 15:36 15,2 C 86 % 1010,3 hPa 0,0 l/m 8,2 km/h S 191 0 min 0,000 mm 0,7 UV-I 142 W/m 12,9 C 14,2 C 11,5 km/h 91,67 %
17.10.2019 15:35 15,3 C 86 % 1010,3 hPa 0,0 l/m 10,1 km/h S 180 0 min 0,000 mm 0,7 UV-I 159 W/m 13,0 C 13,4 C 15,3 km/h 100,00 %
17.10.2019 15:34 15,3 C 85 % 1010,2 hPa 0,0 l/m 10,9 km/h S-SO 153 0 min 0,000 mm 0,8 UV-I 159 W/m 12,8 C 13,1 C 23,0 km/h 100,00 %
17.10.2019 15:33 15,3 C 85 % 1010,2 hPa 0,0 l/m 5,7 km/h S-SO 157 0 min 0,000 mm 0,8 UV-I 155 W/m 12,8 C 15,3 C 9,6 km/h 100,00 %
17.10.2019 15:32 15,3 C 85 % 1010,2 hPa 0,0 l/m 4,8 km/h S 178 0 min 0,000 mm 0,8 UV-I 151 W/m 12,8 C 15,3 C 7,7 km/h 100,00 %
17.10.2019 15:31 15,3 C 85 % 1010,2 hPa 0,0 l/m 8,8 km/h SO 132 0 min 0,000 mm 0,8 UV-I 148 W/m 12,8 C 14,0 C 17,2 km/h 100,00 %
17.10.2019 15:30 15,4 C 85 % 1010,2 hPa 0,0 l/m 8,4 km/h S 171 0 min 0,000 mm 0,8 UV-I 150 W/m 12,9 C 14,3 C 13,4 km/h 100,00 %
17.10.2019 15:29 15,4 C 85 % 1010,2 hPa 0,0 l/m 10,6 km/h SO 135 0 min 0,000 mm 0,8 UV-I 164 W/m 12,9 C 13,3 C 15,3 km/h 100,00 %
17.10.2019 15:28 15,4 C 85 % 1010,2 hPa 0,0 l/m 8,2 km/h S 171 0 min 0,000 mm 0,8 UV-I 176 W/m 12,9 C 14,4 C 9,6 km/h 100,00 %
17.10.2019 15:27 15,4 C 85 % 1010,2 hPa 0,0 l/m 10,3 km/h S 169 0 min 0,000 mm 0,7 UV-I 186 W/m 12,9 C 13,4 C 17,2 km/h 100,00 %
17.10.2019 15:26 15,5 C 85 % 1010,2 hPa 0,0 l/m 10,3 km/h S 189 0 min 0,000 mm 0,7 UV-I 182 W/m 13,0 C 13,5 C 15,3 km/h 100,00 %
17.10.2019 15:25 15,5 C 84 % 1010,3 hPa 0,0 l/m 10,0 km/h S-SO 157 0 min 0,000 mm 0,6 UV-I 152 W/m 12,8 C 13,7 C 17,2 km/h 100,00 %
17.10.2019 15:24 15,6 C 84 % 1010,3 hPa 0,0 l/m 6,5 km/h S-SW 199 0 min 0,000 mm 0,6 UV-I 125 W/m 12,9 C 15,6 C 11,5 km/h 100,00 %
17.10.2019 15:23 15,6 C 84 % 1010,3 hPa 0,0 l/m 5,0 km/h S 182 0 min 0,000 mm 0,6 UV-I 114 W/m 12,9 C 15,6 C 5,7 km/h 100,00 %
17.10.2019 15:22 15,6 C 84 % 1010,3 hPa 0,0 l/m 3,6 km/h S 178 0 min 0,000 mm 0,5 UV-I 108 W/m 12,9 C 15,6 C 5,7 km/h 100,00 %
17.10.2019 15:21 15,6 C 84 % 1010,3 hPa 0,0 l/m 3,4 km/h S 178 0 min 0,000 mm 0,5 UV-I 99 W/m 12,9 C 15,6 C 5,7 km/h 100,00 %
17.10.2019 15:20 15,6 C 84 % 1010,3 hPa 0,0 l/m 3,7 km/h S 180 0 min 0,000 mm 0,5 UV-I 110 W/m 12,9 C 15,6 C 5,7 km/h 99,52 %
17.10.2019 15:19 15,6 C 84 % 1010,4 hPa 0,0 l/m 6,1 km/h S-SW 201 0 min 0,000 mm 0,5 UV-I 133 W/m 12,9 C 15,6 C 9,6 km/h 100,00 %
17.10.2019 15:18 15,6 C 83 % 1010,4 hPa 0,0 l/m 6,8 km/h S 182 0 min 0,000 mm 0,6 UV-I 134 W/m 12,7 C 15,4 C 15,3 km/h 100,00 %
17.10.2019 15:17 15,6 C 83 % 1010,4 hPa 0,0 l/m 9,8 km/h W-SW 242 0 min 0,000 mm 0,6 UV-I 140 W/m 12,7 C 13,9 C 15,3 km/h 95,83 %
17.10.2019 15:16 15,6 C 83 % 1010,2 hPa 0,0 l/m 9,2 km/h S-SO 161 0 min 0,000 mm 0,7 UV-I 148 W/m 12,7 C 14,1 C 17,2 km/h 100,00 %
17.10.2019 15:15 15,6 C 83 % 1010,3 hPa 0,0 l/m 2,5 km/h S 178 0 min 0,000 mm 0,6 UV-I 145 W/m 12,7 C 15,6 C 3,8 km/h 100,00 %
17.10.2019 15:14 15,6 C 83 % 1010,3 hPa 0,0 l/m 3,6 km/h S 178 0 min 0,000 mm 0,6 UV-I 135 W/m 12,7 C 15,6 C 7,7 km/h 100,00 %
17.10.2019 15:13 15,6 C 83 % 1010,4 hPa 0,0 l/m 4,6 km/h S-SO 157 0 min 0,000 mm 0,5 UV-I 115 W/m 12,7 C 15,6 C 9,6 km/h 100,00 %
17.10.2019 15:12 15,6 C 83 % 1010,4 hPa 0,0 l/m 3,6 km/h S 171 0 min 0,000 mm 0,0 UV-I 98 W/m 12,7 C 15,6 C 7,7 km/h 100,00 %
17.10.2019 15:11 15,7 C 83 % 1010,4 hPa 0,0 l/m 10,5 km/h S-SW 201 0 min 0,000 mm 0,0 UV-I 86 W/m 12,8 C 13,7 C 17,2 km/h 100,00 %
17.10.2019 15:10 15,7 C 82 % 1010,4 hPa 0,0 l/m 11,0 km/h S-SO 160 0 min 0,000 mm 0,0 UV-I 87 W/m 12,6 C 13,5 C 17,2 km/h 100,00 %
17.10.2019 15:09 15,7 C 82 % 1010,4 hPa 0,0 l/m 6,1 km/h S-SO 166 0 min 0,000 mm 0,3 UV-I 93 W/m 12,6 C 15,7 C 13,4 km/h 100,00 %
17.10.2019 15:08 15,8 C 82 % 1010,4 hPa 0,0 l/m 10,0 km/h S-SO 159 0 min 0,000 mm 0,5 UV-I 99 W/m 12,7 C 14,0 C 15,3 km/h 100,00 %
17.10.2019 15:07 15,8 C 82 % 1010,4 hPa 0,0 l/m 9,2 km/h S-SO 161 0 min 0,000 mm 0,5 UV-I 100 W/m 12,7 C 14,4 C 13,4 km/h 100,00 %
17.10.2019 15:06 15,9 C 82 % 1010,4 hPa 0,0 l/m 6,8 km/h S-SW 207 0 min 0,000 mm 0,5 UV-I 98 W/m 12,8 C 15,7 C 11,5 km/h 100,00 %
17.10.2019 15:05 15,9 C 82 % 1010,4 hPa 0,0 l/m 3,4 km/h S 186 0 min 0,000 mm 0,5 UV-I 100 W/m 12,8 C 15,9 C 7,7 km/h 100,00 %
17.10.2019 15:04 15,9 C 81 % 1010,4 hPa 0,0 l/m 3,0 km/h SW 217 0 min 0,000 mm 0,5 UV-I 96 W/m 12,6 C 15,9 C 7,7 km/h 100,00 %
17.10.2019 15:03 15,9 C 81 % 1010,4 hPa 0,0 l/m 3,7 km/h S 180 0 min 0,000 mm 0,2 UV-I 87 W/m 12,6 C 15,9 C 7,7 km/h 100,00 %
17.10.2019 15:02 15,9 C 81 % 1010,4 hPa 0,0 l/m 4,3 km/h S-SW 205 0 min 0,000 mm 0,4 UV-I 86 W/m 12,6 C 15,9 C 5,7 km/h 100,00 %
17.10.2019 15:01 15,9 C 81 % 1010,4 hPa 0,0 l/m 7,7 km/h S-SW 204 0 min 0,102 mm 0,6 UV-I 107 W/m 12,6 C 15,2 C 19,1 km/h 100,00 %
17.10.2019 15:00 15,9 C 80 % 1010,4 hPa 0,0 l/m 7,9 km/h S-SW 196 0 min 0,000 mm 0,7 UV-I 146 W/m 12,5 C 15,1 C 13,4 km/h 100,00 %
17.10.2019 14:59 15,9 C 80 % 1010,4 hPa 0,0 l/m 11,1 km/h S 175 0 min 0,000 mm 0,7 UV-I 165 W/m 12,5 C 13,7 C 21,0 km/h 100,00 %
17.10.2019 14:58 16,0 C 81 % 1010,4 hPa 0,0 l/m 5,9 km/h S 172 0 min 0,000 mm 0,7 UV-I 154 W/m 12,7 C 16,0 C 11,5 km/h 100,00 %
17.10.2019 14:57 15,9 C 80 % 1010,4 hPa 0,0 l/m 6,1 km/h W-SW 241 0 min 0,000 mm 0,7 UV-I 147 W/m 12,5 C 15,9 C 9,6 km/h 100,00 %
17.10.2019 14:56 15,9 C 80 % 1010,4 hPa 0,0 l/m 9,4 km/h S 182 0 min 0,000 mm 0,7 UV-I 143 W/m 12,5 C 14,4 C 15,3 km/h 100,00 %
17.10.2019 14:55 16,0 C 80 % 1010,4 hPa 0,0 l/m 10,6 km/h S-SO 167 0 min 0,000 mm 0,7 UV-I 131 W/m 12,5 C 14,0 C 15,3 km/h 100,00 %
17.10.2019 14:54 16,0 C 80 % 1010,5 hPa 0,0 l/m 9,3 km/h S 190 0 min 0,000 mm 0,7 UV-I 123 W/m 12,5 C 14,5 C 17,2 km/h 100,00 %
17.10.2019 14:53 16,1 C 80 % 1010,4 hPa 0,0 l/m 10,7 km/h S-SO 147 0 min 0,000 mm 0,6 UV-I 120 W/m 12,6 C 14,0 C 17,2 km/h 100,00 %
17.10.2019 14:52 16,1 C 80 % 1010,5 hPa 0,0 l/m 9,7 km/h SO 144 0 min 0,000 mm 0,6 UV-I 114 W/m 12,6 C 14,5 C 11,5 km/h 100,00 %
17.10.2019 14:51 16,1 C 80 % 1010,5 hPa 0,0 l/m 5,8 km/h S 172 0 min 0,000 mm 0,5 UV-I 107 W/m 12,6 C 16,1 C 9,6 km/h 100,00 %
17.10.2019 14:50 16,1 C 80 % 1010,5 hPa 0,0 l/m 9,4 km/h S-SO 165 0 min 0,000 mm 0,5 UV-I 113 W/m 12,6 C 14,6 C 13,4 km/h 100,00 %
17.10.2019 14:49 16,1 C 79 % 1010,5 hPa 0,0 l/m 3,5 km/h S 181 0 min 0,000 mm 0,6 UV-I 129 W/m 12,5 C 16,1 C 9,6 km/h 100,00 %
17.10.2019 14:48 16,1 C 79 % 1010,4 hPa 0,0 l/m 9,3 km/h S 177 0 min 0,000 mm 0,6 UV-I 138 W/m 12,5 C 14,6 C 15,3 km/h 100,00 %
17.10.2019 14:47 16,1 C 79 % 1010,4 hPa 0,0 l/m 13,3 km/h S-SW 194 0 min 0,000 mm 0,7 UV-I 142 W/m 12,5 C 13,1 C 19,1 km/h 100,00 %
17.10.2019 14:46 16,1 C 79 % 1010,5 hPa 0,0 l/m 9,4 km/h S-SW 208 0 min 0,000 mm 0,6 UV-I 137 W/m 12,5 C 14,6 C 17,2 km/h 100,00 %
17.10.2019 14:45 16,1 C 79 % 1010,5 hPa 0,0 l/m 8,6 km/h S 182 0 min 0,000 mm 0,5 UV-I 121 W/m 12,5 C 15,0 C 13,4 km/h 100,00 %
17.10.2019 14:44 16,1 C 79 % 1010,5 hPa 0,0 l/m 8,1 km/h S-SO 156 0 min 0,000 mm 0,5 UV-I 109 W/m 12,5 C 15,2 C 19,1 km/h 100,00 %
17.10.2019 14:43 16,1 C 79 % 1010,5 hPa 0,0 l/m 9,0 km/h S 187 0 min 0,000 mm 0,5 UV-I 104 W/m 12,5 C 14,8 C 13,4 km/h 100,00 %
17.10.2019 14:42 16,1 C 79 % 1010,5 hPa 0,0 l/m 7,6 km/h S-SO 164 0 min 0,000 mm 0,5 UV-I 102 W/m 12,5 C 15,5 C 13,4 km/h 95,65 %
17.10.2019 14:41 16,1 C 79 % 1010,5 hPa 0,0 l/m 11,4 km/h S-SW 200 0 min 0,000 mm 0,3 UV-I 102 W/m 12,5 C 13,8 C 17,2 km/h 100,00 %
17.10.2019 14:40 16,2 C 79 % 1010,5 hPa 0,0 l/m 8,4 km/h S-SW 207 0 min 0,000 mm 0,0 UV-I 90 W/m 12,6 C 15,2 C 11,5 km/h 100,00 %
17.10.2019 14:39 16,2 C 78 % 1010,5 hPa 0,0 l/m 13,5 km/h S 189 0 min 0,000 mm 0,0 UV-I 76 W/m 12,4 C 13,1 C 24,9 km/h 100,00 %
17.10.2019 14:38 16,2 C 78 % 1010,5 hPa 0,0 l/m 12,0 km/h S-SW 200 0 min 0,000 mm 0,0 UV-I 75 W/m 12,4 C 13,7 C 19,1 km/h 94,74 %
17.10.2019 14:37 16,2 C 78 % 1010,5 hPa 0,0 l/m 11,1 km/h S 181 0 min 0,000 mm 0,0 UV-I 79 W/m 12,4 C 14,0 C 21,0 km/h 99,51 %
17.10.2019 14:36 16,2 C 78 % 1010,4 hPa 0,0 l/m 5,9 km/h S 191 0 min 0,000 mm 0,0 UV-I 80 W/m 12,4 C 16,2 C 9,6 km/h 96,15 %
17.10.2019 14:35 16,2 C 78 % 1010,4 hPa 0,0 l/m 10,2 km/h S 170 0 min 0,000 mm 0,0 UV-I 86 W/m 12,4 C 14,4 C 19,1 km/h 100,00 %
17.10.2019 14:34 16,3 C 78 % 1010,5 hPa 0,0 l/m 11,2 km/h S-SO 167 0 min 0,000 mm 0,3 UV-I 98 W/m 12,5 C 14,1 C 13,4 km/h 100,00 %
17.10.2019 14:33 16,3 C 79 % 1010,5 hPa 0,0 l/m 8,2 km/h S 175 0 min 0,000 mm 0,5 UV-I 111 W/m 12,6 C 15,4 C 15,3 km/h 100,00 %
17.10.2019 14:32 16,3 C 78 % 1010,5 hPa 0,0 l/m 9,2 km/h S-SO 165 0 min 0,000 mm 0,6 UV-I 123 W/m 12,5 C 14,9 C 13,4 km/h 100,00 %
17.10.2019 14:31 16,4 C 79 % 1010,5 hPa 0,0 l/m 10,2 km/h S 173 0 min 0,000 mm 0,6 UV-I 123 W/m 12,7 C 14,6 C 17,2 km/h 100,00 %
17.10.2019 14:30 16,4 C 79 % 1010,4 hPa 0,0 l/m 4,5 km/h S 183 0 min 0,000 mm 0,5 UV-I 116 W/m 12,7 C 16,4 C 5,7 km/h 100,00 %
17.10.2019 14:29 16,4 C 78 % 1010,4 hPa 0,0 l/m 9,8 km/h S 187 0 min 0,000 mm 0,5 UV-I 109 W/m 12,6 C 14,7 C 13,4 km/h 100,00 %
17.10.2019 14:28 16,5 C 79 % 1010,4 hPa 0,0 l/m 11,1 km/h S 181 0 min 0,000 mm 0,6 UV-I 115 W/m 12,8 C 14,3 C 15,3 km/h 100,00 %
17.10.2019 14:27 16,6 C 79 % 1010,4 hPa 0,0 l/m 10,3 km/h S 172 0 min 0,000 mm 0,6 UV-I 132 W/m 12,9 C 14,8 C 17,2 km/h 100,00 %
17.10.2019 14:26 16,6 C 80 % 1010,4 hPa 0,0 l/m 5,9 km/h S-SO 150 0 min 0,000 mm 0,7 UV-I 146 W/m 13,1 C 16,6 C 17,2 km/h 91,67 %
17.10.2019 14:25 16,6 C 79 % 1010,4 hPa 0,0 l/m 5,0 km/h S 184 0 min 0,000 mm 0,8 UV-I 163 W/m 12,9 C 16,6 C 11,5 km/h 100,00 %
17.10.2019 14:24 16,6 C 79 % 1010,4 hPa 0,0 l/m 5,6 km/h S 178 0 min 0,000 mm 0,8 UV-I 171 W/m 12,9 C 16,6 C 9,6 km/h 100,00 %
17.10.2019 14:23 16,6 C 79 % 1010,4 hPa 0,0 l/m 4,8 km/h S-SO 163 0 min 0,000 mm 0,8 UV-I 170 W/m 12,9 C 16,6 C 9,6 km/h 100,00 %
17.10.2019 14:22 16,6 C 79 % 1010,4 hPa 0,0 l/m 6,2 km/h S-SW 207 0 min 0,000 mm 0,8 UV-I 168 W/m 12,9 C 16,6 C 9,6 km/h 100,00 %
17.10.2019 14:21 16,7 C 79 % 1010,4 hPa 0,0 l/m 7,9 km/h S-SO 162 0 min 0,000 mm 0,9 UV-I 180 W/m 13,0 C 15,9 C 11,5 km/h 100,00 %
17.10.2019 14:20 16,7 C 80 % 1010,4 hPa 0,0 l/m 5,7 km/h S 184 0 min 0,000 mm 0,9 UV-I 199 W/m 13,2 C 16,7 C 7,7 km/h 100,00 %
17.10.2019 14:19 16,7 C 79 % 1010,4 hPa 0,0 l/m 7,1 km/h S-SO 148 0 min 0,000 mm 1,0 UV-I 208 W/m 13,0 C 16,3 C 9,6 km/h 91,30 %
17.10.2019 14:18 16,7 C 79 % 1010,3 hPa 0,0 l/m 7,9 km/h S-SO 162 0 min 0,000 mm 1,0 UV-I 219 W/m 13,0 C 15,9 C 13,4 km/h 100,00 %
17.10.2019 14:17 16,7 C 79 % 1010,3 hPa 0,0 l/m 10,0 km/h S-SO 161 0 min 0,000 mm 1,1 UV-I 226 W/m 13,0 C 15,0 C 15,3 km/h 100,00 %
17.10.2019 14:16 16,7 C 80 % 1010,4 hPa 0,0 l/m 4,7 km/h O-SO 109 0 min 0,000 mm 1,1 UV-I 234 W/m 13,2 C 16,7 C 11,5 km/h 95,83 %
17.10.2019 14:15 16,6 C 79 % 1010,4 hPa 0,0 l/m 3,6 km/h SW 215 0 min 0,000 mm 1,2 UV-I 250 W/m 12,9 C 16,6 C 9,6 km/h 100,00 %
17.10.2019 14:14 16,6 C 80 % 1010,4 hPa 0,0 l/m 9,2 km/h SW 232 0 min 0,000 mm 1,3 UV-I 281 W/m 13,1 C 15,2 C 13,4 km/h 95,83 %
17.10.2019 14:13 16,6 C 80 % 1010,4 hPa 0,0 l/m 6,5 km/h SW 219 1 min 0,000 mm 1,3 UV-I 310 W/m 13,1 C 16,6 C 11,5 km/h 100,00 %
17.10.2019 14:12 16,6 C 80 % 1010,4 hPa 0,0 l/m 6,4 km/h SW 222 1 min 0,000 mm 1,3 UV-I 307 W/m 13,1 C 16,6 C 9,6 km/h 96,30 %
17.10.2019 14:11 16,5 C 79 % 1010,5 hPa 0,0 l/m 6,3 km/h S-SW 205 0 min 0,000 mm 1,2 UV-I 282 W/m 12,8 C 16,5 C 11,5 km/h 100,00 %
17.10.2019 14:10 16,5 C 79 % 1010,4 hPa 0,0 l/m 4,7 km/h SW 217 0 min 0,000 mm 1,2 UV-I 261 W/m 12,8 C 16,5 C 7,7 km/h 100,00 %
17.10.2019 14:09 16,5 C 79 % 1010,4 hPa 0,0 l/m 9,0 km/h SW 224 0 min 0,000 mm 1,2 UV-I 252 W/m 12,8 C 15,2 C 13,4 km/h 100,00 %
17.10.2019 14:08 16,6 C 79 % 1010,5 hPa 0,0 l/m 7,7 km/h W-SW 237 0 min 0,000 mm 1,3 UV-I 258 W/m 12,9 C 15,9 C 13,4 km/h 100,00 %
17.10.2019 14:07 16,6 C 79 % 1010,5 hPa 0,0 l/m 6,0 km/h S-SW 196 0 min 0,000 mm 1,3 UV-I 270 W/m 12,9 C 16,6 C 9,6 km/h 100,00 %
17.10.2019 14:06 16,6 C 79 % 1010,5 hPa 0,0 l/m 9,3 km/h SW 227 1 min 0,000 mm 1,3 UV-I 290 W/m 12,9 C 15,2 C 11,5 km/h 100,00 %
17.10.2019 14:05 16,6 C 80 % 1010,4 hPa 0,0 l/m 9,5 km/h S-SW 207 1 min 0,000 mm 1,3 UV-I 300 W/m 13,1 C 15,1 C 13,4 km/h 100,00 %
17.10.2019 14:04 16,6 C 80 % 1010,4 hPa 0,0 l/m 6,3 km/h SW 214 1 min 0,000 mm 1,3 UV-I 328 W/m 13,1 C 16,6 C 11,5 km/h 100,00 %
17.10.2019 14:03 16,6 C 80 % 1010,5 hPa 0,0 l/m 4,5 km/h W-SW 241 0 min 0,000 mm 1,3 UV-I 279 W/m 13,1 C 16,6 C 9,6 km/h 100,00 %
17.10.2019 14:02 16,6 C 80 % 1010,5 hPa 0,0 l/m 5,1 km/h S-SO 159 0 min 0,000 mm 1,3 UV-I 242 W/m 13,1 C 16,6 C 11,5 km/h 100,00 %
17.10.2019 14:01 16,5 C 80 % 1010,4 hPa 0,0 l/m 5,2 km/h S-SW 211 1 min 0,203 mm 1,3 UV-I 295 W/m 13,0 C 16,5 C 9,6 km/h 100,00 %
17.10.2019 14:00 16,5 C 80 % 1010,5 hPa 0,0 l/m 6,5 km/h S-SW 209 1 min 0,000 mm 1,3 UV-I 316 W/m 13,0 C 16,5 C 9,6 km/h 100,00 %
17.10.2019 13:59 16,5 C 80 % 1010,5 hPa 0,0 l/m 6,9 km/h S-SW 209 1 min 0,000 mm 1,2 UV-I 288 W/m 13,0 C 16,2 C 9,6 km/h 100,00 %
17.10.2019 13:58 16,5 C 80 % 1010,5 hPa 0,0 l/m 5,7 km/h SW 215 0 min 0,000 mm 1,1 UV-I 251 W/m 13,0 C 16,5 C 9,6 km/h 95,65 %
17.10.2019 13:57 16,5 C 80 % 1010,5 hPa 0,0 l/m 3,8 km/h S-SW 203 0 min 0,000 mm 1,1 UV-I 236 W/m 13,0 C 16,5 C 7,7 km/h 100,00 %
17.10.2019 13:56 16,5 C 80 % 1010,5 hPa 0,0 l/m 4,2 km/h S-SW 194 0 min 0,000 mm 1,1 UV-I 221 W/m 13,0 C 16,5 C 9,6 km/h 100,00 %
17.10.2019 13:55 16,5 C 80 % 1010,5 hPa 0,0 l/m 7,0 km/h S 189 0 min 0,000 mm 1,1 UV-I 215 W/m 13,0 C 16,2 C 13,4 km/h 100,00 %
17.10.2019 13:54 16,5 C 80 % 1010,6 hPa 0,0 l/m 7,2 km/h S 173 0 min 0,000 mm 1,2 UV-I 227 W/m 13,0 C 16,1 C 11,5 km/h 100,00 %
17.10.2019 13:53 16,5 C 80 % 1010,6 hPa 0,0 l/m 6,2 km/h S 180 0 min 0,000 mm 1,3 UV-I 244 W/m 13,0 C 16,5 C 11,5 km/h 100,00 %
17.10.2019 13:52 16,5 C 80 % 1010,6 hPa 0,0 l/m 7,2 km/h S 184 0 min 0,000 mm 1,3 UV-I 272 W/m 13,0 C 16,1 C 11,5 km/h 100,00 %
17.10.2019 13:51 16,5 C 80 % 1010,6 hPa 0,0 l/m 3,0 km/h S 186 1 min 0,000 mm 1,4 UV-I 310 W/m 13,0 C 16,5 C 5,7 km/h 100,00 %
17.10.2019 13:50 16,5 C 79 % 1010,6 hPa 0,0 l/m 6,9 km/h S 189 1 min 0,000 mm 1,4 UV-I 310 W/m 12,8 C 16,2 C 11,5 km/h 100,00 %
17.10.2019 13:49 16,5 C 79 % 1010,6 hPa 0,0 l/m 9,7 km/h S-SW 208 1 min 0,000 mm 1,3 UV-I 294 W/m 12,8 C 14,9 C 11,5 km/h 100,00 %
17.10.2019 13:48 16,5 C 79 % 1010,6 hPa 0,0 l/m 10,6 km/h S-SW 207 0 min 0,000 mm 1,3 UV-I 279 W/m 12,8 C 14,5 C 15,3 km/h 96,55 %
17.10.2019 13:47 16,6 C 79 % 1010,6 hPa 0,0 l/m 11,5 km/h SW 218 0 min 0,000 mm 1,2 UV-I 270 W/m 12,9 C 14,3 C 15,3 km/h 100,00 %
17.10.2019 13:46 16,6 C 79 % 1010,6 hPa 0,0 l/m 6,5 km/h SW 218 0 min 0,000 mm 1,2 UV-I 258 W/m 12,9 C 16,6 C 15,3 km/h 100,00 %
17.10.2019 13:45 16,6 C 79 % 1010,6 hPa 0,0 l/m 8,1 km/h S-SW 209 0 min 0,000 mm 1,2 UV-I 240 W/m 12,9 C 15,7 C 15,3 km/h 100,00 %
17.10.2019 13:44 16,7 C 79 % 1010,7 hPa 0,0 l/m 13,0 km/h SW 225 0 min 0,000 mm 1,2 UV-I 221 W/m 13,0 C 13,9 C 17,2 km/h 100,00 %
17.10.2019 13:43 16,7 C 80 % 1010,7 hPa 0,0 l/m 7,5 km/h S-SW 212 0 min 0,000 mm 1,2 UV-I 207 W/m 13,2 C 16,1 C 15,3 km/h 95,65 %
17.10.2019 13:42 16,7 C 80 % 1010,7 hPa 0,0 l/m 10,4 km/h S 179 0 min 0,000 mm 1,2 UV-I 213 W/m 13,2 C 14,8 C 17,2 km/h 100,00 %
17.10.2019 13:41 16,8 C 81 % 1010,7 hPa 0,0 l/m 9,2 km/h S-SW 192 1 min 0,000 mm 1,3 UV-I 315 W/m 13,5 C 15,4 C 19,1 km/h 100,00 %
17.10.2019 13:40 16,7 C 81 % 1010,7 hPa 0,0 l/m 8,8 km/h S-SO 160 1 min 0,000 mm 1,5 UV-I 450 W/m 13,4 C 15,5 C 15,3 km/h 100,00 %
17.10.2019 13:39 16,7 C 81 % 1010,7 hPa 0,0 l/m 5,4 km/h W-SW 246 1 min 0,000 mm 1,5 UV-I 397 W/m 13,4 C 16,7 C 9,6 km/h 100,00 %
17.10.2019 13:38 16,7 C 80 % 1010,7 hPa 0,0 l/m 3,7 km/h S-SO 157 1 min 0,000 mm 1,4 UV-I 318 W/m 13,2 C 16,7 C 9,6 km/h 100,00 %
17.10.2019 13:37 16,7 C 81 % 1010,7 hPa 0,0 l/m 7,1 km/h S-SO 157 1 min 0,000 mm 1,3 UV-I 289 W/m 13,4 C 16,3 C 15,3 km/h 100,00 %
17.10.2019 13:36 16,7 C 81 % 1010,7 hPa 0,0 l/m 6,6 km/h S 184 1 min 0,000 mm 1,3 UV-I 290 W/m 13,4 C 16,6 C 11,5 km/h 100,00 %
17.10.2019 13:35 16,6 C 80 % 1010,7 hPa 0,0 l/m 7,2 km/h S-SO 167 0 min 0,000 mm 1,3 UV-I 278 W/m 13,1 C 16,2 C 11,5 km/h 100,00 %
17.10.2019 13:34 16,6 C 80 % 1010,7 hPa 0,0 l/m 7,8 km/h S-SW 202 0 min 0,000 mm 1,3 UV-I 272 W/m 13,1 C 15,9 C 13,4 km/h 100,00 %
17.10.2019 13:33 16,6 C 80 % 1010,6 hPa 0,0 l/m 8,9 km/h S 190 0 min 0,000 mm 1,4 UV-I 266 W/m 13,1 C 15,4 C 13,4 km/h 100,00 %
17.10.2019 13:32 16,6 C 80 % 1010,7 hPa 0,0 l/m 9,7 km/h S-SO 156 0 min 0,000 mm 1,4 UV-I 270 W/m 13,1 C 15,0 C 15,3 km/h 100,00 %
17.10.2019 13:31 16,6 C 80 % 1010,7 hPa 0,0 l/m 10,3 km/h S-SO 163 1 min 0,000 mm 1,6 UV-I 350 W/m 13,1 C 14,8 C 15,3 km/h 100,00 %
17.10.2019 13:30 16,6 C 80 % 1010,6 hPa 0,0 l/m 11,3 km/h S 181 1 min 0,000 mm 1,7 UV-I 350 W/m 13,1 C 14,4 C 15,3 km/h 100,00 %
17.10.2019 13:29 16,6 C 81 % 1010,7 hPa 0,0 l/m 13,2 km/h SO 144 1 min 0,000 mm 1,9 UV-I 350 W/m 13,3 C 13,7 C 21,0 km/h 100,00 %
17.10.2019 13:28 16,6 C 81 % 1010,6 hPa 0,0 l/m 11,1 km/h S 169 1 min 0,000 mm 2,0 UV-I 350 W/m 13,3 C 14,4 C 19,1 km/h 100,00 %
17.10.2019 13:27 16,7 C 80 % 1010,6 hPa 0,0 l/m 11,8 km/h S 169 1 min 0,000 mm 1,7 UV-I 350 W/m 13,2 C 14,3 C 21,0 km/h 100,00 %
17.10.2019 13:26 16,8 C 81 % 1010,6 hPa 0,0 l/m 13,2 km/h S-SO 154 1 min 0,000 mm 1,6 UV-I 352 W/m 13,5 C 13,9 C 17,2 km/h 100,00 %
17.10.2019 13:25 16,8 C 81 % 1010,6 hPa 0,0 l/m 10,0 km/h S-SO 150 1 min 0,000 mm 1,5 UV-I 290 W/m 13,5 C 15,1 C 19,1 km/h 100,00 %
17.10.2019 13:24 16,9 C 82 % 1010,6 hPa 0,0 l/m 11,2 km/h S-SW 204 0 min 0,000 mm 1,3 UV-I 243 W/m 13,8 C 14,8 C 21,0 km/h 100,00 %
17.10.2019 13:23 17,0 C 83 % 1010,6 hPa 0,0 l/m 6,8 km/h S-SO 162 0 min 0,000 mm 1,3 UV-I 225 W/m 14,1 C 16,8 C 9,6 km/h 100,00 %
17.10.2019 13:22 16,9 C 84 % 1010,7 hPa 0,0 l/m 7,3 km/h S-SO 161 1 min 0,000 mm 1,6 UV-I 443 W/m 14,2 C 16,4 C 17,2 km/h 100,00 %
17.10.2019 13:21 16,9 C 84 % 1010,6 hPa 0,0 l/m 6,3 km/h S 172 1 min 0,000 mm 1,7 UV-I 469 W/m 14,2 C 16,9 C 11,5 km/h 100,00 %
17.10.2019 13:20 16,8 C 84 % 1010,6 hPa 0,0 l/m 6,1 km/h S 182 1 min 0,000 mm 1,7 UV-I 531 W/m 14,1 C 16,8 C 9,6 km/h 100,00 %
17.10.2019 13:19 16,7 C 84 % 1010,6 hPa 0,0 l/m 6,7 km/h S 169 1 min 0,000 mm 1,7 UV-I 617 W/m 14,0 C 16,6 C 9,6 km/h 100,00 %
17.10.2019 13:18 16,6 C 84 % 1010,7 hPa 0,0 l/m 8,8 km/h SW 227 1 min 0,000 mm 1,8 UV-I 646 W/m 13,9 C 15,4 C 11,5 km/h 100,00 %
17.10.2019 13:17 16,6 C 84 % 1010,7 hPa 0,0 l/m 7,9 km/h S-SW 199 1 min 0,000 mm 1,8 UV-I 689 W/m 13,9 C 15,8 C 9,6 km/h 100,00 %
17.10.2019 13:16 16,6 C 84 % 1010,7 hPa 0,0 l/m 7,4 km/h S-SW 205 1 min 0,000 mm 1,7 UV-I 369 W/m 13,9 C 16,1 C 13,4 km/h 96,15 %
17.10.2019 13:15 16,5 C 84 % 1010,7 hPa 0,0 l/m 8,6 km/h S-SW 201 1 min 0,000 mm 1,4 UV-I 291 W/m 13,8 C 15,4 C 13,4 km/h 95,83 %
17.10.2019 13:14 16,5 C 85 % 1010,7 hPa 0,0 l/m 5,7 km/h S-SW 211 1 min 0,000 mm 1,2 UV-I 545 W/m 14,0 C 16,5 C 11,5 km/h 100,00 %
17.10.2019 13:13 16,5 C 85 % 1010,7 hPa 0,0 l/m 13,2 km/h SW 223 1 min 0,000 mm 1,4 UV-I 545 W/m 14,0 C 13,6 C 19,1 km/h 95,83 %
17.10.2019 13:12 16,4 C 85 % 1010,7 hPa 0,0 l/m 8,9 km/h S-SO 147 1 min 0,000 mm 1,7 UV-I 545 W/m 13,9 C 15,1 C 11,5 km/h 100,00 %
17.10.2019 13:11 16,4 C 87 % 1010,7 hPa 0,0 l/m 14,0 km/h S-SO 150 1 min 0,000 mm 1,5 UV-I 545 W/m 14,2 C 13,2 C 21,0 km/h 100,00 %
17.10.2019 13:10 16,4 C 88 % 1010,7 hPa 0,0 l/m 12,2 km/h S-SO 167 1 min 0,000 mm 1,6 UV-I 626 W/m 14,4 C 13,8 C 21,0 km/h 100,00 %
17.10.2019 13:09 16,3 C 88 % 1010,7 hPa 0,0 l/m 4,7 km/h S-SO 168 1 min 0,000 mm 1,5 UV-I 645 W/m 14,3 C 16,3 C 9,6 km/h 100,00 %
17.10.2019 13:08 16,2 C 89 % 1010,7 hPa 0,0 l/m 5,9 km/h S-SW 205 1 min 0,000 mm 1,7 UV-I 645 W/m 14,4 C 16,2 C 13,4 km/h 100,00 %
17.10.2019 13:07 16,1 C 89 % 1010,8 hPa 0,0 l/m 5,4 km/h S 186 1 min 0,000 mm 1,7 UV-I 645 W/m 14,3 C 16,1 C 9,6 km/h 100,00 %
17.10.2019 13:06 15,9 C 89 % 1010,7 hPa 0,0 l/m 6,2 km/h S 187 1 min 0,000 mm 1,7 UV-I 644 W/m 14,1 C 15,9 C 9,6 km/h 100,00 %
17.10.2019 13:05 15,8 C 88 % 1010,7 hPa 0,0 l/m 5,0 km/h SW 228 1 min 0,000 mm 1,8 UV-I 638 W/m 13,8 C 15,8 C 7,7 km/h 99,53 %
17.10.2019 13:04 15,8 C 88 % 1010,7 hPa 0,0 l/m 4,4 km/h S 176 0 min 0,000 mm 1,8 UV-I 258 W/m 13,8 C 15,8 C 7,7 km/h 100,00 %
17.10.2019 13:03 15,8 C 88 % 1010,8 hPa 0,0 l/m 11,0 km/h S-SW 194 0 min 0,000 mm 1,4 UV-I 123 W/m 13,8 C 13,6 C 15,3 km/h 100,00 %
17.10.2019 13:02 15,8 C 89 % 1010,7 hPa 0,0 l/m 14,3 km/h S 171 0 min 0,000 mm 1,5 UV-I 123 W/m 14,0 C 12,4 C 21,0 km/h 100,00 %
17.10.2019 13:01 15,8 C 89 % 1010,8 hPa 0,0 l/m 5,6 km/h S 182 0 min 0,000 mm 1,3 UV-I 123 W/m 14,0 C 15,8 C 9,6 km/h 95,65 %
17.10.2019 13:00 15,8 C 90 % 1010,8 hPa 0,0 l/m 7,8 km/h S-SO 160 0 min 0,203 mm 1,1 UV-I 125 W/m 14,2 C 15,0 C 11,5 km/h 100,00 %
17.10.2019 12:59 15,9 C 90 % 1010,8 hPa 0,0 l/m 7,7 km/h S-SO 157 0 min 0,000 mm 1,1 UV-I 143 W/m 14,3 C 15,2 C 11,5 km/h 100,00 %
17.10.2019 12:58 15,9 C 90 % 1010,8 hPa 0,0 l/m 8,8 km/h S 184 0 min 0,000 mm 1,1 UV-I 173 W/m 14,3 C 14,7 C 13,4 km/h 100,00 %
17.10.2019 12:57 15,9 C 90 % 1010,8 hPa 0,0 l/m 12,2 km/h S-SW 195 0 min 0,000 mm 1,2 UV-I 224 W/m 14,3 C 13,2 C 17,2 km/h 100,00 %
17.10.2019 12:56 16,0 C 91 % 1010,8 hPa 0,0 l/m 8,3 km/h S-SO 155 1 min 0,000 mm 1,5 UV-I 515 W/m 14,5 C 15,0 C 15,3 km/h 100,00 %
17.10.2019 12:55 16,1 C 92 % 1010,8 hPa 0,0 l/m 11,1 km/h S-SO 164 1 min 0,000 mm 1,5 UV-I 515 W/m 14,8 C 13,9 C 15,3 km/h 100,00 %
17.10.2019 12:54 16,1 C 92 % 1010,8 hPa 0,0 l/m 5,9 km/h S-SW 193 1 min 0,000 mm 1,3 UV-I 515 W/m 14,8 C 16,1 C 9,6 km/h 100,00 %
17.10.2019 12:53 16,0 C 93 % 1010,8 hPa 0,0 l/m 7,3 km/h S-SO 161 1 min 0,000 mm 1,6 UV-I 515 W/m 14,9 C 15,5 C 13,4 km/h 100,00 %
17.10.2019 12:52 16,0 C 94 % 1010,8 hPa 0,0 l/m 9,9 km/h S 172 1 min 0,000 mm 1,7 UV-I 544 W/m 15,0 C 14,3 C 15,3 km/h 100,00 %
17.10.2019 12:51 15,9 C 94 % 1010,8 hPa 0,0 l/m 6,2 km/h SO 146 1 min 0,000 mm 1,7 UV-I 546 W/m 14,9 C 15,9 C 15,3 km/h 100,00 %
17.10.2019 12:50 15,8 C 94 % 1010,8 hPa 0,0 l/m 4,8 km/h S-SW 203 1 min 0,000 mm 1,8 UV-I 586 W/m 14,8 C 15,8 C 7,7 km/h 100,00 %
17.10.2019 12:49 15,7 C 94 % 1010,8 hPa 0,0 l/m 5,2 km/h S 180 1 min 0,000 mm 1,8 UV-I 602 W/m 14,7 C 15,7 C 7,7 km/h 100,00 %
17.10.2019 12:48 15,6 C 94 % 1010,8 hPa 0,0 l/m 5,9 km/h S-SW 207 1 min 0,000 mm 1,7 UV-I 574 W/m 14,6 C 15,6 C 9,6 km/h 100,00 %
17.10.2019 12:47 15,5 C 94 % 1010,8 hPa 0,0 l/m 8,7 km/h S-SW 200 1 min 0,000 mm 1,7 UV-I 541 W/m 14,5 C 14,3 C 11,5 km/h 100,00 %
17.10.2019 12:46 15,4 C 94 % 1010,8 hPa 0,0 l/m 7,0 km/h SW 225 1 min 0,000 mm 1,7 UV-I 540 W/m 14,4 C 15,1 C 11,5 km/h 100,00 %
17.10.2019 12:45 15,4 C 94 % 1010,8 hPa 0,0 l/m 6,7 km/h SW 214 1 min 0,000 mm 1,7 UV-I 526 W/m 14,4 C 15,2 C 11,5 km/h 100,00 %
17.10.2019 12:44 15,3 C 94 % 1010,9 hPa 0,0 l/m 5,7 km/h SW 216 1 min 0,000 mm 1,7 UV-I 523 W/m 14,3 C 15,3 C 9,6 km/h 100,00 %
17.10.2019 12:43 15,3 C 94 % 1010,9 hPa 0,0 l/m 8,8 km/h SW 235 1 min 0,000 mm 1,7 UV-I 531 W/m 14,3 C 14,0 C 11,5 km/h 100,00 %
17.10.2019 12:42 15,3 C 95 % 1010,9 hPa 0,0 l/m 12,7 km/h SW 234 1 min 0,000 mm 1,8 UV-I 425 W/m 14,5 C 12,4 C 21,0 km/h 100,00 %
17.10.2019 12:41 15,3 C 95 % 1010,9 hPa 0,0 l/m 7,7 km/h SW 215 1 min 0,000 mm 1,4 UV-I 343 W/m 14,5 C 14,6 C 17,2 km/h 100,00 %
17.10.2019 12:40 15,3 C 95 % 1010,9 hPa 0,0 l/m 2,2 km/h S 180 0 min 0,000 mm 1,4 UV-I 264 W/m 14,5 C 15,3 C 3,8 km/h 100,00 %
17.10.2019 12:39 15,2 C 94 % 1010,9 hPa 0,0 l/m 3,5 km/h S 180 0 min 0,000 mm 1,7 UV-I 253 W/m 14,2 C 15,2 C 5,7 km/h 100,00 %
17.10.2019 12:38 15,2 C 95 % 1010,9 hPa 0,0 l/m 7,1 km/h S 177 0 min 0,000 mm 1,4 UV-I 253 W/m 14,4 C 14,8 C 13,4 km/h 100,00 %
17.10.2019 12:37 15,2 C 95 % 1010,9 hPa 0,0 l/m 10,7 km/h S 171 0 min 0,000 mm 1,4 UV-I 271 W/m 14,4 C 13,0 C 17,2 km/h 96,30 %
17.10.2019 12:36 15,3 C 95 % 1010,9 hPa 0,0 l/m 7,3 km/h S-SW 192 1 min 0,000 mm 1,7 UV-I 465 W/m 14,5 C 14,8 C 13,4 km/h 95,65 %
17.10.2019 12:35 15,2 C 95 % 1010,9 hPa 0,0 l/m 8,2 km/h S-SW 194 1 min 0,000 mm 1,7 UV-I 566 W/m 14,4 C 14,2 C 11,5 km/h 100,00 %
17.10.2019 12:34 15,2 C 96 % 1011,0 hPa 0,0 l/m 8,2 km/h S 189 0 min 0,000 mm 1,4 UV-I 248 W/m 14,6 C 14,2 C 17,2 km/h 100,00 %
17.10.2019 12:33 15,2 C 96 % 1011,0 hPa 0,0 l/m 9,9 km/h S 170 0 min 0,000 mm 1,3 UV-I 247 W/m 14,6 C 13,4 C 15,3 km/h 96,30 %
17.10.2019 12:32 15,2 C 96 % 1010,9 hPa 0,0 l/m 5,8 km/h S-SO 154 1 min 0,000 mm 1,4 UV-I 466 W/m 14,6 C 15,2 C 11,5 km/h 100,00 %
17.10.2019 12:31 15,1 C 96 % 1011,0 hPa 0,0 l/m 7,5 km/h S 174 1 min 0,000 mm 1,6 UV-I 466 W/m 14,5 C 14,5 C 13,4 km/h 100,00 %
17.10.2019 12:30 15,1 C 96 % 1011,0 hPa 0,0 l/m 9,2 km/h S 170 1 min 0,000 mm 1,4 UV-I 466 W/m 14,5 C 13,6 C 13,4 km/h 100,00 %
17.10.2019 12:29 15,1 C 96 % 1011,0 hPa 0,0 l/m 8,3 km/h SW 223 1 min 0,000 mm 1,4 UV-I 466 W/m 14,5 C 14,0 C 15,3 km/h 95,65 %
17.10.2019 12:28 15,0 C 96 % 1011,0 hPa 0,0 l/m 3,7 km/h S-SW 209 1 min 0,000 mm 1,6 UV-I 466 W/m 14,4 C 15,0 C 7,7 km/h 95,83 %
17.10.2019 12:27 14,9 C 96 % 1011,0 hPa 0,0 l/m 6,9 km/h S-SW 202 1 min 0,000 mm 1,7 UV-I 433 W/m 14,3 C 14,6 C 11,5 km/h 100,00 %
17.10.2019 12:26 14,9 C 96 % 1011,0 hPa 0,0 l/m 8,2 km/h S 188 0 min 0,000 mm 1,4 UV-I 267 W/m 14,3 C 13,9 C 15,3 km/h 100,00 %
17.10.2019 12:25 14,8 C 96 % 1010,9 hPa 0,0 l/m 7,3 km/h S-SW 209 0 min 0,000 mm 1,2 UV-I 227 W/m 14,2 C 14,3 C 11,5 km/h 100,00 %
17.10.2019 12:24 14,9 C 96 % 1010,9 hPa 0,0 l/m 6,0 km/h S 185 1 min 0,000 mm 1,3 UV-I 440 W/m 14,3 C 14,9 C 11,5 km/h 100,00 %
17.10.2019 12:23 14,9 C 96 % 1010,9 hPa 0,0 l/m 7,7 km/h S-SW 194 1 min 0,000 mm 1,3 UV-I 580 W/m 14,3 C 14,2 C 13,4 km/h 96,88 %
17.10.2019 12:22 14,9 C 96 % 1010,9 hPa 0,0 l/m 9,9 km/h S 179 1 min 0,000 mm 1,4 UV-I 572 W/m 14,3 C 13,1 C 19,1 km/h 100,00 %
17.10.2019 12:21 14,9 C 96 % 1011,0 hPa 0,0 l/m 8,1 km/h S-SO 159 1 min 0,000 mm 1,7 UV-I 536 W/m 14,3 C 13,9 C 13,4 km/h 100,00 %
17.10.2019 12:20 14,9 C 96 % 1011,0 hPa 0,0 l/m 5,4 km/h SW 228 1 min 0,000 mm 1,5 UV-I 525 W/m 14,3 C 14,9 C 11,5 km/h 100,00 %
17.10.2019 12:19 14,9 C 97 % 1011,0 hPa 0,0 l/m 8,2 km/h S-SW 199 1 min 0,000 mm 1,3 UV-I 436 W/m 14,4 C 13,9 C 9,6 km/h 100,00 %
17.10.2019 12:18 14,9 C 97 % 1011,0 hPa 0,0 l/m 7,6 km/h S-SW 211 1 min 0,000 mm 1,3 UV-I 436 W/m 14,4 C 14,2 C 11,5 km/h 100,00 %
17.10.2019 12:17 14,9 C 97 % 1011,0 hPa 0,0 l/m 6,9 km/h S-SW 198 1 min 0,000 mm 1,4 UV-I 412 W/m 14,4 C 14,6 C 11,5 km/h 100,00 %
17.10.2019 12:16 14,9 C 97 % 1010,9 hPa 0,0 l/m 7,6 km/h S-SW 209 1 min 0,000 mm 1,2 UV-I 314 W/m 14,4 C 14,2 C 15,3 km/h 100,00 %
17.10.2019 12:15 14,8 C 96 % 1011,0 hPa 0,0 l/m 2,4 km/h S-SW 205 1 min 0,000 mm 1,3 UV-I 366 W/m 14,2 C 14,8 C 3,8 km/h 100,00 %
17.10.2019 12:14 14,7 C 96 % 1011,0 hPa 0,0 l/m 3,2 km/h S-SW 206 1 min 0,000 mm 1,6 UV-I 496 W/m 14,1 C 14,7 C 5,7 km/h 100,00 %
17.10.2019 12:13 14,6 C 96 % 1010,9 hPa 0,0 l/m 4,3 km/h S-SO 165 1 min 0,000 mm 1,6 UV-I 496 W/m 14,0 C 14,6 C 11,5 km/h 93,33 %
17.10.2019 12:12 14,5 C 96 % 1010,9 hPa 0,0 l/m 6,2 km/h S-SO 168 1 min 0,000 mm 1,5 UV-I 328 W/m 13,9 C 14,5 C 9,6 km/h 100,00 %
17.10.2019 12:11 14,4 C 96 % 1010,9 hPa 0,0 l/m 3,8 km/h S 183 0 min 0,000 mm 1,3 UV-I 244 W/m 13,8 C 14,4 C 9,6 km/h 100,00 %
17.10.2019 12:10 14,4 C 96 % 1011,0 hPa 0,0 l/m 2,5 km/h SW 234 0 min 0,000 mm 1,0 UV-I 240 W/m 13,8 C 14,4 C 3,8 km/h 100,00 %
17.10.2019 12:09 14,4 C 96 % 1010,9 hPa 0,0 l/m 6,1 km/h SW 234 0 min 0,000 mm 0,9 UV-I 189 W/m 13,8 C 14,4 C 9,6 km/h 100,00 %
17.10.2019 12:08 14,3 C 96 % 1010,9 hPa 0,0 l/m 3,7 km/h SW 228 0 min 0,000 mm 0,9 UV-I 170 W/m 13,7 C 14,3 C 9,6 km/h 100,00 %
17.10.2019 12:07 14,3 C 96 % 1010,9 hPa 0,0 l/m 5,7 km/h S-SW 213 0 min 0,000 mm 0,8 UV-I 167 W/m 13,7 C 14,3 C 7,7 km/h 100,00 %
17.10.2019 12:06 14,3 C 96 % 1010,9 hPa 0,0 l/m 6,5 km/h S-SW 212 0 min 0,000 mm 0,8 UV-I 169 W/m 13,7 C 14,3 C 11,5 km/h 100,00 %
17.10.2019 12:05 14,3 C 96 % 1010,9 hPa 0,0 l/m 7,4 km/h SW 215 0 min 0,000 mm 0,8 UV-I 175 W/m 13,7 C 13,7 C 9,6 km/h 100,00 %
17.10.2019 12:04 14,3 C 96 % 1010,9 hPa 0,0 l/m 9,7 km/h S-SW 207 0 min 0,000 mm 0,8 UV-I 171 W/m 13,7 C 12,5 C 13,4 km/h 99,54 %
17.10.2019 12:03 14,3 C 96 % 1010,9 hPa 0,0 l/m 7,8 km/h SW 214 0 min 0,000 mm 0,7 UV-I 167 W/m 13,7 C 13,5 C 9,6 km/h 100,00 %
17.10.2019 12:02 14,3 C 96 % 1010,9 hPa 0,0 l/m 4,0 km/h S-SW 204 0 min 0,000 mm 0,7 UV-I 155 W/m 13,7 C 14,3 C 5,7 km/h 100,00 %
17.10.2019 12:01 14,3 C 96 % 1010,9 hPa 0,0 l/m 5,9 km/h SW 216 0 min 0,051 mm 0,7 UV-I 154 W/m 13,7 C 14,3 C 9,6 km/h 100,00 %
17.10.2019 12:00 14,3 C 96 % 1010,8 hPa 0,0 l/m 9,0 km/h SW 215 0 min 0,000 mm 0,6 UV-I 133 W/m 13,7 C 12,8 C 15,3 km/h 100,00 %
17.10.2019 11:59 14,3 C 96 % 1010,8 hPa 0,0 l/m 8,6 km/h S-SW 198 0 min 0,000 mm 0,5 UV-I 112 W/m 13,7 C 13,0 C 13,4 km/h 100,00 %
17.10.2019 11:58 14,3 C 96 % 1010,8 hPa 0,0 l/m 5,8 km/h S 182 0 min 0,000 mm 0,6 UV-I 124 W/m 13,7 C 14,3 C 7,7 km/h 100,00 %
17.10.2019 11:57 14,3 C 96 % 1010,8 hPa 0,0 l/m 7,1 km/h SW 214 0 min 0,000 mm 0,6 UV-I 139 W/m 13,7 C 13,9 C 9,6 km/h 100,00 %
17.10.2019 11:56 14,2 C 96 % 1010,8 hPa 0,0 l/m 6,5 km/h S-SW 209 0 min 0,000 mm 0,8 UV-I 156 W/m 13,6 C 14,2 C 9,6 km/h 100,00 %
17.10.2019 11:55 14,2 C 96 % 1010,8 hPa 0,0 l/m 3,9 km/h SW 219 0 min 0,000 mm 0,7 UV-I 155 W/m 13,6 C 14,2 C 5,7 km/h 100,00 %
17.10.2019 11:54 14,2 C 96 % 1010,8 hPa 0,0 l/m 7,5 km/h SW 222 0 min 0,000 mm 0,7 UV-I 148 W/m 13,6 C 13,5 C 9,6 km/h 100,00 %
17.10.2019 11:53 14,2 C 96 % 1010,8 hPa 0,0 l/m 7,4 km/h S-SW 213 0 min 0,000 mm 0,8 UV-I 154 W/m 13,6 C 13,6 C 11,5 km/h 100,00 %
17.10.2019 11:52 14,2 C 96 % 1010,8 hPa 0,0 l/m 9,1 km/h S-SW 212 0 min 0,000 mm 0,7 UV-I 141 W/m 13,6 C 12,7 C 17,2 km/h 100,00 %
17.10.2019 11:51 14,2 C 96 % 1010,7 hPa 0,0 l/m 8,1 km/h SW 227 0 min 0,000 mm 0,6 UV-I 129 W/m 13,6 C 13,2 C 11,5 km/h 100,00 %
17.10.2019 11:50 14,2 C 96 % 1010,7 hPa 0,0 l/m 8,3 km/h SW 222 0 min 0,000 mm 0,6 UV-I 118 W/m 13,6 C 13,1 C 11,5 km/h 100,00 %
17.10.2019 11:49 14,2 C 96 % 1010,7 hPa 0,0 l/m 6,1 km/h S-SW 205 0 min 0,000 mm 0,6 UV-I 113 W/m 13,6 C 14,2 C 11,5 km/h 100,00 %
17.10.2019 11:48 14,2 C 96 % 1010,7 hPa 0,0 l/m 8,6 km/h SW 227 0 min 0,000 mm 0,5 UV-I 110 W/m 13,6 C 12,9 C 13,4 km/h 100,00 %
17.10.2019 11:47 14,2 C 96 % 1010,7 hPa 0,0 l/m 5,7 km/h SW 232 0 min 0,000 mm 0,4 UV-I 98 W/m 13,6 C 14,2 C 11,5 km/h 100,00 %
17.10.2019 11:46 14,2 C 96 % 1010,7 hPa 0,0 l/m 11,9 km/h S-SW 205 0 min 0,000 mm 0,0 UV-I 81 W/m 13,6 C 11,4 C 15,3 km/h 100,00 %
17.10.2019 11:45 14,2 C 96 % 1010,7 hPa 0,0 l/m 7,8 km/h SW 218 0 min 0,000 mm 0,0 UV-I 71 W/m 13,6 C 13,4 C 11,5 km/h 100,00 %
17.10.2019 11:44 14,2 C 96 % 1010,7 hPa 0,0 l/m 9,1 km/h SW 217 0 min 0,000 mm 0,0 UV-I 73 W/m 13,6 C 12,7 C 13,4 km/h 100,00 %
17.10.2019 11:43 14,2 C 96 % 1010,6 hPa 0,0 l/m 6,1 km/h S-SW 207 0 min 0,000 mm 0,0 UV-I 82 W/m 13,6 C 14,2 C 13,4 km/h 100,00 %
17.10.2019 11:42 14,2 C 96 % 1010,6 hPa 0,0 l/m 3,6 km/h S-SW 213 0 min 0,000 mm 0,0 UV-I 87 W/m 13,6 C 14,2 C 5,7 km/h 100,00 %
17.10.2019 11:41 14,2 C 96 % 1010,6 hPa 0,0 l/m 4,4 km/h S-SW 211 0 min 0,000 mm 0,5 UV-I 99 W/m 13,6 C 14,2 C 7,7 km/h 100,00 %
17.10.2019 11:40 14,2 C 96 % 1010,6 hPa 0,0 l/m 7,7 km/h S-SW 211 0 min 0,000 mm 0,5 UV-I 114 W/m 13,6 C 13,4 C 13,4 km/h 100,00 %
17.10.2019 11:39 14,2 C 96 % 1010,5 hPa 0,0 l/m 8,1 km/h SW 231 0 min 0,000 mm 0,6 UV-I 126 W/m 13,6 C 13,2 C 13,4 km/h 100,00 %
17.10.2019 11:38 14,2 C 96 % 1010,5 hPa 0,0 l/m 3,8 km/h S-SW 213 0 min 0,000 mm 0,6 UV-I 126 W/m 13,6 C 14,2 C 7,7 km/h 100,00 %
17.10.2019 11:37 14,2 C 96 % 1010,6 hPa 0,0 l/m 5,7 km/h W-SW 251 0 min 0,000 mm 0,5 UV-I 115 W/m 13,6 C 14,2 C 11,5 km/h 100,00 %
17.10.2019 11:36 14,2 C 96 % 1010,6 hPa 0,0 l/m 5,8 km/h SW 217 0 min 0,000 mm 0,4 UV-I 100 W/m 13,6 C 14,2 C 9,6 km/h 100,00 %
17.10.2019 11:35 14,2 C 96 % 1010,6 hPa 0,0 l/m 2,7 km/h SW 222 0 min 0,000 mm 0,0 UV-I 84 W/m 13,6 C 14,2 C 5,7 km/h 100,00 %
17.10.2019 11:34 14,2 C 96 % 1010,6 hPa 0,0 l/m 5,2 km/h SW 224 0 min 0,000 mm 0,0 UV-I 75 W/m 13,6 C 14,2 C 7,7 km/h 100,00 %
17.10.2019 11:33 14,2 C 96 % 1010,5 hPa 0,0 l/m 8,0 km/h SW 220 0 min 0,000 mm 0,0 UV-I 70 W/m 13,6 C 13,3 C 13,4 km/h 100,00 %
17.10.2019 11:32 14,2 C 96 % 1010,6 hPa 0,0 l/m 6,6 km/h S-SW 207 0 min 0,000 mm 0,0 UV-I 74 W/m 13,6 C 14,1 C 9,6 km/h 100,00 %
17.10.2019 11:31 14,2 C 96 % 1010,5 hPa 0,0 l/m 3,8 km/h S-SW 204 0 min 0,000 mm 0,0 UV-I 71 W/m 13,6 C 14,2 C 7,7 km/h 100,00 %
17.10.2019 11:30 14,2 C 96 % 1010,5 hPa 0,0 l/m 5,3 km/h S-SW 202 0 min 0,000 mm 0,0 UV-I 59 W/m 13,6 C 14,2 C 7,7 km/h 100,00 %
17.10.2019 11:29 14,2 C 96 % 1010,5 hPa 0,0 l/m 5,5 km/h SW 225 0 min 0,000 mm 0,0 UV-I 41 W/m 13,6 C 14,2 C 7,7 km/h 100,00 %
17.10.2019 11:28 14,2 C 96 % 1010,5 hPa 0,0 l/m 7,7 km/h W-SW 247 0 min 0,000 mm 0,0 UV-I 42 W/m 13,6 C 13,4 C 11,5 km/h 100,00 %
17.10.2019 11:27 14,2 C 96 % 1010,5 hPa 0,0 l/m 9,2 km/h SW 235 0 min 0,000 mm 0,0 UV-I 51 W/m 13,6 C 12,6 C 15,3 km/h 100,00 %
17.10.2019 11:26 14,2 C 96 % 1010,5 hPa 0,0 l/m 7,2 km/h W-SW 242 0 min 0,000 mm 0,0 UV-I 58 W/m 13,6 C 13,7 C 11,5 km/h 100,00 %
17.10.2019 11:25 14,2 C 96 % 1010,4 hPa 0,0 l/m 4,2 km/h SW 230 0 min 0,000 mm 0,0 UV-I 61 W/m 13,6 C 14,2 C 11,5 km/h 100,00 %
17.10.2019 11:24 14,2 C 96 % 1010,4 hPa 0,0 l/m 3,8 km/h W-NW 284 0 min 0,000 mm 0,0 UV-I 63 W/m 13,6 C 14,2 C 5,7 km/h 100,00 %
17.10.2019 11:23 14,2 C 96 % 1010,4 hPa 0,0 l/m 3,1 km/h SW 225 0 min 0,000 mm 0,0 UV-I 55 W/m 13,6 C 14,2 C 7,7 km/h 100,00 %
17.10.2019 11:22 14,2 C 96 % 1010,4 hPa 0,0 l/m 2,8 km/h SW 227 0 min 0,000 mm 0,0 UV-I 48 W/m 13,6 C 14,2 C 5,7 km/h 100,00 %
17.10.2019 11:21 14,2 C 96 % 1010,4 hPa 0,0 l/m 1,7 km/h SW 227 0 min 0,000 mm 0,0 UV-I 49 W/m 13,6 C 14,2 C 5,7 km/h 100,00 %
17.10.2019 11:20 14,2 C 96 % 1010,4 hPa 0,0 l/m 4,2 km/h SW 227 0 min 0,000 mm 0,0 UV-I 55 W/m 13,6 C 14,2 C 7,7 km/h 100,00 %
17.10.2019 11:19 14,2 C 96 % 1010,4 hPa 0,0 l/m 5,5 km/h SW 225 0 min 0,000 mm 0,0 UV-I 58 W/m 13,6 C 14,2 C 7,7 km/h 100,00 %
17.10.2019 11:18 14,2 C 96 % 1010,4 hPa 0,0 l/m 4,7 km/h SW 219 0 min 0,000 mm 0,0 UV-I 60 W/m 13,6 C 14,2 C 7,7 km/h 100,00 %
17.10.2019 11:17 14,2 C 96 % 1010,4 hPa 0,0 l/m 7,8 km/h W-SW 248 0 min 0,000 mm 0,0 UV-I 63 W/m 13,6 C 13,4 C 9,6 km/h 100,00 %
17.10.2019 11:16 14,2 C 96 % 1010,4 hPa 0,0 l/m 7,8 km/h SW 223 0 min 0,000 mm 0,0 UV-I 62 W/m 13,6 C 13,4 C 17,2 km/h 100,00 %
17.10.2019 11:15 14,2 C 96 % 1010,4 hPa 0,0 l/m 6,8 km/h SW 222 0 min 0,000 mm 0,0 UV-I 61 W/m 13,6 C 14,0 C 9,6 km/h 100,00 %
17.10.2019 11:14 14,2 C 96 % 1010,4 hPa 0,0 l/m 4,2 km/h W-SW 243 0 min 0,000 mm 0,0 UV-I 56 W/m 13,6 C 14,2 C 7,7 km/h 100,00 %
17.10.2019 11:13 14,2 C 96 % 1010,4 hPa 0,0 l/m 5,6 km/h SW 232 0 min 0,000 mm 0,0 UV-I 56 W/m 13,6 C 14,2 C 7,7 km/h 100,00 %
17.10.2019 11:12 14,2 C 96 % 1010,4 hPa 0,0 l/m 5,2 km/h SW 228 0 min 0,000 mm 0,0 UV-I 67 W/m 13,6 C 14,2 C 9,6 km/h 100,00 %
17.10.2019 11:11 14,2 C 96 % 1010,4 hPa 0,0 l/m 6,2 km/h W-SW 242 0 min 0,000 mm 0,0 UV-I 68 W/m 13,6 C 14,2 C 7,7 km/h 100,00 %
17.10.2019 11:10 14,2 C 96 % 1010,4 hPa 0,0 l/m 5,0 km/h W-SW 248 0 min 0,000 mm 0,0 UV-I 57 W/m 13,6 C 14,2 C 9,6 km/h 100,00 %
17.10.2019 11:09 14,2 C 96 % 1010,4 hPa 0,0 l/m 4,4 km/h SW 225 0 min 0,000 mm 0,0 UV-I 59 W/m 13,6 C 14,2 C 9,6 km/h 100,00 %
17.10.2019 11:08 14,2 C 96 % 1010,4 hPa 0,0 l/m 5,1 km/h SW 232 0 min 0,000 mm 0,0 UV-I 63 W/m 13,6 C 14,2 C 7,7 km/h 100,00 %
17.10.2019 11:07 14,2 C 96 % 1010,4 hPa 0,0 l/m 6,6 km/h SW 229 0 min 0,000 mm 0,0 UV-I 66 W/m 13,6 C 14,1 C 9,6 km/h 100,00 %
17.10.2019 11:06 14,2 C 96 % 1010,4 hPa 0,0 l/m 1,3 km/h W-SW 238 0 min 0,000 mm 0,0 UV-I 69 W/m 13,6 C 14,2 C 3,8 km/h 100,00 %
17.10.2019 11:05 14,2 C 96 % 1010,3 hPa 0,0 l/m 6,1 km/h W-SW 238 0 min 0,000 mm 0,0 UV-I 67 W/m 13,6 C 14,2 C 9,6 km/h 100,00 %
17.10.2019 11:04 14,2 C 96 % 1010,3 hPa 0,0 l/m 4,7 km/h SW 225 0 min 0,000 mm 0,0 UV-I 63 W/m 13,6 C 14,2 C 7,7 km/h 100,00 %
17.10.2019 11:03 14,2 C 96 % 1010,3 hPa 0,0 l/m 4,8 km/h SW 220 0 min 0,000 mm 0,0 UV-I 62 W/m 13,6 C 14,2 C 7,7 km/h 100,00 %
17.10.2019 11:02 14,2 C 96 % 1010,3 hPa 0,0 l/m 5,6 km/h S-SW 206 0 min 0,001 mm 0,0 UV-I 63 W/m 13,6 C 14,2 C 9,6 km/h 100,00 %
17.10.2019 11:01 14,2 C 96 % 1010,3 hPa 0,0 l/m 5,8 km/h SW 221 0 min 0,025 mm 0,0 UV-I 68 W/m 13,6 C 14,2 C 9,6 km/h 100,00 %
17.10.2019 11:00 14,2 C 96 % 1010,3 hPa 0,0 l/m 3,1 km/h SW 225 0 min 0,000 mm 0,0 UV-I 78 W/m 13,6 C 14,2 C 5,7 km/h 100,00 %
17.10.2019 10:59 14,2 C 96 % 1010,3 hPa 0,0 l/m 5,2 km/h SW 225 0 min 0,000 mm 0,0 UV-I 80 W/m 13,6 C 14,2 C 7,7 km/h 100,00 %
17.10.2019 10:58 14,2 C 96 % 1010,3 hPa 0,0 l/m 2,9 km/h SW 229 0 min 0,000 mm 0,0 UV-I 78 W/m 13,6 C 14,2 C 7,7 km/h 100,00 %
17.10.2019 10:57 14,3 C 96 % 1010,3 hPa 0,0 l/m 3,9 km/h SW 229 0 min 0,000 mm 0,0 UV-I 83 W/m 13,7 C 14,3 C 7,7 km/h 100,00 %
17.10.2019 10:56 14,3 C 96 % 1010,3 hPa 0,0 l/m 6,0 km/h SW 231 0 min 0,000 mm 0,5 UV-I 92 W/m 13,7 C 14,3 C 9,6 km/h 100,00 %
17.10.2019 10:55 14,3 C 96 % 1010,2 hPa 0,0 l/m 2,4 km/h SW 216 0 min 0,000 mm 0,5 UV-I 102 W/m 13,7 C 14,3 C 5,7 km/h 100,00 %
17.10.2019 10:54 14,2 C 96 % 1010,2 hPa 0,0 l/m 0,8 km/h SW 216 0 min 0,000 mm 0,6 UV-I 122 W/m 13,6 C 14,2 C 1,9 km/h 100,00 %
17.10.2019 10:53 14,2 C 96 % 1010,2 hPa 0,0 l/m 1,9 km/h SW 216 0 min 0,000 mm 0,6 UV-I 144 W/m 13,6 C 14,2 C 5,7 km/h 100,00 %
17.10.2019 10:52 14,2 C 96 % 1010,2 hPa 0,2 l/m 3,3 km/h SW 216 0 min 0,000 mm 0,6 UV-I 155 W/m 13,6 C 14,2 C 5,7 km/h 100,00 %
17.10.2019 10:51 14,2 C 96 % 1010,2 hPa 0,0 l/m 3,7 km/h S-SW 213 0 min 0,000 mm 0,6 UV-I 151 W/m 13,6 C 14,2 C 5,7 km/h 100,00 %
17.10.2019 10:50 14,2 C 95 % 1010,2 hPa 0,0 l/m 2,4 km/h S-SW 211 0 min 0,000 mm 0,5 UV-I 140 W/m 13,4 C 14,2 C 5,7 km/h 100,00 %
17.10.2019 10:49 14,2 C 95 % 1010,2 hPa 0,0 l/m 2,6 km/h S-SW 209 0 min 0,000 mm 0,5 UV-I 135 W/m 13,4 C 14,2 C 5,7 km/h 100,00 %
17.10.2019 10:48 14,2 C 95 % 1010,2 hPa 0,0 l/m 2,4 km/h W-SW 248 0 min 0,000 mm 0,5 UV-I 136 W/m 13,4 C 14,2 C 5,7 km/h 95,65 %
17.10.2019 10:47 14,2 C 95 % 1010,2 hPa 0,0 l/m 3,8 km/h SW 236 0 min 0,000 mm 0,3 UV-I 126 W/m 13,4 C 14,2 C 5,7 km/h 100,00 %
17.10.2019 10:46 14,2 C 95 % 1010,1 hPa 0,0 l/m 3,3 km/h S-SW 210 0 min 0,000 mm 0,0 UV-I 102 W/m 13,4 C 14,2 C 5,7 km/h 100,00 %
17.10.2019 10:45 14,3 C 95 % 1010,1 hPa 0,0 l/m 4,8 km/h S-SW 210 0 min 0,000 mm 0,0 UV-I 76 W/m 13,5 C 14,3 C 9,6 km/h 100,00 %
17.10.2019 10:44 14,3 C 95 % 1010,1 hPa 0,0 l/m 3,5 km/h SW 229 0 min 0,000 mm 0,0 UV-I 56 W/m 13,5 C 14,3 C 9,6 km/h 100,00 %
17.10.2019 10:43 14,3 C 95 % 1010,2 hPa 0,0 l/m 0,6 km/h S-SW 202 0 min 0,000 mm 0,0 UV-I 41 W/m 13,5 C 14,3 C 3,8 km/h 100,00 %
17.10.2019 10:42 14,4 C 95 % 1010,2 hPa 0,0 l/m 2,6 km/h S-SW 202 0 min 0,000 mm 0,0 UV-I 32 W/m 13,6 C 14,4 C 3,8 km/h 96,15 %
17.10.2019 10:41 14,4 C 95 % 1010,1 hPa 0,0 l/m 1,7 km/h W 279 0 min 0,000 mm 0,0 UV-I 31 W/m 13,6 C 14,4 C 3,8 km/h 100,00 %
17.10.2019 10:40 14,5 C 95 % 1010,1 hPa 0,0 l/m 2,3 km/h W-NW 296 0 min 0,000 mm 0,0 UV-I 30 W/m 13,7 C 14,5 C 7,7 km/h 100,00 %
17.10.2019 10:39 14,6 C 96 % 1010,1 hPa 0,0 l/m 2,0 km/h W-NW 296 0 min 0,000 mm 0,0 UV-I 27 W/m 14,0 C 14,6 C 5,7 km/h 100,00 %
17.10.2019 10:38 14,6 C 96 % 1010,1 hPa 0,0 l/m 1,8 km/h W 275 0 min 0,000 mm 0,0 UV-I 27 W/m 14,0 C 14,6 C 3,8 km/h 100,00 %
17.10.2019 10:37 14,6 C 96 % 1010,1 hPa 0,2 l/m 2,4 km/h W 273 0 min 0,000 mm 0,0 UV-I 31 W/m 14,0 C 14,6 C 5,7 km/h 100,00 %
17.10.2019 10:36 14,7 C 96 % 1010,1 hPa 0,0 l/m 3,6 km/h SW 225 0 min 0,000 mm 0,0 UV-I 39 W/m 14,1 C 14,7 C 7,7 km/h 95,65 %
17.10.2019 10:35 14,7 C 96 % 1010,1 hPa 0,0 l/m 1,8 km/h SW 229 0 min 0,000 mm 0,0 UV-I 53 W/m 14,1 C 14,7 C 3,8 km/h 100,00 %
17.10.2019 10:34 14,7 C 96 % 1010,1 hPa 0,0 l/m 1,1 km/h SW 229 0 min 0,000 mm 0,0 UV-I 59 W/m 14,1 C 14,7 C 1,9 km/h 100,00 %
17.10.2019 10:33 14,7 C 96 % 1010,0 hPa 0,0 l/m 1,7 km/h SW 229 0 min 0,000 mm 0,0 UV-I 46 W/m 14,1 C 14,7 C 3,8 km/h 100,00 %
17.10.2019 10:32 14,6 C 95 % 1010,0 hPa 0,2 l/m 4,7 km/h SW 229 0 min 0,000 mm 0,0 UV-I 34 W/m 13,8 C 14,6 C 7,7 km/h 100,00 %
17.10.2019 10:31 14,6 C 95 % 1010,0 hPa 0,0 l/m 5,0 km/h SW 220 0 min 0,000 mm 0,0 UV-I 33 W/m 13,8 C 14,6 C 5,7 km/h 100,00 %
17.10.2019 10:30 14,6 C 95 % 1010,0 hPa 0,0 l/m 5,4 km/h SW 217 0 min 0,000 mm 0,0 UV-I 33 W/m 13,8 C 14,6 C 7,7 km/h 100,00 %
17.10.2019 10:29 14,7 C 95 % 1009,9 hPa 0,0 l/m 7,9 km/h SW 217 0 min 0,000 mm 0,0 UV-I 35 W/m 13,9 C 13,8 C 9,6 km/h 96,55 %
17.10.2019 10:28 14,6 C 95 % 1009,9 hPa 0,0 l/m 7,1 km/h SW 215 0 min 0,000 mm 0,0 UV-I 34 W/m 13,8 C 14,2 C 11,5 km/h 100,00 %
17.10.2019 10:27 14,6 C 96 % 1009,9 hPa 0,2 l/m 2,4 km/h S-SO 168 0 min 0,000 mm 0,0 UV-I 35 W/m 14,0 C 14,6 C 7,7 km/h 100,00 %
17.10.2019 10:26 14,6 C 95 % 1009,9 hPa 0,0 l/m 3,5 km/h S 180 0 min 0,000 mm 0,0 UV-I 34 W/m 13,8 C 14,6 C 5,7 km/h 100,00 %
17.10.2019 10:25 14,6 C 95 % 1009,9 hPa 0,0 l/m 2,4 km/h S-SW 196 0 min 0,000 mm 0,0 UV-I 37 W/m 13,8 C 14,6 C 5,7 km/h 100,00 %
17.10.2019 10:24 14,7 C 95 % 1009,9 hPa 0,0 l/m 4,3 km/h S-SW 206 0 min 0,000 mm 0,0 UV-I 36 W/m 13,9 C 14,7 C 5,7 km/h 100,00 %
17.10.2019 10:23 14,7 C 95 % 1009,9 hPa 0,0 l/m 6,8 km/h S 175 0 min 0,000 mm 0,0 UV-I 33 W/m 13,9 C 14,5 C 15,3 km/h 100,00 %
17.10.2019 10:22 14,7 C 95 % 1009,9 hPa 0,0 l/m 6,5 km/h S-SO 165 0 min 0,000 mm 0,0 UV-I 31 W/m 13,9 C 14,7 C 9,6 km/h 100,00 %
17.10.2019 10:21 14,7 C 95 % 1009,8 hPa 0,0 l/m 6,7 km/h S 171 0 min 0,000 mm 0,0 UV-I 31 W/m 13,9 C 14,5 C 9,6 km/h 100,00 %
17.10.2019 10:20 14,7 C 95 % 1009,9 hPa 0,0 l/m 4,9 km/h S-SO 166 0 min 0,000 mm 0,0 UV-I 34 W/m 13,9 C 14,7 C 7,7 km/h 100,00 %
17.10.2019 10:19 14,7 C 95 % 1009,8 hPa 0,0 l/m 3,6 km/h S 176 0 min 0,000 mm 0,0 UV-I 46 W/m 13,9 C 14,7 C 7,7 km/h 100,00 %
17.10.2019 10:18 14,7 C 95 % 1009,8 hPa 0,0 l/m 7,1 km/h S-SO 157 0 min 0,000 mm 0,0 UV-I 55 W/m 13,9 C 14,3 C 11,5 km/h 100,00 %
17.10.2019 10:17 14,7 C 95 % 1009,8 hPa 0,0 l/m 5,5 km/h S-SO 153 0 min 0,000 mm 0,0 UV-I 58 W/m 13,9 C 14,7 C 9,6 km/h 100,00 %
17.10.2019 10:16 14,7 C 95 % 1009,8 hPa 0,0 l/m 6,1 km/h S-SO 148 0 min 0,000 mm 0,0 UV-I 52 W/m 13,9 C 14,7 C 9,6 km/h 100,00 %
17.10.2019 10:15 14,7 C 95 % 1009,8 hPa 0,0 l/m 6,9 km/h SW 215 0 min 0,000 mm 0,0 UV-I 44 W/m 13,9 C 14,4 C 11,5 km/h 100,00 %
17.10.2019 10:14 14,7 C 95 % 1009,8 hPa 0,0 l/m 6,6 km/h S 169 0 min 0,000 mm 0,0 UV-I 38 W/m 13,9 C 14,6 C 9,6 km/h 100,00 %
17.10.2019 10:13 14,7 C 95 % 1009,8 hPa 0,0 l/m 7,7 km/h S 173 0 min 0,000 mm 0,0 UV-I 35 W/m 13,9 C 14,0 C 11,5 km/h 100,00 %
17.10.2019 10:12 14,8 C 95 % 1009,8 hPa 0,0 l/m 8,7 km/h S-SW 196 0 min 0,000 mm 0,0 UV-I 36 W/m 14,0 C 13,5 C 13,4 km/h 100,00 %
17.10.2019 10:11 14,8 C 95 % 1009,7 hPa 0,0 l/m 8,1 km/h S 174 0 min 0,000 mm 0,0 UV-I 40 W/m 14,0 C 13,8 C 13,4 km/h 95,83 %
17.10.2019 10:10 14,8 C 95 % 1009,7 hPa 0,0 l/m 6,5 km/h S-SO 167 0 min 0,000 mm 0,0 UV-I 42 W/m 14,0 C 14,8 C 11,5 km/h 100,00 %
17.10.2019 10:09 14,8 C 95 % 1009,7 hPa 0,0 l/m 5,6 km/h S 171 0 min 0,000 mm 0,0 UV-I 41 W/m 14,0 C 14,8 C 9,6 km/h 100,00 %
17.10.2019 10:08 14,8 C 95 % 1009,7 hPa 0,0 l/m 4,4 km/h S-SW 194 0 min 0,000 mm 0,0 UV-I 45 W/m 14,0 C 14,8 C 5,7 km/h 100,00 %
17.10.2019 10:07 14,8 C 95 % 1009,7 hPa 0,0 l/m 5,6 km/h S-SO 166 0 min 0,000 mm 0,0 UV-I 54 W/m 14,0 C 14,8 C 7,7 km/h 100,00 %
17.10.2019 10:06 14,8 C 95 % 1009,7 hPa 0,0 l/m 4,5 km/h S-SO 163 0 min 0,000 mm 0,0 UV-I 63 W/m 14,0 C 14,8 C 7,7 km/h 100,00 %
17.10.2019 10:05 14,8 C 95 % 1009,6 hPa 0,0 l/m 4,0 km/h S 172 0 min 0,000 mm 0,0 UV-I 74 W/m 14,0 C 14,8 C 5,7 km/h 100,00 %
17.10.2019 10:04 14,7 C 95 % 1009,6 hPa 0,0 l/m 4,0 km/h S 170 0 min 0,000 mm 0,0 UV-I 88 W/m 13,9 C 14,7 C 7,7 km/h 100,00 %
17.10.2019 10:03 14,7 C 95 % 1009,7 hPa 0,0 l/m 5,7 km/h S-SO 165 0 min 0,000 mm 0,0 UV-I 110 W/m 13,9 C 14,7 C 9,6 km/h 100,00 %
17.10.2019 10:02 14,7 C 95 % 1009,6 hPa 0,0 l/m 4,3 km/h S 180 0 min 0,000 mm 0,0 UV-I 126 W/m 13,9 C 14,7 C 7,7 km/h 100,00 %
17.10.2019 10:01 14,7 C 95 % 1009,6 hPa 0,0 l/m 4,7 km/h S 171 0 min 0,000 mm 0,0 UV-I 121 W/m 13,9 C 14,7 C 7,7 km/h 100,00 %
17.10.2019 10:00 14,7 C 95 % 1009,5 hPa 0,0 l/m 8,9 km/h S-SO 159 0 min 0,025 mm 0,0 UV-I 118 W/m 13,9 C 13,3 C 13,4 km/h 100,00 %
17.10.2019 09:59 14,7 C 95 % 1009,5 hPa 0,0 l/m 7,3 km/h S 169 0 min 0,000 mm 0,0 UV-I 106 W/m 13,9 C 14,2 C 13,4 km/h 100,00 %
17.10.2019 09:58 14,7 C 95 % 1009,5 hPa 0,0 l/m 4,8 km/h S-SW 208 0 min 0,000 mm 0,0 UV-I 98 W/m 13,9 C 14,7 C 13,4 km/h 100,00 %
17.10.2019 09:57 14,7 C 95 % 1009,5 hPa 0,0 l/m 3,4 km/h S 181 0 min 0,000 mm 0,0 UV-I 92 W/m 13,9 C 14,7 C 7,7 km/h 95,83 %
17.10.2019 09:56 14,7 C 95 % 1009,5 hPa 0,0 l/m 5,0 km/h S 184 0 min 0,000 mm 0,0 UV-I 81 W/m 13,9 C 14,7 C 9,6 km/h 100,00 %
17.10.2019 09:55 14,7 C 95 % 1009,5 hPa 0,0 l/m 5,0 km/h S-SO 163 0 min 0,000 mm 0,0 UV-I 76 W/m 13,9 C 14,7 C 7,7 km/h 100,00 %
17.10.2019 09:54 14,7 C 95 % 1009,5 hPa 0,0 l/m 4,4 km/h S-SW 202 0 min 0,000 mm 0,0 UV-I 78 W/m 13,9 C 14,7 C 7,7 km/h 100,00 %
17.10.2019 09:53 14,6 C 95 % 1009,5 hPa 0,0 l/m 4,6 km/h S-SW 197 0 min 0,000 mm 0,0 UV-I 76 W/m 13,8 C 14,6 C 7,7 km/h 100,00 %
17.10.2019 09:52 14,6 C 95 % 1009,5 hPa 0,0 l/m 3,3 km/h S-SW 198 0 min 0,000 mm 0,0 UV-I 60 W/m 13,8 C 14,6 C 7,7 km/h 100,00 %
17.10.2019 09:51 14,6 C 95 % 1009,5 hPa 0,0 l/m 5,5 km/h S 173 0 min 0,000 mm 0,0 UV-I 46 W/m 13,8 C 14,6 C 9,6 km/h 100,00 %
17.10.2019 09:50 14,6 C 95 % 1009,5 hPa 0,0 l/m 5,3 km/h S-SO 166 0 min 0,000 mm 0,0 UV-I 42 W/m 13,8 C 14,6 C 11,5 km/h 100,00 %
17.10.2019 09:49 14,6 C 95 % 1009,5 hPa 0,0 l/m 7,4 km/h S 177 0 min 0,000 mm 0,0 UV-I 42 W/m 13,8 C 14,0 C 11,5 km/h 100,00 %
17.10.2019 09:48 14,6 C 95 % 1009,5 hPa 0,0 l/m 6,7 km/h S 182 0 min 0,000 mm 0,0 UV-I 39 W/m 13,8 C 14,4 C 9,6 km/h 100,00 %
17.10.2019 09:47 14,6 C 94 % 1009,5 hPa 0,0 l/m 8,3 km/h S 170 0 min 0,000 mm 0,0 UV-I 34 W/m 13,6 C 13,5 C 11,5 km/h 100,00 %
17.10.2019 09:46 14,6 C 94 % 1009,5 hPa 0,0 l/m 3,6 km/h S-SO 168 0 min 0,000 mm 0,0 UV-I 28 W/m 13,6 C 14,6 C 7,7 km/h 100,00 %
17.10.2019 09:45 14,6 C 94 % 1009,5 hPa 0,0 l/m 5,0 km/h S-SW 204 0 min 0,000 mm 0,0 UV-I 24 W/m 13,6 C 14,6 C 7,7 km/h 100,00 %
17.10.2019 09:44 14,6 C 94 % 1009,5 hPa 0,0 l/m 10,1 km/h S 183 0 min 0,000 mm 0,0 UV-I 23 W/m 13,6 C 12,6 C 13,4 km/h 100,00 %
17.10.2019 09:43 14,7 C 94 % 1009,5 hPa 0,0 l/m 7,5 km/h S 171 0 min 0,000 mm 0,0 UV-I 25 W/m 13,7 C 14,1 C 11,5 km/h 100,00 %
17.10.2019 09:42 14,7 C 94 % 1009,5 hPa 0,0 l/m 5,3 km/h S-SO 165 0 min 0,000 mm 0,0 UV-I 26 W/m 13,7 C 14,7 C 9,6 km/h 100,00 %
17.10.2019 09:41 14,7 C 94 % 1009,5 hPa 0,0 l/m 6,3 km/h S-SO 150 0 min 0,000 mm 0,0 UV-I 29 W/m 13,7 C 14,7 C 9,6 km/h 100,00 %
17.10.2019 09:40 14,7 C 94 % 1009,5 hPa 0,0 l/m 3,5 km/h S-SW 207 0 min 0,000 mm 0,0 UV-I 31 W/m 13,7 C 14,7 C 11,5 km/h 100,00 %
17.10.2019 09:39 14,7 C 94 % 1009,5 hPa 0,0 l/m 6,9 km/h S-SW 205 0 min 0,000 mm 0,0 UV-I 30 W/m 13,7 C 14,4 C 11,5 km/h 100,00 %
17.10.2019 09:38 14,7 C 94 % 1009,5 hPa 0,0 l/m 9,3 km/h S-SW 207 0 min 0,000 mm 0,0 UV-I 30 W/m 13,7 C 13,1 C 19,1 km/h 100,00 %
17.10.2019 09:37 14,7 C 94 % 1009,5 hPa 0,0 l/m 7,2 km/h S-SO 168 0 min 0,000 mm 0,0 UV-I 34 W/m 13,7 C 14,2 C 11,5 km/h 100,00 %
17.10.2019 09:36 14,7 C 94 % 1009,5 hPa 0,0 l/m 7,8 km/h SW 236 0 min 0,000 mm 0,0 UV-I 39 W/m 13,7 C 13,9 C 11,5 km/h 100,00 %
17.10.2019 09:35 14,7 C 94 % 1009,5 hPa 0,0 l/m 5,8 km/h S-SO 150 0 min 0,000 mm 0,0 UV-I 44 W/m 13,7 C 14,7 C 9,6 km/h 100,00 %
17.10.2019 09:34 14,7 C 94 % 1009,4 hPa 0,0 l/m 4,5 km/h S-SW 200 0 min 0,000 mm 0,0 UV-I 46 W/m 13,7 C 14,7 C 9,6 km/h 100,00 %
17.10.2019 09:33 14,7 C 94 % 1009,4 hPa 0,0 l/m 5,8 km/h S 172 0 min 0,000 mm 0,0 UV-I 43 W/m 13,7 C 14,7 C 9,6 km/h 100,00 %
17.10.2019 09:32 14,7 C 94 % 1009,5 hPa 0,0 l/m 5,9 km/h S 182 0 min 0,000 mm 0,0 UV-I 40 W/m 13,7 C 14,7 C 11,5 km/h 100,00 %
17.10.2019 09:31 14,7 C 94 % 1009,4 hPa 0,0 l/m 5,2 km/h SW 215 0 min 0,000 mm 0,0 UV-I 39 W/m 13,7 C 14,7 C 9,6 km/h 100,00 %
17.10.2019 09:30 14,7 C 94 % 1009,4 hPa 0,0 l/m 2,3 km/h S-SO 153 0 min 0,000 mm 0,0 UV-I 33 W/m 13,7 C 14,7 C 7,7 km/h 100,00 %
17.10.2019 09:29 14,7 C 94 % 1009,4 hPa 0,0 l/m 4,7 km/h S-SW 211 0 min 0,000 mm 0,0 UV-I 32 W/m 13,7 C 14,7 C 9,6 km/h 100,00 %
17.10.2019 09:28 14,7 C 94 % 1009,4 hPa 0,0 l/m 8,7 km/h S 176 0 min 0,000 mm 0,0 UV-I 33 W/m 13,7 C 13,4 C 13,4 km/h 100,00 %
17.10.2019 09:27 14,7 C 94 % 1009,4 hPa 0,0 l/m 6,6 km/h S-SW 192 0 min 0,000 mm 0,0 UV-I 32 W/m 13,7 C 14,6 C 13,4 km/h 100,00 %
17.10.2019 09:26 14,6 C 94 % 1009,4 hPa 0,0 l/m 5,4 km/h S-SO 167 0 min 0,000 mm 0,0 UV-I 28 W/m 13,6 C 14,6 C 9,6 km/h 91,30 %
17.10.2019 09:25 14,7 C 94 % 1009,4 hPa 0,0 l/m 4,9 km/h S-SO 168 0 min 0,000 mm 0,0 UV-I 24 W/m 13,7 C 14,7 C 7,7 km/h 96,67 %
17.10.2019 09:24 14,7 C 94 % 1009,4 hPa 0,0 l/m 3,8 km/h S 188 0 min 0,000 mm 0,0 UV-I 20 W/m 13,7 C 14,7 C 7,7 km/h 100,00 %
17.10.2019 09:23 14,6 C 94 % 1009,3 hPa 0,0 l/m 4,5 km/h S 170 0 min 0,000 mm 0,0 UV-I 18 W/m 13,6 C 14,6 C 9,6 km/h 100,00 %
17.10.2019 09:22 14,6 C 94 % 1009,3 hPa 0,0 l/m 8,7 km/h S 173 0 min 0,000 mm 0,0 UV-I 19 W/m 13,6 C 13,3 C 15,3 km/h 100,00 %
17.10.2019 09:21 14,7 C 94 % 1009,4 hPa 0,0 l/m 5,7 km/h S-SO 165 0 min 0,000 mm 0,0 UV-I 21 W/m 13,7 C 14,7 C 9,6 km/h 100,00 %
17.10.2019 09:20 14,7 C 94 % 1009,4 hPa 0,0 l/m 9,9 km/h SO 141 0 min 0,000 mm 0,0 UV-I 21 W/m 13,7 C 12,8 C 17,2 km/h 100,00 %
17.10.2019 09:19 14,7 C 94 % 1009,4 hPa 0,0 l/m 8,1 km/h S 169 0 min 0,000 mm 0,0 UV-I 18 W/m 13,7 C 13,7 C 13,4 km/h 100,00 %
17.10.2019 09:18 14,7 C 94 % 1009,4 hPa 0,0 l/m 7,1 km/h S 175 0 min 0,000 mm 0,0 UV-I 16 W/m 13,7 C 14,3 C 11,5 km/h 100,00 %
17.10.2019 09:17 14,6 C 94 % 1009,3 hPa 0,0 l/m 8,7 km/h S-SO 168 0 min 0,000 mm 0,0 UV-I 16 W/m 13,6 C 13,3 C 11,5 km/h 97,44 %
17.10.2019 09:16 14,6 C 94 % 1009,3 hPa 0,0 l/m 2,6 km/h S 188 0 min 0,000 mm 0,0 UV-I 17 W/m 13,6 C 14,6 C 7,7 km/h 100,00 %
17.10.2019 09:15 14,6 C 94 % 1009,3 hPa 0,0 l/m 5,9 km/h S-SW 201 0 min 0,000 mm 0,0 UV-I 19 W/m 13,6 C 14,6 C 13,4 km/h 100,00 %
17.10.2019 09:14 14,6 C 94 % 1009,3 hPa 0,0 l/m 6,1 km/h S 178 0 min 0,000 mm 0,0 UV-I 19 W/m 13,6 C 14,6 C 13,4 km/h 100,00 %
17.10.2019 09:13 14,6 C 94 % 1009,3 hPa 0,0 l/m 9,6 km/h S 191 0 min 0,000 mm 0,0 UV-I 18 W/m 13,6 C 12,9 C 17,2 km/h 100,00 %
17.10.2019 09:12 14,6 C 94 % 1009,3 hPa 0,0 l/m 8,7 km/h S 175 0 min 0,000 mm 0,0 UV-I 17 W/m 13,6 C 13,3 C 15,3 km/h 100,00 %
17.10.2019 09:11 14,6 C 94 % 1009,2 hPa 0,0 l/m 6,9 km/h S-SO 150 0 min 0,000 mm 0,0 UV-I 16 W/m 13,6 C 14,3 C 11,5 km/h 100,00 %
17.10.2019 09:10 14,6 C 94 % 1009,2 hPa 0,0 l/m 2,5 km/h S-SW 207 0 min 0,000 mm 0,0 UV-I 15 W/m 13,6 C 14,6 C 7,7 km/h 100,00 %
17.10.2019 09:09 14,6 C 94 % 1009,2 hPa 0,0 l/m 3,3 km/h S-SO 161 0 min 0,000 mm 0,0 UV-I 14 W/m 13,6 C 14,6 C 9,6 km/h 100,00 %
17.10.2019 09:08 14,6 C 94 % 1009,2 hPa 0,0 l/m 6,6 km/h S-SO 161 0 min 0,000 mm 0,0 UV-I 14 W/m 13,6 C 14,5 C 11,5 km/h 100,00 %
17.10.2019 09:07 14,6 C 94 % 1009,2 hPa 0,0 l/m 6,4 km/h S-SO 150 0 min 0,000 mm 0,0 UV-I 14 W/m 13,6 C 14,6 C 11,5 km/h 100,00 %
17.10.2019 09:06 14,6 C 93 % 1009,2 hPa 0,0 l/m 7,2 km/h SO 142 0 min 0,000 mm 0,0 UV-I 14 W/m 13,5 C 14,1 C 9,6 km/h 100,00 %
17.10.2019 09:05 14,7 C 93 % 1009,2 hPa 0,0 l/m 7,8 km/h S 171 0 min 0,000 mm 0,0 UV-I 13 W/m 13,6 C 13,9 C 17,2 km/h 100,00 %
17.10.2019 09:04 14,6 C 93 % 1009,2 hPa 0,0 l/m 10,2 km/h S 181 0 min 0,000 mm 0,0 UV-I 12 W/m 13,5 C 12,6 C 17,2 km/h 100,00 %
17.10.2019 09:03 14,6 C 93 % 1009,2 hPa 0,0 l/m 4,8 km/h S-SO 167 0 min 0,000 mm 0,0 UV-I 12 W/m 13,5 C 14,6 C 7,7 km/h 95,65 %
17.10.2019 09:02 14,6 C 93 % 1009,2 hPa 0,0 l/m 5,7 km/h S 179 0 min 0,000 mm 0,0 UV-I 12 W/m 13,5 C 14,6 C 9,6 km/h 100,00 %
17.10.2019 09:01 14,6 C 93 % 1009,2 hPa 0,0 l/m 4,5 km/h S-SO 167 0 min 0,000 mm 0,0 UV-I 12 W/m 13,5 C 14,6 C 7,7 km/h 100,00 %
17.10.2019 09:00 14,6 C 93 % 1009,2 hPa 0,0 l/m 5,6 km/h S 179 0 min 0,000 mm 0,0 UV-I 12 W/m 13,5 C 14,6 C 9,6 km/h 100,00 %
17.10.2019 08:59 14,6 C 93 % 1009,2 hPa 0,0 l/m 7,6 km/h S 171 0 min 0,000 mm 0,0 UV-I 11 W/m 13,5 C 13,9 C 11,5 km/h 100,00 %
17.10.2019 08:58 14,6 C 93 % 1009,2 hPa 0,0 l/m 5,7 km/h S-SW 198 0 min 0,000 mm 0,0 UV-I 10 W/m 13,5 C 14,6 C 9,6 km/h 100,00 %
17.10.2019 08:57 14,6 C 93 % 1009,2 hPa 0,0 l/m 9,6 km/h S-SW 193 0 min 0,000 mm 0,0 UV-I 9 W/m 13,5 C 12,9 C 17,2 km/h 100,00 %
17.10.2019 08:56 14,6 C 93 % 1009,2 hPa 0,0 l/m 9,6 km/h S-SO 160 0 min 0,000 mm 0,0 UV-I 9 W/m 13,5 C 12,9 C 13,4 km/h 100,00 %
17.10.2019 08:55 14,6 C 93 % 1009,1 hPa 0,0 l/m 5,9 km/h SO 146 0 min 0,000 mm 0,0 UV-I 9 W/m 13,5 C 14,6 C 9,6 km/h 100,00 %
17.10.2019 08:54 14,6 C 93 % 1009,1 hPa 0,0 l/m 4,2 km/h S-SO 148 0 min 0,000 mm 0,0 UV-I 9 W/m 13,5 C 14,6 C 9,6 km/h 100,00 %
17.10.2019 08:53 14,6 C 93 % 1009,1 hPa 0,0 l/m 2,3 km/h S-SO 168 0 min 0,000 mm 0,0 UV-I 10 W/m 13,5 C 14,6 C 3,8 km/h 100,00 %
17.10.2019 08:52 14,6 C 93 % 1009,1 hPa 0,0 l/m 3,6 km/h S 184 0 min 0,000 mm 0,0 UV-I 12 W/m 13,5 C 14,6 C 7,7 km/h 100,00 %
17.10.2019 08:51 14,6 C 93 % 1009,1 hPa 0,0 l/m 7,1 km/h S-SO 164 0 min 0,000 mm 0,0 UV-I 12 W/m 13,5 C 14,2 C 11,5 km/h 100,00 %
17.10.2019 08:50 14,6 C 93 % 1009,1 hPa 0,0 l/m 6,2 km/h S-SO 148 0 min 0,000 mm 0,0 UV-I 14 W/m 13,5 C 14,6 C 9,6 km/h 100,00 %
17.10.2019 08:49 14,6 C 93 % 1009,1 hPa 0,0 l/m 5,3 km/h S 171 0 min 0,000 mm 0,0 UV-I 12 W/m 13,5 C 14,6 C 11,5 km/h 100,00 %
17.10.2019 08:48 14,6 C 93 % 1009,1 hPa 0,0 l/m 5,4 km/h S-SO 163 0 min 0,000 mm 0,0 UV-I 12 W/m 13,5 C 14,6 C 9,6 km/h 100,00 %
17.10.2019 08:47 14,6 C 93 % 1009,0 hPa 0,0 l/m 7,2 km/h S-SO 149 0 min 0,000 mm 0,0 UV-I 11 W/m 13,5 C 14,1 C 11,5 km/h 100,00 %
17.10.2019 08:46 14,6 C 93 % 1009,0 hPa 0,0 l/m 5,9 km/h S-SO 157 0 min 0,000 mm 0,0 UV-I 11 W/m 13,5 C 14,6 C 9,6 km/h 90,91 %
17.10.2019 08:45 14,6 C 93 % 1009,1 hPa 0,0 l/m 6,9 km/h S-SW 200 0 min 0,000 mm 0,0 UV-I 11 W/m 13,5 C 14,3 C 11,5 km/h 100,00 %
17.10.2019 08:44 14,6 C 93 % 1009,1 hPa 0,0 l/m 9,5 km/h S-SW 196 0 min 0,000 mm 0,0 UV-I 9 W/m 13,5 C 12,9 C 17,2 km/h 100,00 %
17.10.2019 08:43 14,6 C 93 % 1009,0 hPa 0,0 l/m 7,0 km/h S 189 0 min 0,000 mm 0,0 UV-I 9 W/m 13,5 C 14,3 C 17,2 km/h 100,00 %
17.10.2019 08:42 14,6 C 93 % 1009,0 hPa 0,0 l/m 5,5 km/h S 182 0 min 0,000 mm 0,0 UV-I 8 W/m 13,5 C 14,6 C 9,6 km/h 100,00 %
17.10.2019 08:41 14,6 C 93 % 1008,9 hPa 0,0 l/m 8,9 km/h S-SO 159 0 min 0,000 mm 0,0 UV-I 7 W/m 13,5 C 13,2 C 11,5 km/h 96,30 %
17.10.2019 08:40 14,6 C 93 % 1008,9 hPa 0,0 l/m 4,0 km/h S 179 0 min 0,000 mm 0,0 UV-I 7 W/m 13,5 C 14,6 C 9,6 km/h 100,00 %
17.10.2019 08:39 14,6 C 93 % 1008,9 hPa 0,0 l/m 5,1 km/h S-SW 196 0 min 0,000 mm 0,0 UV-I 7 W/m 13,5 C 14,6 C 13,4 km/h 100,00 %
17.10.2019 08:38 14,6 C 93 % 1008,9 hPa 0,0 l/m 3,5 km/h S 177 0 min 0,000 mm 0,0 UV-I 9 W/m 13,5 C 14,6 C 5,7 km/h 100,00 %
17.10.2019 08:37 14,6 C 93 % 1008,8 hPa 0,0 l/m 3,4 km/h S 175 0 min 0,000 mm 0,0 UV-I 9 W/m 13,5 C 14,6 C 5,7 km/h 100,00 %
17.10.2019 08:36 14,6 C 93 % 1008,8 hPa 0,0 l/m 4,9 km/h S 171 0 min 0,000 mm 0,0 UV-I 9 W/m 13,5 C 14,6 C 11,5 km/h 100,00 %
17.10.2019 08:35 14,6 C 93 % 1008,8 hPa 0,0 l/m 7,7 km/h S 173 0 min 0,000 mm 0,0 UV-I 7 W/m 13,5 C 13,8 C 11,5 km/h 100,00 %
17.10.2019 08:34 14,6 C 93 % 1008,8 hPa 0,0 l/m 8,0 km/h S 175 0 min 0,000 mm 0,0 UV-I 7 W/m 13,5 C 13,7 C 13,4 km/h 95,83 %
17.10.2019 08:33 14,6 C 93 % 1008,7 hPa 0,0 l/m 6,6 km/h S 181 0 min 0,000 mm 0,0 UV-I 7 W/m 13,5 C 14,5 C 11,5 km/h 100,00 %
17.10.2019 08:32 14,6 C 93 % 1008,8 hPa 0,0 l/m 5,9 km/h S-SO 164 0 min 0,000 mm 0,0 UV-I 7 W/m 13,5 C 14,6 C 7,7 km/h 100,00 %
17.10.2019 08:31 14,6 C 93 % 1008,7 hPa 0,0 l/m 11,0 km/h S-SO 155 0 min 0,000 mm 0,0 UV-I 7 W/m 13,5 C 12,2 C 17,2 km/h 100,00 %
17.10.2019 08:30 14,6 C 93 % 1008,7 hPa 0,0 l/m 6,5 km/h S-SW 209 0 min 0,000 mm 0,0 UV-I 7 W/m 13,5 C 14,6 C 7,7 km/h 100,00 %
17.10.2019 08:29 14,6 C 93 % 1008,7 hPa 0,0 l/m 6,0 km/h S 191 0 min 0,000 mm 0,0 UV-I 7 W/m 13,5 C 14,6 C 9,6 km/h 100,00 %
17.10.2019 08:28 14,6 C 93 % 1008,7 hPa 0,0 l/m 6,6 km/h S-SW 203 0 min 0,000 mm 0,0 UV-I 7 W/m 13,5 C 14,5 C 11,5 km/h 100,00 %
17.10.2019 08:27 14,6 C 93 % 1008,7 hPa 0,0 l/m 8,1 km/h S-SO 158 0 min 0,000 mm 0,0 UV-I 5 W/m 13,5 C 13,6 C 11,5 km/h 100,00 %
17.10.2019 08:26 14,6 C 93 % 1008,7 hPa 0,0 l/m 8,2 km/h S 176 0 min 0,000 mm 0,0 UV-I 5 W/m 13,5 C 13,6 C 13,4 km/h 100,00 %
17.10.2019 08:25 14,6 C 93 % 1008,6 hPa 0,0 l/m 12,5 km/h S-SW 202 0 min 0,000 mm 0,0 UV-I 5 W/m 13,5 C 11,6 C 21,0 km/h 100,00 %
17.10.2019 08:24 14,6 C 93 % 1008,6 hPa 0,0 l/m 7,9 km/h S 175 0 min 0,000 mm 0,0 UV-I 5 W/m 13,5 C 13,7 C 11,5 km/h 100,00 %
17.10.2019 08:23 14,6 C 93 % 1008,6 hPa 0,0 l/m 12,0 km/h S 175 0 min 0,000 mm 0,0 UV-I 5 W/m 13,5 C 11,8 C 17,2 km/h 100,00 %
17.10.2019 08:22 14,6 C 93 % 1008,6 hPa 0,0 l/m 8,3 km/h S 169 0 min 0,000 mm 0,0 UV-I 5 W/m 13,5 C 13,5 C 17,2 km/h 100,00 %
17.10.2019 08:21 14,6 C 93 % 1008,6 hPa 0,0 l/m 8,7 km/h S-SW 192 0 min 0,000 mm 0,0 UV-I 5 W/m 13,5 C 13,3 C 15,3 km/h 100,00 %
17.10.2019 08:20 14,6 C 93 % 1008,5 hPa 0,0 l/m 6,9 km/h S 187 0 min 0,000 mm 0,0 UV-I 5 W/m 13,5 C 14,3 C 9,6 km/h 95,83 %
17.10.2019 08:19 14,6 C 93 % 1008,5 hPa 0,0 l/m 6,9 km/h S-SO 160 0 min 0,000 mm 0,0 UV-I 5 W/m 13,5 C 14,3 C 11,5 km/h 100,00 %
17.10.2019 08:18 14,6 C 93 % 1008,5 hPa 0,0 l/m 7,7 km/h S 182 0 min 0,000 mm 0,0 UV-I 5 W/m 13,5 C 13,8 C 11,5 km/h 95,83 %
17.10.2019 08:17 14,6 C 93 % 1008,5 hPa 0,0 l/m 7,3 km/h S-SW 210 0 min 0,000 mm 0,0 UV-I 1 W/m 13,5 C 14,1 C 13,4 km/h 100,00 %
17.10.2019 08:16 14,6 C 93 % 1008,4 hPa 0,0 l/m 8,7 km/h S-SO 157 0 min 0,000 mm 0,0 UV-I 0 W/m 13,5 C 13,3 C 13,4 km/h 100,00 %
17.10.2019 08:15 14,6 C 93 % 1008,5 hPa 0,0 l/m 3,0 km/h S 185 0 min 0,000 mm 0,0 UV-I 5 W/m 13,5 C 14,6 C 11,5 km/h 100,00 %
17.10.2019 08:14 14,6 C 93 % 1008,4 hPa 0,0 l/m 4,6 km/h S 173 0 min 0,000 mm 0,0 UV-I 5 W/m 13,5 C 14,6 C 9,6 km/h 96,15 %
17.10.2019 08:13 14,6 C 93 % 1008,4 hPa 0,0 l/m 8,6 km/h S-SW 199 0 min 0,000 mm 0,0 UV-I 2 W/m 13,5 C 13,4 C 19,1 km/h 100,00 %
17.10.2019 08:12 14,6 C 93 % 1008,4 hPa 0,0 l/m 10,3 km/h S 171 0 min 0,000 mm 0,0 UV-I 0 W/m 13,5 C 12,5 C 15,3 km/h 96,15 %
17.10.2019 08:11 14,6 C 93 % 1008,4 hPa 0,0 l/m 6,6 km/h S-SO 147 0 min 0,000 mm 0,0 UV-I 0 W/m 13,5 C 14,5 C 17,2 km/h 100,00 %
17.10.2019 08:10 14,6 C 93 % 1008,4 hPa 0,0 l/m 11,5 km/h S 186 0 min 0,000 mm 0,0 UV-I 0 W/m 13,5 C 12,0 C 17,2 km/h 100,00 %
17.10.2019 08:09 14,6 C 93 % 1008,4 hPa 0,0 l/m 6,8 km/h S 170 0 min 0,000 mm 0,0 UV-I 0 W/m 13,5 C 14,4 C 15,3 km/h 100,00 %
17.10.2019 08:08 14,6 C 93 % 1008,4 hPa 0,0 l/m 7,7 km/h S 175 0 min 0,000 mm 0,0 UV-I 0 W/m 13,5 C 13,8 C 11,5 km/h 100,00 %
17.10.2019 08:07 14,6 C 93 % 1008,4 hPa 0,0 l/m 7,8 km/h S 184 0 min 0,000 mm 0,0 UV-I 0 W/m 13,5 C 13,8 C 11,5 km/h 100,00 %
17.10.2019 08:06 14,6 C 93 % 1008,3 hPa 0,0 l/m 4,8 km/h S 188 0 min 0,000 mm 0,0 UV-I 0 W/m 13,5 C 14,6 C 7,7 km/h 100,00 %
17.10.2019 08:05 14,6 C 93 % 1008,3 hPa 0,0 l/m 11,3 km/h S 176 0 min 0,000 mm 0,0 UV-I 0 W/m 13,5 C 12,1 C 21,0 km/h 100,00 %
17.10.2019 08:04 14,6 C 93 % 1008,4 hPa 0,0 l/m 10,1 km/h S 180 0 min 0,000 mm 0,0 UV-I 0 W/m 13,5 C 12,6 C 19,1 km/h 100,00 %
17.10.2019 08:03 14,6 C 93 % 1008,4 hPa 0,0 l/m 10,7 km/h S-SO 158 0 min 0,000 mm 0,0 UV-I 0 W/m 13,5 C 12,4 C 15,3 km/h 100,00 %
17.10.2019 08:02 14,6 C 93 % 1008,4 hPa 0,0 l/m 10,0 km/h S-SO 168 0 min 0,000 mm 0,0 UV-I 0 W/m 13,5 C 12,7 C 17,2 km/h 100,00 %
17.10.2019 08:01 14,6 C 93 % 1008,3 hPa 0,0 l/m 8,9 km/h S-SO 157 0 min 0,000 mm 0,0 UV-I 0 W/m 13,5 C 13,2 C 13,4 km/h 100,00 %
17.10.2019 08:00 14,6 C 93 % 1008,4 hPa 0,0 l/m 6,1 km/h S 169 0 min 0,000 mm 0,0 UV-I 0 W/m 13,5 C 14,6 C 9,6 km/h 100,00 %
17.10.2019 07:59 14,6 C 93 % 1008,3 hPa 0,0 l/m 7,1 km/h S-SW 213 0 min 0,000 mm 0,0 UV-I 0 W/m 13,5 C 14,2 C 13,4 km/h 100,00 %
17.10.2019 07:58 14,6 C 93 % 1008,3 hPa 0,0 l/m 6,9 km/h S 188 0 min 0,000 mm 0,0 UV-I 0 W/m 13,5 C 14,3 C 19,1 km/h 100,00 %
17.10.2019 07:57 14,6 C 93 % 1008,3 hPa 0,0 l/m 5,1 km/h S-SO 163 0 min 0,000 mm 0,0 UV-I 0 W/m 13,5 C 14,6 C 13,4 km/h 100,00 %
17.10.2019 07:56 14,6 C 93 % 1008,3 hPa 0,0 l/m 10,0 km/h S 190 0 min 0,000 mm 0,0 UV-I 0 W/m 13,5 C 12,7 C 13,4 km/h 100,00 %
17.10.2019 07:55 14,6 C 93 % 1008,3 hPa 0,0 l/m 11,2 km/h S-SO 159 0 min 0,000 mm 0,0 UV-I 0 W/m 13,5 C 12,1 C 21,0 km/h 100,00 %
17.10.2019 07:54 14,6 C 93 % 1008,3 hPa 0,0 l/m 7,2 km/h S 176 0 min 0,000 mm 0,0 UV-I 0 W/m 13,5 C 14,1 C 11,5 km/h 100,00 %
17.10.2019 07:53 14,6 C 93 % 1008,3 hPa 0,0 l/m 10,4 km/h S-SW 194 0 min 0,000 mm 0,0 UV-I 0 W/m 13,5 C 12,5 C 13,4 km/h 100,00 %
17.10.2019 07:52 14,6 C 93 % 1008,3 hPa 0,0 l/m 11,3 km/h S-SO 163 0 min 0,000 mm 0,0 UV-I 0 W/m 13,5 C 12,1 C 17,2 km/h 100,00 %
17.10.2019 07:51 14,6 C 93 % 1008,2 hPa 0,0 l/m 7,8 km/h S-SO 165 0 min 0,000 mm 0,0 UV-I 0 W/m 13,5 C 13,8 C 15,3 km/h 100,00 %
17.10.2019 07:50 14,6 C 93 % 1008,3 hPa 0,0 l/m 6,7 km/h S-SW 211 0 min 0,000 mm 0,0 UV-I 0 W/m 13,5 C 14,4 C 9,6 km/h 100,00 %
17.10.2019 07:49 14,6 C 93 % 1008,3 hPa 0,0 l/m 4,4 km/h S-SO 160 0 min 0,000 mm 0,0 UV-I 0 W/m 13,5 C 14,6 C 9,6 km/h 100,00 %
17.10.2019 07:48 14,6 C 93 % 1008,3 hPa 0,0 l/m 10,0 km/h S 177 0 min 0,000 mm 0,0 UV-I 0 W/m 13,5 C 12,7 C 19,1 km/h 100,00 %
17.10.2019 07:47 14,6 C 93 % 1008,2 hPa 0,0 l/m 10,8 km/h S 170 0 min 0,000 mm 0,0 UV-I 0 W/m 13,5 C 12,3 C 15,3 km/h 100,00 %
17.10.2019 07:46 14,6 C 93 % 1008,2 hPa 0,0 l/m 9,8 km/h S-SW 195 0 min 0,000 mm 0,0 UV-I 0 W/m 13,5 C 12,8 C 21,0 km/h 100,00 %
17.10.2019 07:45 14,6 C 93 % 1008,2 hPa 0,0 l/m 7,4 km/h S-SW 192 0 min 0,000 mm 0,0 UV-I 0 W/m 13,5 C 14,0 C 19,1 km/h 100,00 %
17.10.2019 07:44 14,6 C 93 % 1008,2 hPa 0,0 l/m 10,0 km/h S-SO 161 0 min 0,000 mm 0,0 UV-I 0 W/m 13,5 C 12,7 C 21,0 km/h 100,00 %
17.10.2019 07:43 14,6 C 93 % 1008,1 hPa 0,0 l/m 12,3 km/h S-SO 166 0 min 0,000 mm 0,0 UV-I 0 W/m 13,5 C 11,7 C 19,1 km/h 100,00 %
17.10.2019 07:42 14,6 C 93 % 1008,2 hPa 0,0 l/m 15,2 km/h S 184 0 min 0,000 mm 0,0 UV-I 0 W/m 13,5 C 10,6 C 24,9 km/h 100,00 %
17.10.2019 07:41 14,6 C 93 % 1008,1 hPa 0,0 l/m 12,3 km/h S 180 0 min 0,000 mm 0,0 UV-I 0 W/m 13,5 C 11,7 C 23,0 km/h 96,30 %
17.10.2019 07:40 14,6 C 93 % 1008,1 hPa 0,0 l/m 8,1 km/h S-SW 194 0 min 0,000 mm 0,0 UV-I 0 W/m 13,5 C 13,6 C 17,2 km/h 100,00 %
17.10.2019 07:39 14,6 C 93 % 1008,1 hPa 0,0 l/m 10,5 km/h S-SW 204 0 min 0,000 mm 0,0 UV-I 0 W/m 13,5 C 12,4 C 17,2 km/h 100,00 %
17.10.2019 07:38 14,6 C 93 % 1008,1 hPa 0,0 l/m 10,9 km/h S-SW 192 0 min 0,000 mm 0,0 UV-I 0 W/m 13,5 C 12,3 C 21,0 km/h 100,00 %
17.10.2019 07:37 14,6 C 93 % 1008,1 hPa 0,0 l/m 10,4 km/h S 173 0 min 0,000 mm 0,0 UV-I 0 W/m 13,5 C 12,5 C 19,1 km/h 100,00 %
17.10.2019 07:36 14,6 C 93 % 1008,1 hPa 0,0 l/m 10,5 km/h S-SO 163 0 min 0,000 mm 0,0 UV-I 0 W/m 13,5 C 12,4 C 23,0 km/h 100,00 %
17.10.2019 07:35 14,6 C 93 % 1008,0 hPa 0,0 l/m 8,5 km/h S-SO 164 0 min 0,000 mm 0,0 UV-I 0 W/m 13,5 C 13,4 C 13,4 km/h 100,00 %
17.10.2019 07:34 14,6 C 93 % 1008,0 hPa 0,0 l/m 5,3 km/h S 175 0 min 0,000 mm 0,0 UV-I 0 W/m 13,5 C 14,6 C 9,6 km/h 100,00 %
17.10.2019 07:33 14,6 C 93 % 1008,0 hPa 0,0 l/m 10,0 km/h SW 231 0 min 0,000 mm 0,0 UV-I 0 W/m 13,5 C 12,7 C 19,1 km/h 100,00 %
17.10.2019 07:32 14,6 C 93 % 1008,0 hPa 0,0 l/m 11,8 km/h S-SO 167 0 min 0,000 mm 0,0 UV-I 0 W/m 13,5 C 11,9 C 19,1 km/h 100,00 %
17.10.2019 07:31 14,6 C 93 % 1008,0 hPa 0,0 l/m 13,9 km/h S-SO 165 0 min 0,000 mm 0,0 UV-I 0 W/m 13,5 C 11,1 C 19,1 km/h 100,00 %
17.10.2019 07:30 14,6 C 93 % 1008,0 hPa 0,0 l/m 7,4 km/h S 173 0 min 0,000 mm 0,0 UV-I 0 W/m 13,5 C 14,0 C 17,2 km/h 100,00 %
17.10.2019 07:29 14,6 C 93 % 1008,0 hPa 0,0 l/m 4,1 km/h SO 143 0 min 0,000 mm 0,0 UV-I 0 W/m 13,5 C 14,6 C 7,7 km/h 100,00 %
17.10.2019 07:28 14,6 C 93 % 1008,0 hPa 0,0 l/m 6,3 km/h S-SW 199 0 min 0,000 mm 0,0 UV-I 0 W/m 13,5 C 14,6 C 13,4 km/h 100,00 %
17.10.2019 07:27 14,6 C 93 % 1008,0 hPa 0,0 l/m 10,4 km/h S-SO 167 0 min 0,000 mm 0,0 UV-I 0 W/m 13,5 C 12,5 C 13,4 km/h 100,00 %
17.10.2019 07:26 14,6 C 93 % 1008,0 hPa 0,0 l/m 10,7 km/h S-SW 209 0 min 0,000 mm 0,0 UV-I 0 W/m 13,5 C 12,4 C 24,9 km/h 100,00 %
17.10.2019 07:25 14,6 C 93 % 1008,0 hPa 0,0 l/m 7,8 km/h S 175 0 min 0,000 mm 0,0 UV-I 0 W/m 13,5 C 13,8 C 11,5 km/h 100,00 %
17.10.2019 07:24 14,6 C 93 % 1007,9 hPa 0,0 l/m 7,5 km/h S-SW 205 0 min 0,000 mm 0,0 UV-I 0 W/m 13,5 C 14,0 C 13,4 km/h 100,00 %
17.10.2019 07:23 14,6 C 93 % 1008,0 hPa 0,0 l/m 10,2 km/h S-SW 200 0 min 0,000 mm 0,0 UV-I 0 W/m 13,5 C 12,6 C 19,1 km/h 100,00 %
17.10.2019 07:22 14,6 C 93 % 1008,0 hPa 0,0 l/m 8,3 km/h S-SW 192 0 min 0,000 mm 0,0 UV-I 0 W/m 13,5 C 13,5 C 15,3 km/h 100,00 %
17.10.2019 07:21 14,6 C 93 % 1007,9 hPa 0,0 l/m 3,0 km/h S-SW 200 0 min 0,000 mm 0,0 UV-I 0 W/m 13,5 C 14,6 C 5,7 km/h 100,00 %
17.10.2019 07:20 14,6 C 93 % 1007,9 hPa 0,0 l/m 5,1 km/h S-SW 207 0 min 0,000 mm 0,0 UV-I 0 W/m 13,5 C 14,6 C 9,6 km/h 100,00 %
17.10.2019 07:19 14,6 C 93 % 1007,9 hPa 0,0 l/m 7,5 km/h S-SW 207 0 min 0,000 mm 0,0 UV-I 0 W/m 13,5 C 14,0 C 11,5 km/h 100,00 %
17.10.2019 07:18 14,6 C 93 % 1007,9 hPa 0,0 l/m 10,4 km/h SW 219 0 min 0,000 mm 0,0 UV-I 0 W/m 13,5 C 12,5 C 17,2 km/h 100,00 %
17.10.2019 07:17 14,6 C 93 % 1007,9 hPa 0,0 l/m 13,8 km/h S-SW 197 0 min 0,000 mm 0,0 UV-I 0 W/m 13,5 C 11,1 C 23,0 km/h 100,00 %
17.10.2019 07:16 14,6 C 93 % 1007,9 hPa 0,0 l/m 9,0 km/h S-SO 167 0 min 0,000 mm 0,0 UV-I 0 W/m 13,5 C 13,2 C 15,3 km/h 100,00 %
17.10.2019 07:15 14,6 C 93 % 1007,8 hPa 0,0 l/m 14,0 km/h S 185 0 min 0,000 mm 0,0 UV-I 0 W/m 13,5 C 11,1 C 23,0 km/h 100,00 %
17.10.2019 07:14 14,6 C 93 % 1007,8 hPa 0,0 l/m 13,2 km/h SO 134 0 min 0,000 mm 0,0 UV-I 0 W/m 13,5 C 11,3 C 23,0 km/h 100,00 %
17.10.2019 07:13 14,6 C 93 % 1007,8 hPa 0,0 l/m 7,6 km/h S-SO 159 0 min 0,000 mm 0,0 UV-I 0 W/m 13,5 C 13,9 C 11,5 km/h 100,00 %
17.10.2019 07:12 14,6 C 93 % 1007,8 hPa 0,0 l/m 6,0 km/h SW 214 0 min 0,000 mm 0,0 UV-I 0 W/m 13,5 C 14,6 C 9,6 km/h 96,30 %
17.10.2019 07:11 14,6 C 93 % 1007,8 hPa 0,0 l/m 6,9 km/h S 180 0 min 0,000 mm 0,0 UV-I 0 W/m 13,5 C 14,3 C 15,3 km/h 100,00 %
17.10.2019 07:10 14,6 C 93 % 1007,8 hPa 0,0 l/m 9,0 km/h SO 141 0 min 0,000 mm 0,0 UV-I 0 W/m 13,5 C 13,2 C 17,2 km/h 100,00 %
17.10.2019 07:09 14,6 C 93 % 1007,8 hPa 0,0 l/m 14,9 km/h S 171 0 min 0,000 mm 0,0 UV-I 0 W/m 13,5 C 10,7 C 28,7 km/h 100,00 %
17.10.2019 07:08 14,6 C 93 % 1007,8 hPa 0,0 l/m 13,0 km/h S 186 0 min 0,000 mm 0,0 UV-I 0 W/m 13,5 C 11,4 C 23,0 km/h 97,73 %
17.10.2019 07:07 14,6 C 93 % 1007,8 hPa 0,0 l/m 6,0 km/h S-SO 166 0 min 0,000 mm 0,0 UV-I 0 W/m 13,5 C 14,6 C 11,5 km/h 100,00 %
17.10.2019 07:06 14,6 C 93 % 1007,8 hPa 0,0 l/m 10,1 km/h S-SW 196 0 min 0,000 mm 0,0 UV-I 0 W/m 13,5 C 12,6 C 13,4 km/h 100,00 %
17.10.2019 07:05 14,6 C 93 % 1007,8 hPa 0,0 l/m 9,9 km/h S 184 0 min 0,000 mm 0,0 UV-I 0 W/m 13,5 C 12,7 C 17,2 km/h 100,00 %
17.10.2019 07:04 14,6 C 93 % 1007,8 hPa 0,0 l/m 8,6 km/h S-SO 163 0 min 0,000 mm 0,0 UV-I 0 W/m 13,5 C 13,4 C 13,4 km/h 100,00 %
17.10.2019 07:03 14,6 C 93 % 1007,8 hPa 0,0 l/m 10,4 km/h S-SO 167 0 min 0,000 mm 0,0 UV-I 0 W/m 13,5 C 12,5 C 21,0 km/h 100,00 %
17.10.2019 07:02 14,6 C 93 % 1007,8 hPa 0,0 l/m 11,5 km/h S-SO 159 0 min 0,000 mm 0,0 UV-I 0 W/m 13,5 C 12,0 C 19,1 km/h 100,00 %
17.10.2019 07:01 14,5 C 93 % 1007,8 hPa 0,0 l/m 10,1 km/h S 189 0 min 0,000 mm 0,0 UV-I 0 W/m 13,4 C 12,5 C 15,3 km/h 95,83 %
17.10.2019 07:00 14,5 C 93 % 1007,8 hPa 0,0 l/m 10,1 km/h S-SW 205 0 min 0,000 mm 0,0 UV-I 0 W/m 13,4 C 12,5 C 15,3 km/h 100,00 %
17.10.2019 06:59 14,5 C 93 % 1007,8 hPa 0,0 l/m 9,4 km/h S 173 0 min 0,000 mm 0,0 UV-I 0 W/m 13,4 C 12,9 C 13,4 km/h 100,00 %
17.10.2019 06:58 14,5 C 93 % 1007,8 hPa 0,0 l/m 8,7 km/h S 182 0 min 0,000 mm 0,0 UV-I 0 W/m 13,4 C 13,2 C 11,5 km/h 100,00 %
17.10.2019 06:57 14,5 C 93 % 1007,8 hPa 0,0 l/m 13,5 km/h S 173 0 min 0,000 mm 0,0 UV-I 0 W/m 13,4 C 11,1 C 21,0 km/h 100,00 %
17.10.2019 06:56 14,5 C 93 % 1007,8 hPa 0,0 l/m 8,7 km/h S-SO 159 0 min 0,000 mm 0,0 UV-I 0 W/m 13,4 C 13,2 C 13,4 km/h 100,00 %
17.10.2019 06:55 14,5 C 94 % 1007,8 hPa 0,0 l/m 7,7 km/h S-SO 167 0 min 0,000 mm 0,0 UV-I 0 W/m 13,5 C 13,7 C 9,6 km/h 100,00 %
17.10.2019 06:54 14,5 C 94 % 1007,8 hPa 0,0 l/m 9,8 km/h S 169 0 min 0,000 mm 0,0 UV-I 0 W/m 13,5 C 12,7 C 13,4 km/h 92,86 %
17.10.2019 06:53 14,5 C 94 % 1007,8 hPa 0,0 l/m 8,2 km/h S 190 0 min 0,000 mm 0,0 UV-I 0 W/m 13,5 C 13,5 C 15,3 km/h 100,00 %
17.10.2019 06:52 14,5 C 94 % 1007,8 hPa 0,0 l/m 5,3 km/h S-SO 167 0 min 0,000 mm 0,0 UV-I 0 W/m 13,5 C 14,5 C 7,7 km/h 100,00 %
17.10.2019 06:51 14,5 C 94 % 1007,8 hPa 0,0 l/m 7,2 km/h S 173 0 min 0,000 mm 0,0 UV-I 0 W/m 13,5 C 14,0 C 17,2 km/h 100,00 %
17.10.2019 06:50 14,5 C 94 % 1007,8 hPa 0,0 l/m 12,2 km/h S-SO 161 0 min 0,000 mm 0,0 UV-I 0 W/m 13,5 C 11,6 C 23,0 km/h 100,00 %
17.10.2019 06:49 14,5 C 94 % 1007,8 hPa 0,0 l/m 5,0 km/h S-SO 153 0 min 0,000 mm 0,0 UV-I 0 W/m 13,5 C 14,5 C 5,7 km/h 100,00 %
17.10.2019 06:48 14,5 C 94 % 1007,8 hPa 0,0 l/m 8,7 km/h S 184 0 min 0,000 mm 0,0 UV-I 0 W/m 13,5 C 13,2 C 13,4 km/h 100,00 %
17.10.2019 06:47 14,5 C 94 % 1007,8 hPa 0,0 l/m 10,8 km/h S-SO 165 0 min 0,000 mm 0,0 UV-I 0 W/m 13,5 C 12,2 C 15,3 km/h 100,00 %
17.10.2019 06:46 14,5 C 94 % 1007,8 hPa 0,0 l/m 10,5 km/h S 171 0 min 0,000 mm 0,0 UV-I 0 W/m 13,5 C 12,3 C 17,2 km/h 100,00 %
17.10.2019 06:45 14,5 C 94 % 1007,8 hPa 0,0 l/m 8,2 km/h S-SW 196 0 min 0,000 mm 0,0 UV-I 0 W/m 13,5 C 13,5 C 13,4 km/h 100,00 %
17.10.2019 06:44 14,5 C 94 % 1007,8 hPa 0,0 l/m 6,6 km/h S 186 0 min 0,000 mm 0,0 UV-I 0 W/m 13,5 C 14,4 C 13,4 km/h 100,00 %
17.10.2019 06:43 14,5 C 94 % 1007,7 hPa 0,0 l/m 10,9 km/h S 178 0 min 0,000 mm 0,0 UV-I 0 W/m 13,5 C 12,2 C 17,2 km/h 100,00 %
17.10.2019 06:42 14,5 C 94 % 1007,8 hPa 0,0 l/m 12,0 km/h S-SO 163 0 min 0,000 mm 0,0 UV-I 0 W/m 13,5 C 11,7 C 21,0 km/h 96,15 %
17.10.2019 06:41 14,5 C 94 % 1007,8 hPa 0,0 l/m 9,7 km/h S 171 0 min 0,000 mm 0,0 UV-I 0 W/m 13,5 C 12,7 C 17,2 km/h 100,00 %
17.10.2019 06:40 14,5 C 94 % 1007,8 hPa 0,0 l/m 8,5 km/h S-SW 198 0 min 0,000 mm 0,0 UV-I 0 W/m 13,5 C 13,3 C 13,4 km/h 100,00 %
17.10.2019 06:39 14,5 C 94 % 1007,8 hPa 0,0 l/m 6,7 km/h S-SO 149 0 min 0,000 mm 0,0 UV-I 0 W/m 13,5 C 14,3 C 13,4 km/h 100,00 %
17.10.2019 06:38 14,5 C 94 % 1007,7 hPa 0,0 l/m 5,4 km/h SO 145 0 min 0,000 mm 0,0 UV-I 0 W/m 13,5 C 14,5 C 7,7 km/h 100,00 %
17.10.2019 06:37 14,5 C 94 % 1007,8 hPa 0,0 l/m 9,4 km/h S-SO 168 0 min 0,000 mm 0,0 UV-I 0 W/m 13,5 C 12,9 C 15,3 km/h 93,10 %
17.10.2019 06:36 14,5 C 94 % 1007,8 hPa 0,0 l/m 9,1 km/h S 169 0 min 0,000 mm 0,0 UV-I 0 W/m 13,5 C 13,0 C 17,2 km/h 100,00 %
17.10.2019 06:35 14,5 C 94 % 1007,7 hPa 0,0 l/m 6,8 km/h S 177 0 min 0,000 mm 0,0 UV-I 0 W/m 13,5 C 14,3 C 15,3 km/h 100,00 %
17.10.2019 06:34 14,5 C 94 % 1007,8 hPa 0,0 l/m 3,2 km/h S 172 0 min 0,000 mm 0,0 UV-I 0 W/m 13,5 C 14,5 C 5,7 km/h 100,00 %
17.10.2019 06:33 14,5 C 94 % 1007,8 hPa 0,0 l/m 7,2 km/h S 170 0 min 0,000 mm 0,0 UV-I 0 W/m 13,5 C 14,0 C 11,5 km/h 95,65 %
17.10.2019 06:32 14,5 C 94 % 1007,8 hPa 0,0 l/m 8,0 km/h S-SO 150 0 min 0,000 mm 0,0 UV-I 0 W/m 13,5 C 13,6 C 11,5 km/h 100,00 %
17.10.2019 06:31 14,5 C 94 % 1007,7 hPa 0,0 l/m 9,6 km/h S-SW 192 0 min 0,000 mm 0,0 UV-I 0 W/m 13,5 C 12,8 C 13,4 km/h 95,65 %
17.10.2019 06:30 14,5 C 94 % 1007,7 hPa 0,0 l/m 12,2 km/h S-SO 165 0 min 0,000 mm 0,0 UV-I 0 W/m 13,5 C 11,6 C 15,3 km/h 100,00 %
17.10.2019 06:29 14,5 C 94 % 1007,7 hPa 0,0 l/m 9,5 km/h SO 145 0 min 0,000 mm 0,0 UV-I 0 W/m 13,5 C 12,8 C 19,1 km/h 100,00 %
17.10.2019 06:28 14,5 C 94 % 1007,7 hPa 0,0 l/m 7,3 km/h S-SW 194 0 min 0,000 mm 0,0 UV-I 0 W/m 13,5 C 14,0 C 11,5 km/h 100,00 %
17.10.2019 06:27 14,4 C 94 % 1007,7 hPa 0,0 l/m 7,3 km/h S 180 0 min 0,000 mm 0,0 UV-I 0 W/m 13,4 C 13,9 C 11,5 km/h 100,00 %
17.10.2019 06:26 14,5 C 94 % 1007,7 hPa 0,0 l/m 7,4 km/h S 184 0 min 0,000 mm 0,0 UV-I 0 W/m 13,5 C 13,9 C 11,5 km/h 100,00 %
17.10.2019 06:25 14,5 C 94 % 1007,7 hPa 0,0 l/m 6,7 km/h S 180 0 min 0,000 mm 0,0 UV-I 0 W/m 13,5 C 14,3 C 11,5 km/h 95,65 %
17.10.2019 06:24 14,4 C 94 % 1007,7 hPa 0,0 l/m 5,8 km/h S 180 0 min 0,000 mm 0,0 UV-I 0 W/m 13,4 C 14,4 C 11,5 km/h 100,00 %
17.10.2019 06:23 14,4 C 94 % 1007,8 hPa 0,0 l/m 8,5 km/h S 169 0 min 0,000 mm 0,0 UV-I 0 W/m 13,4 C 13,2 C 13,4 km/h 100,00 %
17.10.2019 06:22 14,4 C 94 % 1007,7 hPa 0,0 l/m 9,2 km/h S 173 0 min 0,000 mm 0,0 UV-I 0 W/m 13,4 C 12,8 C 17,2 km/h 100,00 %
17.10.2019 06:21 14,4 C 94 % 1007,7 hPa 0,0 l/m 4,6 km/h S-SW 199 0 min 0,000 mm 0,0 UV-I 0 W/m 13,4 C 14,4 C 9,6 km/h 100,00 %
17.10.2019 06:20 14,4 C 94 % 1007,7 hPa 0,0 l/m 8,7 km/h S-SO 149 0 min 0,000 mm 0,0 UV-I 0 W/m 13,4 C 13,1 C 13,4 km/h 95,65 %
17.10.2019 06:19 14,4 C 94 % 1007,8 hPa 0,0 l/m 8,2 km/h S 183 0 min 0,000 mm 0,0 UV-I 0 W/m 13,4 C 13,4 C 11,5 km/h 100,00 %
17.10.2019 06:18 14,4 C 94 % 1007,8 hPa 0,0 l/m 10,8 km/h S 179 0 min 0,000 mm 0,0 UV-I 0 W/m 13,4 C 12,1 C 15,3 km/h 100,00 %
17.10.2019 06:17 14,4 C 94 % 1007,8 hPa 0,0 l/m 9,7 km/h S-SW 197 0 min 0,000 mm 0,0 UV-I 0 W/m 13,4 C 12,6 C 19,1 km/h 100,00 %
17.10.2019 06:16 14,4 C 94 % 1007,8 hPa 0,0 l/m 10,8 km/h S-SW 194 0 min 0,000 mm 0,0 UV-I 0 W/m 13,4 C 12,1 C 17,2 km/h 96,15 %
17.10.2019 06:15 14,4 C 94 % 1007,8 hPa 0,0 l/m 8,7 km/h S 173 0 min 0,000 mm 0,0 UV-I 0 W/m 13,4 C 13,1 C 11,5 km/h 100,00 %
17.10.2019 06:14 14,4 C 94 % 1007,7 hPa 0,0 l/m 11,4 km/h S 182 0 min 0,000 mm 0,0 UV-I 0 W/m 13,4 C 11,8 C 17,2 km/h 95,83 %
17.10.2019 06:13 14,4 C 94 % 1007,8 hPa 0,0 l/m 11,9 km/h SW 232 0 min 0,000 mm 0,0 UV-I 0 W/m 13,4 C 11,6 C 17,2 km/h 100,00 %
17.10.2019 06:12 14,4 C 94 % 1007,7 hPa 0,0 l/m 13,3 km/h S 174 0 min 0,000 mm 0,0 UV-I 0 W/m 13,4 C 11,1 C 23,0 km/h 100,00 %
17.10.2019 06:11 14,4 C 94 % 1007,7 hPa 0,0 l/m 12,6 km/h S 178 0 min 0,000 mm 0,0 UV-I 0 W/m 13,4 C 11,3 C 17,2 km/h 96,30 %
17.10.2019 06:10 14,4 C 94 % 1007,7 hPa 0,0 l/m 10,2 km/h S 180 0 min 0,000 mm 0,0 UV-I 0 W/m 13,4 C 12,4 C 15,3 km/h 100,00 %
17.10.2019 06:09 14,4 C 94 % 1007,8 hPa 0,0 l/m 6,5 km/h S 171 0 min 0,000 mm 0,0 UV-I 0 W/m 13,4 C 14,4 C 13,4 km/h 99,37 %
17.10.2019 06:08 14,4 C 94 % 1007,8 hPa 0,0 l/m 8,1 km/h S-SO 163 0 min 0,000 mm 0,0 UV-I 0 W/m 13,4 C 13,4 C 11,5 km/h 100,00 %
17.10.2019 06:07 14,4 C 94 % 1007,7 hPa 0,0 l/m 8,2 km/h S-SW 193 0 min 0,000 mm 0,0 UV-I 0 W/m 13,4 C 13,4 C 13,4 km/h 100,00 %
17.10.2019 06:06 14,4 C 94 % 1007,7 hPa 0,0 l/m 6,6 km/h S 178 0 min 0,000 mm 0,0 UV-I 0 W/m 13,4 C 14,3 C 17,2 km/h 100,00 %
17.10.2019 06:05 14,4 C 94 % 1007,7 hPa 0,0 l/m 7,7 km/h S-SO 165 0 min 0,000 mm 0,0 UV-I 0 W/m 13,4 C 13,6 C 9,6 km/h 100,00 %
17.10.2019 06:04 14,4 C 95 % 1007,7 hPa 0,0 l/m 8,5 km/h S 178 0 min 0,000 mm 0,0 UV-I 0 W/m 13,6 C 13,2 C 13,4 km/h 100,00 %
17.10.2019 06:03 14,4 C 95 % 1007,7 hPa 0,0 l/m 8,3 km/h S-SW 195 0 min 0,000 mm 0,0 UV-I 0 W/m 13,6 C 13,3 C 11,5 km/h 100,00 %
17.10.2019 06:02 14,4 C 95 % 1007,7 hPa 0,0 l/m 4,4 km/h S 171 0 min 0,000 mm 0,0 UV-I 0 W/m 13,6 C 14,4 C 9,6 km/h 100,00 %
17.10.2019 06:01 14,4 C 95 % 1007,7 hPa 0,0 l/m 6,5 km/h S-SO 160 0 min 0,000 mm 0,0 UV-I 0 W/m 13,6 C 14,4 C 9,6 km/h 100,00 %
17.10.2019 06:00 14,4 C 95 % 1007,7 hPa 0,0 l/m 10,0 km/h S-SO 162 0 min 0,000 mm 0,0 UV-I 0 W/m 13,6 C 12,5 C 15,3 km/h 100,00 %
17.10.2019 05:59 14,4 C 95 % 1007,7 hPa 0,0 l/m 7,1 km/h S 191 0 min 0,000 mm 0,0 UV-I 0 W/m 13,6 C 14,0 C 11,5 km/h 100,00 %
17.10.2019 05:58 14,4 C 95 % 1007,7 hPa 0,0 l/m 8,0 km/h S-SO 157 0 min 0,000 mm 0,0 UV-I 0 W/m 13,6 C 13,5 C 13,4 km/h 100,00 %
17.10.2019 05:57 14,4 C 95 % 1007,7 hPa 0,0 l/m 6,6 km/h S-SO 165 0 min 0,000 mm 0,0 UV-I 0 W/m 13,6 C 14,3 C 11,5 km/h 100,00 %
17.10.2019 05:56 14,3 C 95 % 1007,7 hPa 0,0 l/m 13,4 km/h S-SO 158 0 min 0,000 mm 0,0 UV-I 0 W/m 13,5 C 10,9 C 26,8 km/h 100,00 %
17.10.2019 05:55 14,3 C 95 % 1007,7 hPa 0,0 l/m 7,6 km/h S 170 0 min 0,000 mm 0,0 UV-I 0 W/m 13,5 C 13,6 C 11,5 km/h 100,00 %
17.10.2019 05:54 14,3 C 95 % 1007,6 hPa 0,0 l/m 5,9 km/h S-SO 158 0 min 0,000 mm 0,0 UV-I 0 W/m 13,5 C 14,3 C 11,5 km/h 100,00 %
17.10.2019 05:53 14,3 C 95 % 1007,7 hPa 0,0 l/m 2,4 km/h S-SO 165 0 min 0,000 mm 0,0 UV-I 0 W/m 13,5 C 14,3 C 7,7 km/h 96,15 %
17.10.2019 05:52 14,3 C 95 % 1007,7 hPa 0,0 l/m 7,6 km/h S 174 0 min 0,000 mm 0,0 UV-I 0 W/m 13,5 C 13,6 C 15,3 km/h 100,00 %
17.10.2019 05:51 14,3 C 95 % 1007,7 hPa 0,0 l/m 5,3 km/h S-SO 168 0 min 0,000 mm 0,0 UV-I 0 W/m 13,5 C 14,3 C 9,6 km/h 100,00 %
17.10.2019 05:50 14,3 C 95 % 1007,7 hPa 0,0 l/m 7,1 km/h S-SO 167 0 min 0,000 mm 0,0 UV-I 0 W/m 13,5 C 13,9 C 9,6 km/h 100,00 %
17.10.2019 05:49 14,3 C 95 % 1007,7 hPa 0,0 l/m 5,1 km/h S 184 0 min 0,000 mm 0,0 UV-I 0 W/m 13,5 C 14,3 C 9,6 km/h 100,00 %
17.10.2019 05:48 14,3 C 95 % 1007,7 hPa 0,0 l/m 11,5 km/h S 169 0 min 0,000 mm 0,0 UV-I 0 W/m 13,5 C 11,7 C 19,1 km/h 100,00 %
17.10.2019 05:47 14,3 C 95 % 1007,7 hPa 0,0 l/m 6,7 km/h S-SO 159 0 min 0,000 mm 0,0 UV-I 0 W/m 13,5 C 14,1 C 13,4 km/h 100,00 %
17.10.2019 05:46 14,3 C 95 % 1007,7 hPa 0,0 l/m 5,3 km/h S 171 0 min 0,000 mm 0,0 UV-I 0 W/m 13,5 C 14,3 C 9,6 km/h 100,00 %
17.10.2019 05:45 14,3 C 95 % 1007,7 hPa 0,0 l/m 9,1 km/h S 175 0 min 0,000 mm 0,0 UV-I 0 W/m 13,5 C 12,8 C 17,2 km/h 100,00 %
17.10.2019 05:44 14,3 C 95 % 1007,7 hPa 0,0 l/m 8,0 km/h S-SO 159 0 min 0,000 mm 0,0 UV-I 0 W/m 13,5 C 13,4 C 11,5 km/h 96,15 %
17.10.2019 05:43 14,3 C 95 % 1007,7 hPa 0,0 l/m 5,2 km/h S 173 0 min 0,000 mm 0,0 UV-I 0 W/m 13,5 C 14,3 C 7,7 km/h 100,00 %
17.10.2019 05:42 14,3 C 95 % 1007,7 hPa 0,0 l/m 9,3 km/h S 187 0 min 0,000 mm 0,0 UV-I 0 W/m 13,5 C 12,7 C 15,3 km/h 100,00 %
17.10.2019 05:41 14,3 C 95 % 1007,7 hPa 0,0 l/m 11,6 km/h S 189 0 min 0,000 mm 0,0 UV-I 0 W/m 13,5 C 11,6 C 19,1 km/h 99,27 %
17.10.2019 05:40 14,3 C 95 % 1007,7 hPa 0,0 l/m 8,3 km/h S-SO 157 0 min 0,000 mm 0,0 UV-I 0 W/m 13,5 C 13,2 C 17,2 km/h 100,00 %
17.10.2019 05:39 14,3 C 95 % 1007,7 hPa 0,0 l/m 8,5 km/h S 169 0 min 0,000 mm 0,0 UV-I 0 W/m 13,5 C 13,1 C 13,4 km/h 100,00 %
17.10.2019 05:38 14,3 C 95 % 1007,7 hPa 0,0 l/m 7,2 km/h S 184 0 min 0,000 mm 0,0 UV-I 0 W/m 13,5 C 13,8 C 15,3 km/h 100,00 %
17.10.2019 05:37 14,3 C 95 % 1007,7 hPa 0,0 l/m 6,7 km/h S 179 0 min 0,000 mm 0,0 UV-I 0 W/m 13,5 C 14,1 C 11,5 km/h 100,00 %
17.10.2019 05:36 14,3 C 95 % 1007,7 hPa 0,0 l/m 7,4 km/h S 178 0 min 0,000 mm 0,0 UV-I 0 W/m 13,5 C 13,7 C 9,6 km/h 100,00 %
17.10.2019 05:35 14,3 C 95 % 1007,7 hPa 0,0 l/m 7,9 km/h S-SO 167 0 min 0,000 mm 0,0 UV-I 0 W/m 13,5 C 13,4 C 13,4 km/h 96,67 %
17.10.2019 05:34 14,3 C 95 % 1007,7 hPa 0,0 l/m 7,9 km/h S 171 0 min 0,000 mm 0,0 UV-I 0 W/m 13,5 C 13,4 C 17,2 km/h 100,00 %
17.10.2019 05:33 14,3 C 95 % 1007,7 hPa 0,0 l/m 6,0 km/h S 175 0 min 0,000 mm 0,0 UV-I 0 W/m 13,5 C 14,3 C 9,6 km/h 100,00 %
17.10.2019 05:32 14,3 C 95 % 1007,7 hPa 0,0 l/m 8,8 km/h S-SO 162 0 min 0,000 mm 0,0 UV-I 0 W/m 13,5 C 12,9 C 13,4 km/h 100,00 %
17.10.2019 05:31 14,3 C 95 % 1007,6 hPa 0,0 l/m 9,0 km/h S-SO 155 0 min 0,000 mm 0,0 UV-I 0 W/m 13,5 C 12,8 C 15,3 km/h 100,00 %
17.10.2019 05:30 14,3 C 95 % 1007,6 hPa 0,0 l/m 6,8 km/h S-SO 165 0 min 0,000 mm 0,0 UV-I 0 W/m 13,5 C 14,1 C 13,4 km/h 95,65 %
17.10.2019 05:29 14,3 C 95 % 1007,7 hPa 0,0 l/m 9,2 km/h S 183 0 min 0,000 mm 0,0 UV-I 0 W/m 13,5 C 12,7 C 13,4 km/h 100,00 %
17.10.2019 05:28 14,3 C 95 % 1007,7 hPa 0,0 l/m 10,1 km/h S-SO 150 0 min 0,000 mm 0,0 UV-I 0 W/m 13,5 C 12,3 C 15,3 km/h 100,00 %
17.10.2019 05:27 14,3 C 96 % 1007,6 hPa 0,0 l/m 8,5 km/h S 171 0 min 0,000 mm 0,0 UV-I 0 W/m 13,7 C 13,1 C 17,2 km/h 100,00 %
17.10.2019 05:26 14,2 C 96 % 1007,6 hPa 0,0 l/m 8,6 km/h S-SO 157 0 min 0,000 mm 0,0 UV-I 0 W/m 13,6 C 12,9 C 17,2 km/h 100,00 %
17.10.2019 05:25 14,2 C 96 % 1007,6 hPa 0,0 l/m 12,0 km/h S 169 0 min 0,000 mm 0,0 UV-I 0 W/m 13,6 C 11,4 C 17,2 km/h 100,00 %
17.10.2019 05:24 14,2 C 96 % 1007,6 hPa 0,0 l/m 6,7 km/h S 170 0 min 0,000 mm 0,0 UV-I 0 W/m 13,6 C 14,0 C 17,2 km/h 100,00 %
17.10.2019 05:23 14,2 C 96 % 1007,6 hPa 0,0 l/m 6,8 km/h S 184 0 min 0,000 mm 0,0 UV-I 0 W/m 13,6 C 14,0 C 11,5 km/h 100,00 %
17.10.2019 05:22 14,2 C 96 % 1007,6 hPa 0,0 l/m 8,0 km/h S 175 0 min 0,000 mm 0,0 UV-I 0 W/m 13,6 C 13,3 C 9,6 km/h 100,00 %
17.10.2019 05:21 14,2 C 96 % 1007,6 hPa 0,0 l/m 9,8 km/h S-SO 150 0 min 0,000 mm 0,0 UV-I 0 W/m 13,6 C 12,3 C 15,3 km/h 96,15 %
17.10.2019 05:20 14,2 C 96 % 1007,6 hPa 0,0 l/m 9,4 km/h S-SO 150 0 min 0,000 mm 0,0 UV-I 0 W/m 13,6 C 12,5 C 15,3 km/h 93,33 %
17.10.2019 05:19 14,2 C 96 % 1007,6 hPa 0,0 l/m 9,8 km/h S-SO 164 0 min 0,000 mm 0,0 UV-I 0 W/m 13,6 C 12,3 C 13,4 km/h 96,15 %
17.10.2019 05:18 14,2 C 96 % 1007,6 hPa 0,0 l/m 11,6 km/h S-SO 164 0 min 0,000 mm 0,0 UV-I 0 W/m 13,6 C 11,5 C 17,2 km/h 100,00 %
17.10.2019 05:17 14,2 C 96 % 1007,6 hPa 0,0 l/m 9,2 km/h S-SO 153 0 min 0,000 mm 0,0 UV-I 0 W/m 13,6 C 12,6 C 13,4 km/h 100,00 %
17.10.2019 05:16 14,2 C 96 % 1007,6 hPa 0,0 l/m 12,2 km/h S-SO 167 0 min 0,000 mm 0,0 UV-I 0 W/m 13,6 C 11,3 C 17,2 km/h 100,00 %
17.10.2019 05:15 14,2 C 96 % 1007,6 hPa 0,0 l/m 7,9 km/h S-SO 164 0 min 0,000 mm 0,0 UV-I 0 W/m 13,6 C 13,3 C 15,3 km/h 100,00 %
17.10.2019 05:14 14,2 C 96 % 1007,6 hPa 0,0 l/m 4,6 km/h S 175 0 min 0,000 mm 0,0 UV-I 0 W/m 13,6 C 14,2 C 7,7 km/h 100,00 %
17.10.2019 05:13 14,2 C 96 % 1007,6 hPa 0,0 l/m 7,9 km/h S 180 0 min 0,000 mm 0,0 UV-I 0 W/m 13,6 C 13,3 C 11,5 km/h 100,00 %
17.10.2019 05:12 14,2 C 96 % 1007,7 hPa 0,0 l/m 11,8 km/h SW 217 0 min 0,000 mm 0,0 UV-I 0 W/m 13,6 C 11,4 C 15,3 km/h 100,00 %
17.10.2019 05:11 14,2 C 96 % 1007,7 hPa 0,0 l/m 9,8 km/h SW 223 0 min 0,000 mm 0,0 UV-I 0 W/m 13,6 C 12,3 C 13,4 km/h 96,15 %
17.10.2019 05:10 14,2 C 96 % 1007,7 hPa 0,0 l/m 12,0 km/h S-SO 167 0 min 0,000 mm 0,0 UV-I 0 W/m 13,6 C 11,4 C 21,0 km/h 100,00 %
17.10.2019 05:09 14,2 C 96 % 1007,6 hPa 0,0 l/m 7,9 km/h S 169 0 min 0,000 mm 0,0 UV-I 0 W/m 13,6 C 13,3 C 11,5 km/h 100,00 %
17.10.2019 05:08 14,2 C 96 % 1007,6 hPa 0,0 l/m 10,7 km/h S 186 0 min 0,000 mm 0,0 UV-I 0 W/m 13,6 C 11,9 C 13,4 km/h 100,00 %
17.10.2019 05:07 14,1 C 96 % 1007,6 hPa 0,0 l/m 11,3 km/h S-SW 196 0 min 0,000 mm 0,0 UV-I 0 W/m 13,5 C 11,5 C 17,2 km/h 100,00 %
17.10.2019 05:06 14,1 C 96 % 1007,6 hPa 0,0 l/m 10,3 km/h S-SW 201 0 min 0,000 mm 0,0 UV-I 0 W/m 13,5 C 12,0 C 19,1 km/h 100,00 %
17.10.2019 05:05 14,1 C 96 % 1007,6 hPa 0,0 l/m 10,6 km/h S-SO 160 0 min 0,000 mm 0,0 UV-I 0 W/m 13,5 C 11,8 C 13,4 km/h 100,00 %
17.10.2019 05:04 14,1 C 96 % 1007,6 hPa 0,0 l/m 8,9 km/h S 169 0 min 0,000 mm 0,0 UV-I 0 W/m 13,5 C 12,7 C 17,2 km/h 100,00 %
17.10.2019 05:03 14,1 C 96 % 1007,6 hPa 0,0 l/m 10,9 km/h S 184 0 min 0,000 mm 0,0 UV-I 0 W/m 13,5 C 11,7 C 17,2 km/h 100,00 %
17.10.2019 05:02 14,1 C 96 % 1007,6 hPa 0,0 l/m 15,1 km/h S-SO 157 0 min 0,000 mm 0,0 UV-I 0 W/m 13,5 C 10,1 C 23,0 km/h 95,83 %
17.10.2019 05:01 14,1 C 96 % 1007,5 hPa 0,0 l/m 7,0 km/h SW 229 0 min 0,000 mm 0,0 UV-I 0 W/m 13,5 C 13,7 C 9,6 km/h 100,00 %
17.10.2019 05:00 14,1 C 96 % 1007,6 hPa 0,0 l/m 7,4 km/h S-SO 160 0 min 0,000 mm 0,0 UV-I 0 W/m 13,5 C 13,5 C 13,4 km/h 100,00 %
17.10.2019 04:59 14,1 C 96 % 1007,6 hPa 0,0 l/m 9,7 km/h S-SO 153 0 min 0,000 mm 0,0 UV-I 0 W/m 13,5 C 12,3 C 15,3 km/h 100,00 %
17.10.2019 04:58 14,1 C 96 % 1007,5 hPa 0,0 l/m 9,6 km/h S-SO 167 0 min 0,000 mm 0,0 UV-I 0 W/m 13,5 C 12,3 C 15,3 km/h 91,30 %
17.10.2019 04:57 14,1 C 96 % 1007,5 hPa 0,0 l/m 8,1 km/h S-SO 166 0 min 0,000 mm 0,0 UV-I 0 W/m 13,5 C 13,1 C 15,3 km/h 100,00 %
17.10.2019 04:56 14,1 C 96 % 1007,6 hPa 0,0 l/m 11,8 km/h S 170 0 min 0,000 mm 0,0 UV-I 0 W/m 13,5 C 11,3 C 21,0 km/h 100,00 %
17.10.2019 04:55 14,0 C 96 % 1007,6 hPa 0,0 l/m 10,1 km/h S 171 0 min 0,000 mm 0,0 UV-I 0 W/m 13,4 C 12,0 C 15,3 km/h 100,00 %
17.10.2019 04:54 14,0 C 96 % 1007,6 hPa 0,0 l/m 9,7 km/h S-SO 165 0 min 0,000 mm 0,0 UV-I 0 W/m 13,4 C 12,2 C 13,4 km/h 92,86 %
17.10.2019 04:53 14,0 C 96 % 1007,6 hPa 0,0 l/m 5,8 km/h S-SO 167 0 min 0,000 mm 0,0 UV-I 0 W/m 13,4 C 14,0 C 9,6 km/h 100,00 %
17.10.2019 04:52 14,0 C 97 % 1007,6 hPa 0,0 l/m 8,4 km/h SO 140 0 min 0,000 mm 0,0 UV-I 0 W/m 13,5 C 12,8 C 15,3 km/h 100,00 %
17.10.2019 04:51 14,0 C 97 % 1007,6 hPa 0,0 l/m 9,7 km/h S 178 0 min 0,000 mm 0,0 UV-I 0 W/m 13,5 C 12,2 C 15,3 km/h 100,00 %
17.10.2019 04:50 14,0 C 97 % 1007,6 hPa 0,0 l/m 3,7 km/h S 178 0 min 0,000 mm 0,0 UV-I 0 W/m 13,5 C 14,0 C 7,7 km/h 100,00 %
17.10.2019 04:49 14,0 C 97 % 1007,6 hPa 0,0 l/m 5,3 km/h S 173 0 min 0,000 mm 0,0 UV-I 0 W/m 13,5 C 14,0 C 7,7 km/h 100,00 %
17.10.2019 04:48 14,0 C 97 % 1007,6 hPa 0,0 l/m 7,7 km/h S 184 0 min 0,000 mm 0,0 UV-I 0 W/m 13,5 C 13,2 C 11,5 km/h 100,00 %
17.10.2019 04:47 13,9 C 97 % 1007,6 hPa 0,0 l/m 7,6 km/h S 173 0 min 0,000 mm 0,0 UV-I 0 W/m 13,4 C 13,2 C 13,4 km/h 100,00 %
17.10.2019 04:46 14,0 C 97 % 1007,6 hPa 0,0 l/m 5,0 km/h S 175 0 min 0,000 mm 0,0 UV-I 0 W/m 13,5 C 14,0 C 9,6 km/h 100,00 %
17.10.2019 04:45 13,9 C 97 % 1007,6 hPa 0,0 l/m 14,1 km/h S 183 0 min 0,000 mm 0,0 UV-I 0 W/m 13,4 C 10,2 C 21,0 km/h 100,00 %
17.10.2019 04:44 13,9 C 97 % 1007,5 hPa 0,0 l/m 8,5 km/h S 169 0 min 0,000 mm 0,0 UV-I 0 W/m 13,4 C 12,7 C 13,4 km/h 95,83 %
17.10.2019 04:43 13,9 C 97 % 1007,6 hPa 0,0 l/m 12,2 km/h S 171 0 min 0,000 mm 0,0 UV-I 0 W/m 13,4 C 10,9 C 17,2 km/h 100,00 %
17.10.2019 04:42 13,9 C 97 % 1007,5 hPa 0,0 l/m 6,7 km/h S 173 0 min 0,000 mm 0,0 UV-I 0 W/m 13,4 C 13,7 C 11,5 km/h 100,00 %
17.10.2019 04:41 13,9 C 97 % 1007,6 hPa 0,0 l/m 9,6 km/h S-SO 150 0 min 0,000 mm 0,0 UV-I 0 W/m 13,4 C 12,1 C 13,4 km/h 100,00 %
17.10.2019 04:40 13,9 C 97 % 1007,6 hPa 0,0 l/m 8,9 km/h S 170 0 min 0,000 mm 0,0 UV-I 0 W/m 13,4 C 12,5 C 11,5 km/h 100,00 %
17.10.2019 04:39 13,9 C 97 % 1007,6 hPa 0,0 l/m 8,8 km/h SO 134 0 min 0,000 mm 0,0 UV-I 0 W/m 13,4 C 12,5 C 17,2 km/h 100,00 %
17.10.2019 04:38 13,9 C 97 % 1007,6 hPa 0,0 l/m 9,9 km/h SO 134 0 min 0,000 mm 0,0 UV-I 0 W/m 13,4 C 12,0 C 24,9 km/h 100,00 %
17.10.2019 04:37 13,9 C 97 % 1007,6 hPa 0,0 l/m 8,6 km/h S-SW 211 0 min 0,000 mm 0,0 UV-I 0 W/m 13,4 C 12,6 C 9,6 km/h 100,00 %
17.10.2019 04:36 13,9 C 97 % 1007,6 hPa 0,0 l/m 9,2 km/h S 184 0 min 0,000 mm 0,0 UV-I 0 W/m 13,4 C 12,3 C 11,5 km/h 96,30 %
17.10.2019 04:35 13,9 C 97 % 1007,6 hPa 0,0 l/m 9,0 km/h SO 144 0 min 0,000 mm 0,0 UV-I 0 W/m 13,4 C 12,4 C 13,4 km/h 100,00 %
17.10.2019 04:34 13,9 C 97 % 1007,7 hPa 0,0 l/m 8,7 km/h S 171 0 min 0,000 mm 0,0 UV-I 0 W/m 13,4 C 12,6 C 13,4 km/h 100,00 %
17.10.2019 04:33 13,9 C 97 % 1007,7 hPa 0,0 l/m 8,3 km/h S-SO 167 0 min 0,000 mm 0,0 UV-I 0 W/m 13,4 C 12,8 C 11,5 km/h 100,00 %
17.10.2019 04:32 13,9 C 97 % 1007,6 hPa 0,0 l/m 6,1 km/h SO 142 0 min 0,000 mm 0,0 UV-I 0 W/m 13,4 C 13,9 C 11,5 km/h 100,00 %
17.10.2019 04:31 13,9 C 97 % 1007,6 hPa 0,0 l/m 9,4 km/h S-SO 158 0 min 0,000 mm 0,0 UV-I 0 W/m 13,4 C 12,2 C 19,1 km/h 96,15 %
17.10.2019 04:30 13,9 C 97 % 1007,6 hPa 0,0 l/m 5,5 km/h SO 142 0 min 0,000 mm 0,0 UV-I 0 W/m 13,4 C 13,9 C 15,3 km/h 100,00 %
17.10.2019 04:29 13,9 C 97 % 1007,6 hPa 0,0 l/m 9,5 km/h S-SO 161 0 min 0,000 mm 0,0 UV-I 0 W/m 13,4 C 12,1 C 15,3 km/h 100,00 %
17.10.2019 04:28 13,9 C 97 % 1007,6 hPa 0,0 l/m 10,2 km/h S-SO 165 0 min 0,000 mm 0,0 UV-I 0 W/m 13,4 C 11,8 C 19,1 km/h 100,00 %
17.10.2019 04:27 13,9 C 97 % 1007,6 hPa 0,0 l/m 4,1 km/h S-SO 165 0 min 0,000 mm 0,0 UV-I 0 W/m 13,4 C 13,9 C 7,7 km/h 100,00 %
17.10.2019 04:26 13,9 C 97 % 1007,6 hPa 0,0 l/m 9,1 km/h S-SO 159 0 min 0,000 mm 0,0 UV-I 0 W/m 13,4 C 12,4 C 13,4 km/h 96,15 %
17.10.2019 04:25 13,9 C 97 % 1007,5 hPa 0,0 l/m 4,8 km/h SO 136 0 min 0,000 mm 0,0 UV-I 0 W/m 13,4 C 13,9 C 9,6 km/h 100,00 %
17.10.2019 04:24 13,9 C 97 % 1007,6 hPa 0,0 l/m 3,7 km/h S-SO 149 0 min 0,000 mm 0,0 UV-I 0 W/m 13,4 C 13,9 C 9,6 km/h 100,00 %
17.10.2019 04:23 13,9 C 97 % 1007,5 hPa 0,0 l/m 7,7 km/h S-SO 159 0 min 0,000 mm 0,0 UV-I 0 W/m 13,4 C 13,1 C 13,4 km/h 100,00 %
17.10.2019 04:22 13,9 C 97 % 1007,6 hPa 0,0 l/m 8,2 km/h S 177 0 min 0,000 mm 0,0 UV-I 0 W/m 13,4 C 12,8 C 17,2 km/h 100,00 %
17.10.2019 04:21 13,9 C 97 % 1007,6 hPa 0,0 l/m 5,5 km/h S 173 0 min 0,000 mm 0,0 UV-I 0 W/m 13,4 C 13,9 C 11,5 km/h 96,30 %
17.10.2019 04:20 13,9 C 97 % 1007,6 hPa 0,0 l/m 5,9 km/h S 182 0 min 0,000 mm 0,0 UV-I 0 W/m 13,4 C 13,9 C 9,6 km/h 100,00 %
17.10.2019 04:19 13,9 C 97 % 1007,6 hPa 0,0 l/m 7,5 km/h S 176 0 min 0,000 mm 0,0 UV-I 0 W/m 13,4 C 13,2 C 9,6 km/h 100,00 %
17.10.2019 04:18 13,9 C 97 % 1007,6 hPa 0,0 l/m 9,2 km/h S-SO 148 0 min 0,000 mm 0,0 UV-I 0 W/m 13,4 C 12,3 C 17,2 km/h 100,00 %
17.10.2019 04:17 13,9 C 97 % 1007,6 hPa 0,0 l/m 10,5 km/h S 191 0 min 0,000 mm 0,0 UV-I 0 W/m 13,4 C 11,7 C 17,2 km/h 92,59 %
17.10.2019 04:16 13,9 C 97 % 1007,6 hPa 0,0 l/m 10,6 km/h S 184 0 min 0,000 mm 0,0 UV-I 0 W/m 13,4 C 11,6 C 15,3 km/h 100,00 %
17.10.2019 04:15 13,9 C 97 % 1007,6 hPa 0,0 l/m 5,3 km/h S 174 0 min 0,000 mm 0,0 UV-I 0 W/m 13,4 C 13,9 C 9,6 km/h 100,00 %
17.10.2019 04:14 13,9 C 97 % 1007,6 hPa 0,0 l/m 7,6 km/h S-SO 152 0 min 0,000 mm 0,0 UV-I 0 W/m 13,4 C 13,2 C 13,4 km/h 100,00 %
17.10.2019 04:13 13,9 C 97 % 1007,6 hPa 0,0 l/m 7,6 km/h S-SO 157 0 min 0,000 mm 0,0 UV-I 0 W/m 13,4 C 13,2 C 11,5 km/h 100,00 %
17.10.2019 04:12 13,9 C 97 % 1007,6 hPa 0,0 l/m 5,4 km/h SO 138 0 min 0,000 mm 0,0 UV-I 0 W/m 13,4 C 13,9 C 9,6 km/h 100,00 %
17.10.2019 04:11 13,9 C 97 % 1007,6 hPa 0,0 l/m 10,2 km/h S-SO 153 0 min 0,000 mm 0,0 UV-I 0 W/m 13,4 C 11,8 C 15,3 km/h 100,00 %
17.10.2019 04:10 13,9 C 97 % 1007,6 hPa 0,0 l/m 8,9 km/h S 176 0 min 0,000 mm 0,0 UV-I 0 W/m 13,4 C 12,5 C 13,4 km/h 100,00 %
17.10.2019 04:09 13,9 C 97 % 1007,6 hPa 0,0 l/m 5,6 km/h S-SO 155 0 min 0,000 mm 0,0 UV-I 0 W/m 13,4 C 13,9 C 7,7 km/h 100,00 %
17.10.2019 04:08 13,9 C 97 % 1007,6 hPa 0,0 l/m 7,1 km/h S 181 0 min 0,000 mm 0,0 UV-I 0 W/m 13,4 C 13,5 C 15,3 km/h 100,00 %
17.10.2019 04:07 13,9 C 97 % 1007,6 hPa 0,2 l/m 8,0 km/h S-SO 157 0 min 0,000 mm 0,0 UV-I 0 W/m 13,4 C 12,9 C 13,4 km/h 100,00 %
17.10.2019 04:06 13,9 C 97 % 1007,6 hPa 0,0 l/m 4,5 km/h S 175 0 min 0,000 mm 0,0 UV-I 0 W/m 13,4 C 13,9 C 9,6 km/h 100,00 %
17.10.2019 04:05 13,9 C 97 % 1007,6 hPa 0,0 l/m 4,7 km/h S 169 0 min 0,000 mm 0,0 UV-I 0 W/m 13,4 C 13,9 C 9,6 km/h 100,00 %
17.10.2019 04:04 13,9 C 97 % 1007,6 hPa 0,0 l/m 8,4 km/h S-SO 150 0 min 0,000 mm 0,0 UV-I 0 W/m 13,4 C 12,7 C 13,4 km/h 100,00 %
17.10.2019 04:03 13,9 C 97 % 1007,6 hPa 0,0 l/m 4,2 km/h S-SO 156 0 min 0,000 mm 0,0 UV-I 0 W/m 13,4 C 13,9 C 7,7 km/h 100,00 %
17.10.2019 04:02 13,9 C 97 % 1007,5 hPa 0,0 l/m 6,4 km/h S-SO 166 0 min 0,000 mm 0,0 UV-I 0 W/m 13,4 C 13,9 C 11,5 km/h 100,00 %
17.10.2019 04:01 13,9 C 97 % 1007,6 hPa 0,0 l/m 7,1 km/h S 177 0 min 0,000 mm 0,0 UV-I 0 W/m 13,4 C 13,5 C 11,5 km/h 100,00 %
17.10.2019 04:00 13,9 C 97 % 1007,6 hPa 0,0 l/m 6,4 km/h S-SO 148 0 min 0,000 mm 0,0 UV-I 0 W/m 13,4 C 13,9 C 9,6 km/h 100,00 %
17.10.2019 03:59 13,9 C 97 % 1007,6 hPa 0,0 l/m 6,4 km/h SO 128 0 min 0,000 mm 0,0 UV-I 0 W/m 13,4 C 13,9 C 11,5 km/h 96,15 %
17.10.2019 03:58 13,8 C 97 % 1007,6 hPa 0,0 l/m 8,0 km/h SO 144 0 min 0,000 mm 0,0 UV-I 0 W/m 13,3 C 12,8 C 13,4 km/h 100,00 %
17.10.2019 03:57 13,8 C 97 % 1007,6 hPa 0,0 l/m 6,4 km/h S-SO 167 0 min 0,000 mm 0,0 UV-I 0 W/m 13,3 C 13,8 C 11,5 km/h 100,00 %
17.10.2019 03:56 13,8 C 97 % 1007,6 hPa 0,0 l/m 6,4 km/h S-SO 165 0 min 0,000 mm 0,0 UV-I 0 W/m 13,3 C 13,8 C 11,5 km/h 95,83 %
17.10.2019 03:55 13,8 C 97 % 1007,6 hPa 0,0 l/m 6,9 km/h S-SO 165 0 min 0,000 mm 0,0 UV-I 0 W/m 13,3 C 13,5 C 11,5 km/h 100,00 %
17.10.2019 03:54 13,8 C 97 % 1007,6 hPa 0,0 l/m 7,3 km/h S 173 0 min 0,000 mm 0,0 UV-I 0 W/m 13,3 C 13,3 C 9,6 km/h 100,00 %
17.10.2019 03:53 13,8 C 97 % 1007,6 hPa 0,0 l/m 3,6 km/h S-SO 163 0 min 0,000 mm 0,0 UV-I 0 W/m 13,3 C 13,8 C 7,7 km/h 100,00 %
17.10.2019 03:52 13,8 C 97 % 1007,6 hPa 0,0 l/m 4,0 km/h S-SO 157 0 min 0,000 mm 0,0 UV-I 0 W/m 13,3 C 13,8 C 5,7 km/h 100,00 %
17.10.2019 03:51 13,9 C 97 % 1007,6 hPa 0,0 l/m 5,7 km/h S 180 0 min 0,000 mm 0,0 UV-I 0 W/m 13,4 C 13,9 C 11,5 km/h 95,65 %
17.10.2019 03:50 13,8 C 97 % 1007,5 hPa 0,0 l/m 5,7 km/h SO 140 0 min 0,000 mm 0,0 UV-I 0 W/m 13,3 C 13,8 C 9,6 km/h 100,00 %
17.10.2019 03:49 13,8 C 97 % 1007,6 hPa 0,0 l/m 4,9 km/h S 180 0 min 0,000 mm 0,0 UV-I 0 W/m 13,3 C 13,8 C 7,7 km/h 100,00 %
17.10.2019 03:48 13,8 C 97 % 1007,5 hPa 0,0 l/m 7,0 km/h S 186 0 min 0,000 mm 0,0 UV-I 0 W/m 13,3 C 13,4 C 11,5 km/h 100,00 %
17.10.2019 03:47 13,8 C 97 % 1007,5 hPa 0,0 l/m 7,2 km/h S 188 0 min 0,000 mm 0,0 UV-I 0 W/m 13,3 C 13,3 C 15,3 km/h 95,83 %
17.10.2019 03:46 13,8 C 97 % 1007,5 hPa 0,0 l/m 10,4 km/h S-SO 167 0 min 0,000 mm 0,0 UV-I 0 W/m 13,3 C 11,6 C 17,2 km/h 100,00 %
17.10.2019 03:45 13,8 C 97 % 1007,5 hPa 0,0 l/m 8,6 km/h S 190 0 min 0,000 mm 0,0 UV-I 0 W/m 13,3 C 12,5 C 17,2 km/h 100,00 %
17.10.2019 03:44 13,8 C 97 % 1007,5 hPa 0,0 l/m 8,4 km/h S-SO 166 0 min 0,000 mm 0,0 UV-I 0 W/m 13,3 C 12,6 C 13,4 km/h 100,00 %
17.10.2019 03:43 13,8 C 97 % 1007,5 hPa 0,0 l/m 4,6 km/h S-SO 162 0 min 0,000 mm 0,0 UV-I 0 W/m 13,3 C 13,8 C 11,5 km/h 100,00 %
17.10.2019 03:42 13,8 C 97 % 1007,5 hPa 0,0 l/m 8,6 km/h S-SO 159 0 min 0,000 mm 0,0 UV-I 0 W/m 13,3 C 12,5 C 15,3 km/h 100,00 %
17.10.2019 03:41 13,8 C 97 % 1007,5 hPa 0,0 l/m 3,3 km/h S 169 0 min 0,000 mm 0,0 UV-I 0 W/m 13,3 C 13,8 C 9,6 km/h 100,00 %
17.10.2019 03:40 13,8 C 97 % 1007,5 hPa 0,0 l/m 5,1 km/h S 170 0 min 0,000 mm 0,0 UV-I 0 W/m 13,3 C 13,8 C 9,6 km/h 95,65 %
17.10.2019 03:39 13,8 C 97 % 1007,5 hPa 0,0 l/m 5,2 km/h S 172 0 min 0,000 mm 0,0 UV-I 0 W/m 13,3 C 13,8 C 7,7 km/h 100,00 %
17.10.2019 03:38 13,8 C 97 % 1007,5 hPa 0,0 l/m 6,4 km/h S 175 0 min 0,000 mm 0,0 UV-I 0 W/m 13,3 C 13,8 C 11,5 km/h 100,00 %
17.10.2019 03:37 13,8 C 97 % 1007,5 hPa 0,0 l/m 5,8 km/h S-SO 158 0 min 0,000 mm 0,0 UV-I 0 W/m 13,3 C 13,8 C 9,6 km/h 100,00 %
17.10.2019 03:36 13,8 C 97 % 1007,5 hPa 0,0 l/m 8,5 km/h S 169 0 min 0,000 mm 0,0 UV-I 0 W/m 13,3 C 12,6 C 15,3 km/h 100,00 %
17.10.2019 03:35 13,8 C 97 % 1007,5 hPa 0,0 l/m 8,6 km/h SO 145 0 min 0,000 mm 0,0 UV-I 0 W/m 13,3 C 12,5 C 9,6 km/h 100,00 %
17.10.2019 03:34 13,8 C 97 % 1007,5 hPa 0,0 l/m 7,7 km/h S 171 0 min 0,000 mm 0,0 UV-I 0 W/m 13,3 C 13,0 C 11,5 km/h 96,15 %
17.10.2019 03:33 13,8 C 97 % 1007,5 hPa 0,0 l/m 7,7 km/h S 169 0 min 0,000 mm 0,0 UV-I 0 W/m 13,3 C 13,0 C 9,6 km/h 96,30 %
17.10.2019 03:32 13,8 C 97 % 1007,6 hPa 0,0 l/m 8,7 km/h S-SO 163 0 min 0,000 mm 0,0 UV-I 0 W/m 13,3 C 12,5 C 15,3 km/h 100,00 %
17.10.2019 03:31 13,8 C 97 % 1007,5 hPa 0,0 l/m 9,1 km/h SO 140 0 min 0,000 mm 0,0 UV-I 0 W/m 13,3 C 12,2 C 11,5 km/h 100,00 %
17.10.2019 03:30 13,8 C 97 % 1007,6 hPa 0,0 l/m 7,4 km/h S 176 0 min 0,000 mm 0,0 UV-I 0 W/m 13,3 C 13,2 C 11,5 km/h 100,00 %
17.10.2019 03:29 13,8 C 97 % 1007,5 hPa 0,0 l/m 5,7 km/h S 182 0 min 0,000 mm 0,0 UV-I 0 W/m 13,3 C 13,8 C 9,6 km/h 100,00 %
17.10.2019 03:28 13,8 C 97 % 1007,5 hPa 0,0 l/m 10,2 km/h S-SO 166 0 min 0,000 mm 0,0 UV-I 0 W/m 13,3 C 11,7 C 17,2 km/h 100,00 %
17.10.2019 03:27 13,8 C 97 % 1007,6 hPa 0,0 l/m 9,3 km/h S-SO 157 0 min 0,000 mm 0,0 UV-I 0 W/m 13,3 C 12,1 C 17,2 km/h 100,00 %
17.10.2019 03:26 13,8 C 97 % 1007,6 hPa 0,0 l/m 7,7 km/h S-SW 192 0 min 0,000 mm 0,0 UV-I 0 W/m 13,3 C 13,0 C 11,5 km/h 100,00 %
17.10.2019 03:25 13,8 C 97 % 1007,6 hPa 0,0 l/m 7,5 km/h S 185 0 min 0,000 mm 0,0 UV-I 0 W/m 13,3 C 13,1 C 13,4 km/h 100,00 %
17.10.2019 03:24 13,8 C 97 % 1007,5 hPa 0,0 l/m 7,7 km/h SO 136 0 min 0,000 mm 0,0 UV-I 0 W/m 13,3 C 13,0 C 21,0 km/h 95,83 %
17.10.2019 03:23 13,8 C 97 % 1007,6 hPa 0,0 l/m 7,1 km/h S 169 0 min 0,000 mm 0,0 UV-I 0 W/m 13,3 C 13,4 C 15,3 km/h 96,15 %
17.10.2019 03:22 13,8 C 97 % 1007,6 hPa 0,0 l/m 9,6 km/h S-SO 150 0 min 0,000 mm 0,0 UV-I 0 W/m 13,3 C 12,0 C 17,2 km/h 96,15 %
17.10.2019 03:21 13,8 C 97 % 1007,6 hPa 0,0 l/m 11,5 km/h SO 133 0 min 0,000 mm 0,0 UV-I 0 W/m 13,3 C 11,1 C 15,3 km/h 100,00 %
17.10.2019 03:20 13,8 C 97 % 1007,6 hPa 0,0 l/m 6,7 km/h S-SO 152 0 min 0,000 mm 0,0 UV-I 0 W/m 13,3 C 13,6 C 9,6 km/h 96,00 %
17.10.2019 03:19 13,8 C 97 % 1007,6 hPa 0,0 l/m 5,7 km/h S-SO 165 0 min 0,000 mm 0,0 UV-I 0 W/m 13,3 C 13,8 C 11,5 km/h 100,00 %
17.10.2019 03:18 13,8 C 97 % 1007,6 hPa 0,0 l/m 9,2 km/h S-SO 162 0 min 0,000 mm 0,0 UV-I 0 W/m 13,3 C 12,2 C 13,4 km/h 96,30 %
17.10.2019 03:17 13,8 C 97 % 1007,6 hPa 0,0 l/m 5,5 km/h S-SO 158 0 min 0,000 mm 0,0 UV-I 0 W/m 13,3 C 13,8 C 9,6 km/h 90,91 %
17.10.2019 03:16 13,8 C 97 % 1007,6 hPa 0,0 l/m 6,7 km/h S-SO 154 0 min 0,000 mm 0,0 UV-I 0 W/m 13,3 C 13,6 C 13,4 km/h 100,00 %
17.10.2019 03:15 13,8 C 97 % 1007,6 hPa 0,0 l/m 4,9 km/h S-SO 154 0 min 0,000 mm 0,0 UV-I 0 W/m 13,3 C 13,8 C 7,7 km/h 96,15 %
17.10.2019 03:14 13,8 C 97 % 1007,6 hPa 0,0 l/m 6,6 km/h SO 133 0 min 0,000 mm 0,0 UV-I 0 W/m 13,3 C 13,7 C 13,4 km/h 100,00 %
17.10.2019 03:13 13,8 C 97 % 1007,5 hPa 0,0 l/m 5,7 km/h S-SO 151 0 min 0,000 mm 0,0 UV-I 0 W/m 13,3 C 13,8 C 11,5 km/h 95,65 %
17.10.2019 03:12 13,8 C 97 % 1007,6 hPa 0,0 l/m 4,5 km/h S 171 0 min 0,000 mm 0,0 UV-I 0 W/m 13,3 C 13,8 C 7,7 km/h 100,00 %
17.10.2019 03:11 13,8 C 97 % 1007,6 hPa 0,0 l/m 5,3 km/h S 183 0 min 0,000 mm 0,0 UV-I 0 W/m 13,3 C 13,8 C 7,7 km/h 95,65 %
17.10.2019 03:10 13,8 C 97 % 1007,5 hPa 0,0 l/m 4,4 km/h S 189 0 min 0,000 mm 0,0 UV-I 0 W/m 13,3 C 13,8 C 7,7 km/h 100,00 %
17.10.2019 03:09 13,8 C 97 % 1007,5 hPa 0,0 l/m 9,2 km/h S 169 0 min 0,000 mm 0,0 UV-I 0 W/m 13,3 C 12,2 C 15,3 km/h 95,65 %
17.10.2019 03:08 13,8 C 97 % 1007,6 hPa 0,0 l/m 3,0 km/h S-SO 159 0 min 0,000 mm 0,0 UV-I 0 W/m 13,3 C 13,8 C 7,7 km/h 95,83 %
17.10.2019 03:07 13,8 C 97 % 1007,5 hPa 0,0 l/m 7,0 km/h S-SO 148 0 min 0,000 mm 0,0 UV-I 0 W/m 13,3 C 13,4 C 13,4 km/h 96,15 %
17.10.2019 03:06 13,8 C 97 % 1007,6 hPa 0,0 l/m 6,8 km/h S 176 0 min 0,000 mm 0,0 UV-I 0 W/m 13,3 C 13,6 C 15,3 km/h 93,33 %
17.10.2019 03:05 13,8 C 97 % 1007,6 hPa 0,0 l/m 6,6 km/h S-SO 167 0 min 0,000 mm 0,0 UV-I 0 W/m 13,3 C 13,7 C 13,4 km/h 100,00 %
17.10.2019 03:04 13,8 C 97 % 1007,6 hPa 0,0 l/m 5,7 km/h SO 136 0 min 0,000 mm 0,0 UV-I 0 W/m 13,3 C 13,8 C 11,5 km/h 96,15 %
17.10.2019 03:03 13,8 C 97 % 1007,6 hPa 0,0 l/m 8,9 km/h S 174 0 min 0,000 mm 0,0 UV-I 0 W/m 13,3 C 12,3 C 19,1 km/h 100,00 %
17.10.2019 03:02 13,8 C 97 % 1007,6 hPa 0,0 l/m 10,6 km/h SO 141 0 min 0,000 mm 0,0 UV-I 0 W/m 13,3 C 11,5 C 19,1 km/h 95,65 %
17.10.2019 03:01 13,8 C 97 % 1007,6 hPa 0,0 l/m 10,4 km/h SO 144 0 min 0,000 mm 0,0 UV-I 0 W/m 13,3 C 11,6 C 15,3 km/h 100,00 %
17.10.2019 03:00 13,8 C 97 % 1007,6 hPa 0,0 l/m 11,4 km/h S-SO 149 0 min 0,000 mm 0,0 UV-I 0 W/m 13,3 C 11,1 C 15,3 km/h 91,30 %
17.10.2019 02:59 13,7 C 97 % 1007,6 hPa 0,0 l/m 6,3 km/h S-SO 165 0 min 0,000 mm 0,0 UV-I 0 W/m 13,2 C 13,7 C 24,9 km/h 96,30 %
17.10.2019 02:58 13,7 C 97 % 1007,6 hPa 0,0 l/m 4,1 km/h S-SO 153 0 min 0,000 mm 0,0 UV-I 0 W/m 13,2 C 13,7 C 5,7 km/h 100,00 %
17.10.2019 02:57 13,8 C 97 % 1007,6 hPa 0,0 l/m 5,3 km/h S-SO 149 0 min 0,000 mm 0,0 UV-I 0 W/m 13,3 C 13,8 C 9,6 km/h 95,83 %
17.10.2019 02:56 13,7 C 97 % 1007,6 hPa 0,0 l/m 6,5 km/h S-SO 155 0 min 0,000 mm 0,0 UV-I 0 W/m 13,2 C 13,7 C 13,4 km/h 95,65 %
17.10.2019 02:55 13,7 C 97 % 1007,6 hPa 0,0 l/m 6,9 km/h SO 132 0 min 0,000 mm 0,0 UV-I 0 W/m 13,2 C 13,4 C 11,5 km/h 95,83 %
17.10.2019 02:54 13,8 C 97 % 1007,6 hPa 0,0 l/m 10,1 km/h S-SO 150 0 min 0,000 mm 0,0 UV-I 0 W/m 13,3 C 11,7 C 15,3 km/h 100,00 %
17.10.2019 02:53 13,7 C 97 % 1007,7 hPa 0,0 l/m 6,8 km/h S-SO 157 0 min 0,000 mm 0,0 UV-I 0 W/m 13,2 C 13,5 C 11,5 km/h 96,30 %
17.10.2019 02:52 13,7 C 97 % 1007,7 hPa 0,0 l/m 6,8 km/h S-SO 148 0 min 0,000 mm 0,0 UV-I 0 W/m 13,2 C 13,5 C 11,5 km/h 96,15 %
17.10.2019 02:51 13,8 C 97 % 1007,7 hPa 0,0 l/m 8,9 km/h S-SO 167 0 min 0,000 mm 0,0 UV-I 0 W/m 13,3 C 12,3 C 11,5 km/h 100,00 %
17.10.2019 02:50 13,7 C 97 % 1007,7 hPa 0,0 l/m 8,0 km/h S 178 0 min 0,000 mm 0,0 UV-I 0 W/m 13,2 C 12,7 C 13,4 km/h 95,83 %
17.10.2019 02:49 13,7 C 97 % 1007,6 hPa 0,0 l/m 6,8 km/h S-SO 163 0 min 0,000 mm 0,0 UV-I 0 W/m 13,2 C 13,5 C 11,5 km/h 100,00 %
17.10.2019 02:48 13,7 C 97 % 1007,7 hPa 0,0 l/m 6,0 km/h S 171 0 min 0,000 mm 0,0 UV-I 0 W/m 13,2 C 13,7 C 11,5 km/h 96,15 %
17.10.2019 02:47 13,7 C 97 % 1007,7 hPa 0,0 l/m 4,8 km/h S 179 0 min 0,000 mm 0,0 UV-I 0 W/m 13,2 C 13,7 C 7,7 km/h 100,00 %
17.10.2019 02:46 13,7 C 97 % 1007,7 hPa 0,0 l/m 5,1 km/h S-SO 161 0 min 0,000 mm 0,0 UV-I 0 W/m 13,2 C 13,7 C 13,4 km/h 91,67 %
17.10.2019 02:45 13,7 C 97 % 1007,7 hPa 0,0 l/m 10,3 km/h S-SO 153 0 min 0,000 mm 0,0 UV-I 0 W/m 13,2 C 11,5 C 15,3 km/h 96,15 %
17.10.2019 02:44 13,7 C 97 % 1007,7 hPa 0,0 l/m 9,6 km/h S 169 0 min 0,000 mm 0,0 UV-I 0 W/m 13,2 C 11,9 C 13,4 km/h 96,30 %
17.10.2019 02:43 13,7 C 97 % 1007,7 hPa 0,0 l/m 8,5 km/h S 177 0 min 0,000 mm 0,0 UV-I 0 W/m 13,2 C 12,5 C 11,5 km/h 100,00 %
17.10.2019 02:42 13,7 C 97 % 1007,7 hPa 0,0 l/m 8,9 km/h SO 124 0 min 0,000 mm 0,0 UV-I 0 W/m 13,2 C 12,2 C 17,2 km/h 96,30 %
17.10.2019 02:41 13,7 C 97 % 1007,8 hPa 0,2 l/m 7,9 km/h O-SO 121 0 min 0,000 mm 0,0 UV-I 0 W/m 13,2 C 12,8 C 13,4 km/h 100,00 %
17.10.2019 02:40 13,7 C 97 % 1007,8 hPa 0,0 l/m 8,2 km/h O-SO 117 0 min 0,000 mm 0,0 UV-I 0 W/m 13,2 C 12,6 C 17,2 km/h 95,83 %
17.10.2019 02:39 13,7 C 97 % 1007,7 hPa 0,0 l/m 8,2 km/h S-SO 162 0 min 0,000 mm 0,0 UV-I 0 W/m 13,2 C 12,6 C 9,6 km/h 96,15 %
17.10.2019 02:38 13,7 C 97 % 1007,8 hPa 0,0 l/m 7,2 km/h S-SO 157 0 min 0,000 mm 0,0 UV-I 0 W/m 13,2 C 13,2 C 15,3 km/h 100,00 %
17.10.2019 02:37 13,7 C 97 % 1007,8 hPa 0,0 l/m 6,1 km/h S-SO 164 0 min 0,000 mm 0,0 UV-I 0 W/m 13,2 C 13,7 C 9,6 km/h 95,65 %
17.10.2019 02:36 13,7 C 97 % 1007,8 hPa 0,0 l/m 6,6 km/h S 182 0 min 0,000 mm 0,0 UV-I 0 W/m 13,2 C 13,6 C 9,6 km/h 100,00 %
17.10.2019 02:35 13,7 C 97 % 1007,7 hPa 0,0 l/m 9,1 km/h S-SO 161 0 min 0,000 mm 0,0 UV-I 0 W/m 13,2 C 12,1 C 13,4 km/h 92,86 %
17.10.2019 02:34 13,7 C 97 % 1007,7 hPa 0,0 l/m 7,7 km/h S-SO 165 0 min 0,000 mm 0,0 UV-I 0 W/m 13,2 C 12,9 C 17,2 km/h 100,00 %
17.10.2019 02:33 13,7 C 97 % 1007,7 hPa 0,0 l/m 5,1 km/h S-SO 148 0 min 0,000 mm 0,0 UV-I 0 W/m 13,2 C 13,7 C 13,4 km/h 96,15 %
17.10.2019 02:32 13,7 C 97 % 1007,8 hPa 0,0 l/m 3,3 km/h S 179 0 min 0,000 mm 0,0 UV-I 0 W/m 13,2 C 13,7 C 5,7 km/h 96,67 %
17.10.2019 02:31 13,7 C 97 % 1007,7 hPa 0,0 l/m 5,9 km/h S-SO 156 0 min 0,000 mm 0,0 UV-I 0 W/m 13,2 C 13,7 C 9,6 km/h 100,00 %
17.10.2019 02:30 13,7 C 97 % 1007,8 hPa 0,0 l/m 6,3 km/h S 184 0 min 0,000 mm 0,0 UV-I 0 W/m 13,2 C 13,7 C 11,5 km/h 96,30 %
17.10.2019 02:29 13,7 C 97 % 1007,8 hPa 0,0 l/m 4,3 km/h S 178 0 min 0,000 mm 0,0 UV-I 0 W/m 13,2 C 13,7 C 7,7 km/h 92,86 %
17.10.2019 02:28 13,7 C 97 % 1007,7 hPa 0,0 l/m 7,2 km/h S-SO 147 0 min 0,000 mm 0,0 UV-I 0 W/m 13,2 C 13,2 C 13,4 km/h 95,83 %
17.10.2019 02:27 13,7 C 97 % 1007,7 hPa 0,0 l/m 7,1 km/h S-SO 150 0 min 0,000 mm 0,0 UV-I 0 W/m 13,2 C 13,3 C 9,6 km/h 95,65 %
17.10.2019 02:26 13,7 C 97 % 1007,7 hPa 0,0 l/m 8,0 km/h S 188 0 min 0,000 mm 0,0 UV-I 0 W/m 13,2 C 12,7 C 19,1 km/h 100,00 %
17.10.2019 02:25 13,7 C 97 % 1007,7 hPa 0,0 l/m 9,7 km/h S-SO 148 0 min 0,000 mm 0,0 UV-I 0 W/m 13,2 C 11,8 C 13,4 km/h 100,00 %
17.10.2019 02:24 13,7 C 97 % 1007,7 hPa 0,0 l/m 4,9 km/h S 170 0 min 0,000 mm 0,0 UV-I 0 W/m 13,2 C 13,7 C 9,6 km/h 92,31 %
17.10.2019 02:23 13,7 C 97 % 1007,7 hPa 0,0 l/m 6,6 km/h S 173 0 min 0,000 mm 0,0 UV-I 0 W/m 13,2 C 13,6 C 11,5 km/h 96,67 %
17.10.2019 02:22 13,7 C 97 % 1007,7 hPa 0,0 l/m 7,3 km/h S 169 0 min 0,000 mm 0,0 UV-I 0 W/m 13,2 C 13,2 C 9,6 km/h 100,00 %
17.10.2019 02:21 13,7 C 97 % 1007,7 hPa 0,0 l/m 3,3 km/h S-SO 167 0 min 0,000 mm 0,0 UV-I 0 W/m 13,2 C 13,7 C 7,7 km/h 91,67 %
17.10.2019 02:20 13,7 C 97 % 1007,7 hPa 0,0 l/m 6,4 km/h S 179 0 min 0,000 mm 0,0 UV-I 0 W/m 13,2 C 13,7 C 9,6 km/h 100,00 %
17.10.2019 02:19 13,7 C 97 % 1007,7 hPa 0,0 l/m 7,1 km/h S-SO 157 0 min 0,000 mm 0,0 UV-I 0 W/m 13,2 C 13,3 C 13,4 km/h 96,30 %
17.10.2019 02:18 13,7 C 97 % 1007,6 hPa 0,0 l/m 8,9 km/h S-SO 161 0 min 0,000 mm 0,0 UV-I 0 W/m 13,2 C 12,2 C 13,4 km/h 100,00 %
17.10.2019 02:17 13,7 C 97 % 1007,7 hPa 0,0 l/m 5,0 km/h SO 145 0 min 0,000 mm 0,0 UV-I 0 W/m 13,2 C 13,7 C 9,6 km/h 96,30 %
17.10.2019 02:16 13,7 C 97 % 1007,7 hPa 0,0 l/m 1,7 km/h S-SO 148 0 min 0,000 mm 0,0 UV-I 0 W/m 13,2 C 13,7 C 5,7 km/h 100,00 %
17.10.2019 02:15 13,7 C 97 % 1007,7 hPa 0,0 l/m 2,2 km/h S 190 0 min 0,000 mm 0,0 UV-I 0 W/m 13,2 C 13,7 C 7,7 km/h 87,50 %
17.10.2019 02:14 13,7 C 97 % 1007,6 hPa 0,0 l/m 7,8 km/h S-SO 158 0 min 0,000 mm 0,0 UV-I 0 W/m 13,2 C 12,9 C 15,3 km/h 95,65 %
17.10.2019 02:13 13,7 C 97 % 1007,7 hPa 0,0 l/m 7,1 km/h S 175 0 min 0,000 mm 0,0 UV-I 0 W/m 13,2 C 13,3 C 17,2 km/h 100,00 %
17.10.2019 02:12 13,7 C 97 % 1007,7 hPa 0,0 l/m 3,3 km/h S 173 0 min 0,000 mm 0,0 UV-I 0 W/m 13,2 C 13,7 C 5,7 km/h 96,15 %
17.10.2019 02:11 13,7 C 97 % 1007,7 hPa 0,0 l/m 7,3 km/h S-SO 151 0 min 0,000 mm 0,0 UV-I 0 W/m 13,2 C 13,2 C 13,4 km/h 100,00 %
17.10.2019 02:10 13,7 C 97 % 1007,7 hPa 0,0 l/m 6,5 km/h S-SO 155 0 min 0,000 mm 0,0 UV-I 0 W/m 13,2 C 13,7 C 13,4 km/h 95,83 %
17.10.2019 02:09 13,7 C 97 % 1007,7 hPa 0,0 l/m 4,4 km/h SO 142 0 min 0,000 mm 0,0 UV-I 0 W/m 13,2 C 13,7 C 9,6 km/h 100,00 %
17.10.2019 02:08 13,7 C 97 % 1007,7 hPa 0,0 l/m 3,3 km/h SO 134 0 min 0,000 mm 0,0 UV-I 0 W/m 13,2 C 13,7 C 5,7 km/h 95,83 %
17.10.2019 02:07 13,7 C 97 % 1007,7 hPa 0,0 l/m 7,9 km/h SO 138 0 min 0,000 mm 0,0 UV-I 0 W/m 13,2 C 12,8 C 13,4 km/h 93,10 %
17.10.2019 02:06 13,7 C 97 % 1007,7 hPa 0,0 l/m 5,5 km/h S-SO 168 0 min 0,000 mm 0,0 UV-I 0 W/m 13,2 C 13,7 C 7,7 km/h 100,00 %
17.10.2019 02:05 13,7 C 97 % 1007,7 hPa 0,0 l/m 3,8 km/h SO 136 0 min 0,000 mm 0,0 UV-I 0 W/m 13,2 C 13,7 C 7,7 km/h 95,65 %
17.10.2019 02:04 13,7 C 97 % 1007,7 hPa 0,0 l/m 7,3 km/h S-SO 159 0 min 0,000 mm 0,0 UV-I 0 W/m 13,2 C 13,2 C 11,5 km/h 100,00 %
17.10.2019 02:03 13,7 C 97 % 1007,7 hPa 0,0 l/m 10,1 km/h S-SO 167 0 min 0,000 mm 0,0 UV-I 0 W/m 13,2 C 11,6 C 15,3 km/h 96,15 %
17.10.2019 02:02 13,7 C 97 % 1007,7 hPa 0,0 l/m 5,4 km/h O 89 0 min 0,000 mm 0,0 UV-I 0 W/m 13,2 C 13,7 C 13,4 km/h 100,00 %
17.10.2019 02:01 13,7 C 97 % 1007,7 hPa 0,0 l/m 4,3 km/h SO 136 0 min 0,000 mm 0,0 UV-I 0 W/m 13,2 C 13,7 C 7,7 km/h 95,65 %
17.10.2019 02:00 13,7 C 97 % 1007,7 hPa 0,0 l/m 4,1 km/h S-SO 161 0 min 0,000 mm 0,0 UV-I 0 W/m 13,2 C 13,7 C 9,6 km/h 100,00 %
17.10.2019 01:59 13,7 C 97 % 1007,7 hPa 0,0 l/m 3,8 km/h S-SO 163 0 min 0,000 mm 0,0 UV-I 0 W/m 13,2 C 13,7 C 7,7 km/h 95,83 %
17.10.2019 01:58 13,7 C 97 % 1007,7 hPa 0,0 l/m 5,0 km/h S-SO 159 0 min 0,000 mm 0,0 UV-I 0 W/m 13,2 C 13,7 C 11,5 km/h 95,83 %
17.10.2019 01:57 13,7 C 97 % 1007,7 hPa 0,0 l/m 2,3 km/h S 184 0 min 0,000 mm 0,0 UV-I 0 W/m 13,2 C 13,7 C 5,7 km/h 100,00 %
17.10.2019 01:56 13,7 C 97 % 1007,7 hPa 0,0 l/m 4,1 km/h S 184 0 min 0,000 mm 0,0 UV-I 0 W/m 13,2 C 13,7 C 7,7 km/h 91,67 %
17.10.2019 01:55 13,7 C 97 % 1007,7 hPa 0,0 l/m 5,7 km/h SO 140 0 min 0,000 mm 0,0 UV-I 0 W/m 13,2 C 13,7 C 9,6 km/h 95,65 %
17.10.2019 01:54 13,7 C 97 % 1007,7 hPa 0,0 l/m 10,8 km/h O-SO 112 0 min 0,000 mm 0,0 UV-I 0 W/m 13,2 C 11,3 C 17,2 km/h 95,83 %
17.10.2019 01:53 13,7 C 97 % 1007,7 hPa 0,0 l/m 11,0 km/h S-SW 194 0 min 0,000 mm 0,0 UV-I 0 W/m 13,2 C 11,2 C 19,1 km/h 100,00 %
17.10.2019 01:52 13,7 C 97 % 1007,7 hPa 0,0 l/m 6,7 km/h SO 146 0 min 0,000 mm 0,0 UV-I 0 W/m 13,2 C 13,5 C 17,2 km/h 95,83 %
17.10.2019 01:51 13,7 C 97 % 1007,7 hPa 0,2 l/m 2,8 km/h S-SO 161 0 min 0,000 mm 0,0 UV-I 0 W/m 13,2 C 13,7 C 7,7 km/h 96,55 %
17.10.2019 01:50 13,7 C 97 % 1007,7 hPa 0,0 l/m 5,5 km/h S-SO 165 0 min 0,000 mm 0,0 UV-I 0 W/m 13,2 C 13,7 C 9,6 km/h 96,30 %
17.10.2019 01:49 13,7 C 97 % 1007,7 hPa 0,0 l/m 7,2 km/h S-SO 159 0 min 0,000 mm 0,0 UV-I 0 W/m 13,2 C 13,2 C 11,5 km/h 100,00 %
17.10.2019 01:48 13,7 C 97 % 1007,7 hPa 0,0 l/m 6,4 km/h S-SO 149 0 min 0,000 mm 0,0 UV-I 0 W/m 13,2 C 13,7 C 13,4 km/h 96,15 %
17.10.2019 01:47 13,7 C 97 % 1007,7 hPa 0,0 l/m 7,3 km/h S 178 0 min 0,000 mm 0,0 UV-I 0 W/m 13,2 C 13,2 C 13,4 km/h 96,30 %
17.10.2019 01:46 13,7 C 97 % 1007,6 hPa 0,0 l/m 9,8 km/h SO 131 0 min 0,000 mm 0,0 UV-I 0 W/m 13,2 C 11,8 C 15,3 km/h 100,00 %
17.10.2019 01:45 13,7 C 97 % 1007,7 hPa 0,0 l/m 7,3 km/h SO 138 0 min 0,000 mm 0,0 UV-I 0 W/m 13,2 C 13,2 C 9,6 km/h 95,83 %
17.10.2019 01:44 13,7 C 97 % 1007,7 hPa 0,0 l/m 2,7 km/h S-SO 148 0 min 0,000 mm 0,0 UV-I 0 W/m 13,2 C 13,7 C 5,7 km/h 96,55 %
17.10.2019 01:43 13,7 C 97 % 1007,7 hPa 0,0 l/m 6,6 km/h SO 144 0 min 0,000 mm 0,0 UV-I 0 W/m 13,2 C 13,6 C 9,6 km/h 100,00 %
17.10.2019 01:42 13,7 C 97 % 1007,7 hPa 0,0 l/m 8,4 km/h S 169 0 min 0,000 mm 0,0 UV-I 0 W/m 13,2 C 12,5 C 11,5 km/h 96,55 %
17.10.2019 01:41 13,7 C 97 % 1007,7 hPa 0,0 l/m 6,8 km/h S-SO 152 0 min 0,000 mm 0,0 UV-I 0 W/m 13,2 C 13,5 C 13,4 km/h 100,00 %
17.10.2019 01:40 13,7 C 97 % 1007,7 hPa 0,0 l/m 3,9 km/h SO 139 0 min 0,000 mm 0,0 UV-I 0 W/m 13,2 C 13,7 C 5,7 km/h 95,83 %
17.10.2019 01:39 13,7 C 97 % 1007,7 hPa 0,0 l/m 3,8 km/h S-SO 156 0 min 0,000 mm 0,0 UV-I 0 W/m 13,2 C 13,7 C 5,7 km/h 100,00 %
17.10.2019 01:38 13,7 C 97 % 1007,7 hPa 0,0 l/m 5,3 km/h SO 140 0 min 0,000 mm 0,0 UV-I 0 W/m 13,2 C 13,7 C 11,5 km/h 95,65 %
17.10.2019 01:37 13,7 C 96 % 1007,7 hPa 0,2 l/m 2,6 km/h S-SO 159 0 min 0,000 mm 0,0 UV-I 0 W/m 13,1 C 13,7 C 3,8 km/h 100,00 %
17.10.2019 01:36 13,7 C 96 % 1007,7 hPa 0,0 l/m 6,8 km/h S-SO 159 0 min 0,000 mm 0,0 UV-I 0 W/m 13,1 C 13,5 C 9,6 km/h 94,12 %
17.10.2019 01:35 13,7 C 96 % 1007,7 hPa 0,0 l/m 6,3 km/h S-SO 158 0 min 0,000 mm 0,0 UV-I 0 W/m 13,1 C 13,7 C 9,6 km/h 100,00 %
17.10.2019 01:34 13,7 C 96 % 1007,7 hPa 0,0 l/m 8,8 km/h SO 131 0 min 0,000 mm 0,0 UV-I 0 W/m 13,1 C 12,3 C 17,2 km/h 91,30 %
17.10.2019 01:33 13,7 C 96 % 1007,7 hPa 0,0 l/m 6,8 km/h S-SO 153 0 min 0,000 mm 0,0 UV-I 0 W/m 13,1 C 13,5 C 11,5 km/h 96,30 %
17.10.2019 01:32 13,7 C 96 % 1007,7 hPa 0,0 l/m 2,3 km/h SO 146 0 min 0,000 mm 0,0 UV-I 0 W/m 13,1 C 13,7 C 3,8 km/h 100,00 %
17.10.2019 01:31 13,7 C 96 % 1007,7 hPa 0,0 l/m 2,7 km/h SO 144 0 min 0,000 mm 0,0 UV-I 0 W/m 13,1 C 13,7 C 5,7 km/h 92,31 %
17.10.2019 01:30 13,7 C 96 % 1007,7 hPa 0,0 l/m 6,8 km/h SO 143 0 min 0,000 mm 0,0 UV-I 0 W/m 13,1 C 13,5 C 13,4 km/h 100,00 %
17.10.2019 01:29 13,7 C 96 % 1007,7 hPa 0,0 l/m 7,4 km/h S-SW 194 0 min 0,000 mm 0,0 UV-I 0 W/m 13,1 C 13,1 C 13,4 km/h 96,30 %
17.10.2019 01:28 13,7 C 96 % 1007,8 hPa 0,0 l/m 3,3 km/h SO 131 0 min 0,000 mm 0,0 UV-I 0 W/m 13,1 C 13,7 C 9,6 km/h 95,83 %
17.10.2019 01:27 13,7 C 96 % 1007,8 hPa 0,0 l/m 3,8 km/h S-SO 163 0 min 0,000 mm 0,0 UV-I 0 W/m 13,1 C 13,7 C 7,7 km/h 95,65 %
17.10.2019 01:26 13,7 C 96 % 1007,7 hPa 0,0 l/m 10,3 km/h S-SO 148 0 min 0,000 mm 0,0 UV-I 0 W/m 13,1 C 11,5 C 17,2 km/h 100,00 %
17.10.2019 01:25 13,7 C 96 % 1007,7 hPa 0,0 l/m 6,8 km/h S 172 0 min 0,000 mm 0,0 UV-I 0 W/m 13,1 C 13,5 C 11,5 km/h 96,15 %
17.10.2019 01:24 13,7 C 96 % 1007,7 hPa 0,0 l/m 10,6 km/h S-SO 154 0 min 0,000 mm 0,0 UV-I 0 W/m 13,1 C 11,4 C 19,1 km/h 96,30 %
17.10.2019 01:23 13,7 C 96 % 1007,7 hPa 0,0 l/m 5,8 km/h S 187 0 min 0,000 mm 0,0 UV-I 0 W/m 13,1 C 13,7 C 11,5 km/h 100,00 %
17.10.2019 01:22 13,7 C 96 % 1007,7 hPa 0,2 l/m 9,1 km/h SO 145 0 min 0,000 mm 0,0 UV-I 0 W/m 13,1 C 12,1 C 13,4 km/h 100,00 %
17.10.2019 01:21 13,7 C 96 % 1007,8 hPa 0,0 l/m 8,7 km/h S-SO 166 0 min 0,000 mm 0,0 UV-I 0 W/m 13,1 C 12,3 C 19,1 km/h 91,30 %
17.10.2019 01:20 13,7 C 96 % 1007,8 hPa 0,0 l/m 7,4 km/h O-SO 123 0 min 0,000 mm 0,0 UV-I 0 W/m 13,1 C 13,1 C 23,0 km/h 96,30 %
17.10.2019 01:19 13,7 C 96 % 1007,7 hPa 0,0 l/m 5,5 km/h S 177 0 min 0,000 mm 0,0 UV-I 0 W/m 13,1 C 13,7 C 9,6 km/h 100,00 %
17.10.2019 01:18 13,7 C 96 % 1007,8 hPa 0,0 l/m 10,3 km/h SO 144 0 min 0,000 mm 0,0 UV-I 0 W/m 13,1 C 11,5 C 17,2 km/h 96,00 %
17.10.2019 01:17 13,7 C 96 % 1007,7 hPa 0,0 l/m 6,3 km/h S 169 0 min 0,000 mm 0,0 UV-I 0 W/m 13,1 C 13,7 C 11,5 km/h 100,00 %
17.10.2019 01:16 13,7 C 96 % 1007,7 hPa 0,0 l/m 9,3 km/h S 178 0 min 0,000 mm 0,0 UV-I 0 W/m 13,1 C 12,0 C 13,4 km/h 96,30 %
17.10.2019 01:15 13,8 C 96 % 1007,8 hPa 0,2 l/m 7,9 km/h S-SO 157 0 min 0,000 mm 0,0 UV-I 0 W/m 13,2 C 12,9 C 11,5 km/h 95,65 %
17.10.2019 01:14 13,8 C 96 % 1007,7 hPa 0,0 l/m 8,6 km/h S-SO 165 0 min 0,000 mm 0,0 UV-I 0 W/m 13,2 C 12,5 C 11,5 km/h 95,83 %
17.10.2019 01:13 13,7 C 96 % 1007,8 hPa 0,0 l/m 4,9 km/h S 180 0 min 0,000 mm 0,0 UV-I 0 W/m 13,1 C 13,7 C 9,6 km/h 95,83 %
17.10.2019 01:12 13,7 C 96 % 1007,7 hPa 0,0 l/m 7,7 km/h SO 133 0 min 0,000 mm 0,0 UV-I 0 W/m 13,1 C 12,9 C 13,4 km/h 100,00 %
17.10.2019 01:11 13,8 C 96 % 1007,8 hPa 0,0 l/m 5,5 km/h S-SO 152 0 min 0,000 mm 0,0 UV-I 0 W/m 13,2 C 13,8 C 9,6 km/h 95,83 %
17.10.2019 01:10 13,8 C 96 % 1007,7 hPa 0,0 l/m 10,1 km/h O-SO 115 0 min 0,000 mm 0,0 UV-I 0 W/m 13,2 C 11,7 C 15,3 km/h 100,00 %
17.10.2019 01:09 13,8 C 96 % 1007,8 hPa 0,2 l/m 9,7 km/h S-SO 164 0 min 0,000 mm 0,0 UV-I 0 W/m 13,2 C 11,9 C 17,2 km/h 91,67 %
17.10.2019 01:08 13,8 C 96 % 1007,9 hPa 0,0 l/m 10,6 km/h S-SO 159 0 min 0,000 mm 0,0 UV-I 0 W/m 13,2 C 11,5 C 19,1 km/h 100,00 %
17.10.2019 01:07 13,8 C 96 % 1007,8 hPa 0,0 l/m 4,2 km/h S 175 0 min 0,000 mm 0,0 UV-I 0 W/m 13,2 C 13,8 C 5,7 km/h 95,83 %
17.10.2019 01:06 13,8 C 96 % 1007,8 hPa 0,0 l/m 3,7 km/h SO 146 0 min 0,000 mm 0,0 UV-I 0 W/m 13,2 C 13,8 C 5,7 km/h 95,83 %
17.10.2019 01:05 13,8 C 96 % 1007,8 hPa 0,0 l/m 7,9 km/h S-SO 160 0 min 0,000 mm 0,0 UV-I 0 W/m 13,2 C 12,9 C 11,5 km/h 100,00 %
17.10.2019 01:04 13,8 C 96 % 1007,8 hPa 0,0 l/m 8,0 km/h S-SW 194 0 min 0,000 mm 0,0 UV-I 0 W/m 13,2 C 12,8 C 11,5 km/h 96,15 %
17.10.2019 01:03 13,8 C 96 % 1007,9 hPa 0,0 l/m 6,3 km/h SO 145 0 min 0,000 mm 0,0 UV-I 0 W/m 13,2 C 13,8 C 9,6 km/h 100,00 %
17.10.2019 01:02 13,8 C 96 % 1007,8 hPa 0,0 l/m 3,5 km/h S 178 0 min 0,000 mm 0,0 UV-I 0 W/m 13,2 C 13,8 C 5,7 km/h 95,65 %
17.10.2019 01:01 13,8 C 96 % 1007,9 hPa 0,0 l/m 8,2 km/h SO 138 0 min 0,000 mm 0,0 UV-I 0 W/m 13,2 C 12,7 C 11,5 km/h 100,00 %
17.10.2019 01:00 13,8 C 96 % 1007,8 hPa 0,2 l/m 8,8 km/h S-SO 148 0 min 0,000 mm 0,0 UV-I 0 W/m 13,2 C 12,4 C 11,5 km/h 96,15 %
17.10.2019 00:59 13,8 C 96 % 1007,8 hPa 0,0 l/m 3,1 km/h SO 140 0 min 0,000 mm 0,0 UV-I 0 W/m 13,2 C 13,8 C 9,6 km/h 100,00 %
17.10.2019 00:58 13,8 C 96 % 1007,8 hPa 0,0 l/m 3,2 km/h SO 130 0 min 0,000 mm 0,0 UV-I 0 W/m 13,2 C 13,8 C 5,7 km/h 96,15 %
17.10.2019 00:57 13,8 C 96 % 1007,8 hPa 0,0 l/m 9,9 km/h O-SO 119 0 min 0,000 mm 0,0 UV-I 0 W/m 13,2 C 11,8 C 19,1 km/h 96,30 %
17.10.2019 00:56 13,8 C 96 % 1007,8 hPa 0,0 l/m 7,7 km/h S-SO 159 0 min 0,000 mm 0,0 UV-I 0 W/m 13,2 C 13,0 C 13,4 km/h 100,00 %
17.10.2019 00:55 13,8 C 96 % 1007,9 hPa 0,0 l/m 7,8 km/h S-SO 167 0 min 0,000 mm 0,0 UV-I 0 W/m 13,2 C 13,0 C 11,5 km/h 91,67 %
17.10.2019 00:54 13,8 C 96 % 1007,9 hPa 0,0 l/m 4,3 km/h S-SO 163 0 min 0,000 mm 0,0 UV-I 0 W/m 13,2 C 13,8 C 7,7 km/h 100,00 %
17.10.2019 00:53 13,8 C 96 % 1007,8 hPa 0,0 l/m 4,4 km/h S-SO 159 0 min 0,000 mm 0,0 UV-I 0 W/m 13,2 C 13,8 C 7,7 km/h 95,65 %
17.10.2019 00:52 13,8 C 96 % 1007,9 hPa 0,0 l/m 6,8 km/h S-SO 167 0 min 0,000 mm 0,0 UV-I 0 W/m 13,2 C 13,6 C 9,6 km/h 100,00 %
17.10.2019 00:51 13,8 C 96 % 1007,9 hPa 0,0 l/m 4,5 km/h S 188 0 min 0,000 mm 0,0 UV-I 0 W/m 13,2 C 13,8 C 7,7 km/h 91,30 %
17.10.2019 00:50 13,8 C 96 % 1007,9 hPa 0,0 l/m 5,1 km/h S 171 0 min 0,000 mm 0,0 UV-I 0 W/m 13,2 C 13,8 C 9,6 km/h 100,00 %
17.10.2019 00:49 13,8 C 96 % 1007,9 hPa 0,0 l/m 8,0 km/h S-SO 153 0 min 0,000 mm 0,0 UV-I 0 W/m 13,2 C 12,8 C 9,6 km/h 96,88 %
17.10.2019 00:48 13,8 C 96 % 1007,9 hPa 0,0 l/m 6,7 km/h S 169 0 min 0,000 mm 0,0 UV-I 0 W/m 13,2 C 13,6 C 9,6 km/h 91,67 %
17.10.2019 00:47 13,8 C 96 % 1007,9 hPa 0,0 l/m 7,7 km/h SO 132 0 min 0,000 mm 0,0 UV-I 0 W/m 13,2 C 13,0 C 11,5 km/h 100,00 %
17.10.2019 00:46 13,8 C 96 % 1007,9 hPa 0,0 l/m 6,4 km/h SO 141 0 min 0,000 mm 0,0 UV-I 0 W/m 13,2 C 13,8 C 11,5 km/h 96,30 %
17.10.2019 00:45 13,8 C 96 % 1007,9 hPa 0,0 l/m 9,8 km/h S 169 0 min 0,000 mm 0,0 UV-I 0 W/m 13,2 C 11,9 C 17,2 km/h 100,00 %
17.10.2019 00:44 13,8 C 96 % 1007,9 hPa 0,0 l/m 7,3 km/h S-SO 153 0 min 0,000 mm 0,0 UV-I 0 W/m 13,2 C 13,3 C 11,5 km/h 95,83 %
17.10.2019 00:43 13,8 C 96 % 1007,9 hPa 0,0 l/m 9,2 km/h S-SO 164 0 min 0,000 mm 0,0 UV-I 0 W/m 13,2 C 12,2 C 13,4 km/h 100,00 %
17.10.2019 00:42 13,8 C 96 % 1007,9 hPa 0,0 l/m 10,8 km/h S 174 0 min 0,000 mm 0,0 UV-I 0 W/m 13,2 C 11,4 C 17,2 km/h 95,83 %
17.10.2019 00:41 13,8 C 96 % 1007,9 hPa 0,0 l/m 9,3 km/h S-SO 148 0 min 0,000 mm 0,0 UV-I 0 W/m 13,2 C 12,1 C 13,4 km/h 100,00 %
17.10.2019 00:40 13,8 C 96 % 1007,9 hPa 0,0 l/m 12,2 km/h S 179 0 min 0,000 mm 0,0 UV-I 0 W/m 13,2 C 10,8 C 17,2 km/h 96,30 %
17.10.2019 00:39 13,8 C 96 % 1007,9 hPa 0,0 l/m 11,4 km/h S 190 0 min 0,000 mm 0,0 UV-I 0 W/m 13,2 C 11,1 C 15,3 km/h 95,65 %
17.10.2019 00:38 13,8 C 96 % 1007,9 hPa 0,0 l/m 9,5 km/h S 175 0 min 0,000 mm 0,0 UV-I 0 W/m 13,2 C 12,0 C 19,1 km/h 100,00 %
17.10.2019 00:37 13,8 C 96 % 1007,8 hPa 0,0 l/m 3,1 km/h S-SO 168 0 min 0,000 mm 0,0 UV-I 0 W/m 13,2 C 13,8 C 7,7 km/h 92,31 %
17.10.2019 00:36 13,8 C 96 % 1007,9 hPa 0,0 l/m 10,8 km/h S-SO 160 0 min 0,000 mm 0,0 UV-I 0 W/m 13,2 C 11,4 C 15,3 km/h 100,00 %
17.10.2019 00:35 13,8 C 96 % 1007,8 hPa 0,0 l/m 6,1 km/h SO 144 0 min 0,000 mm 0,0 UV-I 0 W/m 13,2 C 13,8 C 9,6 km/h 93,33 %
17.10.2019 00:34 13,8 C 96 % 1007,9 hPa 0,0 l/m 9,4 km/h S-SO 155 0 min 0,000 mm 0,0 UV-I 0 W/m 13,2 C 12,1 C 19,1 km/h 100,00 %
17.10.2019 00:33 13,8 C 96 % 1007,9 hPa 0,0 l/m 5,9 km/h SO 136 0 min 0,000 mm 0,0 UV-I 0 W/m 13,2 C 13,8 C 9,6 km/h 92,59 %
17.10.2019 00:32 13,8 C 96 % 1007,9 hPa 0,0 l/m 9,5 km/h S-SO 164 0 min 0,000 mm 0,0 UV-I 0 W/m 13,2 C 12,0 C 11,5 km/h 96,67 %
17.10.2019 00:31 13,8 C 96 % 1007,9 hPa 0,0 l/m 5,4 km/h S-SO 166 0 min 0,000 mm 0,0 UV-I 0 W/m 13,2 C 13,8 C 9,6 km/h 100,00 %
17.10.2019 00:30 13,8 C 96 % 1007,8 hPa 0,0 l/m 5,6 km/h S-SO 165 0 min 0,000 mm 0,0 UV-I 0 W/m 13,2 C 13,8 C 7,7 km/h 96,15 %
17.10.2019 00:29 13,8 C 96 % 1007,8 hPa 0,0 l/m 7,7 km/h SO 146 0 min 0,000 mm 0,0 UV-I 0 W/m 13,2 C 13,0 C 15,3 km/h 100,00 %
17.10.2019 00:28 13,8 C 96 % 1007,9 hPa 0,0 l/m 11,1 km/h SO 145 0 min 0,000 mm 0,0 UV-I 0 W/m 13,2 C 11,3 C 19,1 km/h 96,15 %
17.10.2019 00:27 13,8 C 96 % 1007,9 hPa 0,0 l/m 9,0 km/h S-SW 196 0 min 0,000 mm 0,0 UV-I 0 W/m 13,2 C 12,3 C 19,1 km/h 100,00 %
17.10.2019 00:26 13,8 C 96 % 1007,8 hPa 0,0 l/m 9,3 km/h SO 130 0 min 0,000 mm 0,0 UV-I 0 W/m 13,2 C 12,1 C 17,2 km/h 95,65 %
17.10.2019 00:25 13,8 C 96 % 1007,8 hPa 0,0 l/m 8,2 km/h S-SO 155 0 min 0,000 mm 0,0 UV-I 0 W/m 13,2 C 12,7 C 11,5 km/h 100,00 %
17.10.2019 00:24 13,8 C 96 % 1007,9 hPa 0,0 l/m 8,6 km/h S-SO 152 0 min 0,000 mm 0,0 UV-I 0 W/m 13,2 C 12,5 C 17,2 km/h 95,65 %
17.10.2019 00:23 13,8 C 96 % 1007,8 hPa 0,0 l/m 8,1 km/h SO 137 0 min 0,000 mm 0,0 UV-I 0 W/m 13,2 C 12,8 C 13,4 km/h 100,00 %
17.10.2019 00:22 13,9 C 96 % 1007,8 hPa 0,0 l/m 12,5 km/h S-SO 168 0 min 0,000 mm 0,0 UV-I 0 W/m 13,3 C 10,8 C 21,0 km/h 96,55 %
17.10.2019 00:21 13,8 C 96 % 1007,9 hPa 0,0 l/m 8,8 km/h S-SO 161 0 min 0,000 mm 0,0 UV-I 0 W/m 13,2 C 12,4 C 13,4 km/h 92,59 %
17.10.2019 00:20 13,8 C 96 % 1007,9 hPa 0,0 l/m 6,4 km/h S-SO 167 0 min 0,000 mm 0,0 UV-I 0 W/m 13,2 C 13,8 C 9,6 km/h 100,00 %
17.10.2019 00:19 13,9 C 96 % 1007,9 hPa 0,0 l/m 7,5 km/h S-SO 159 0 min 0,000 mm 0,0 UV-I 0 W/m 13,3 C 13,2 C 11,5 km/h 95,83 %
17.10.2019 00:18 13,9 C 96 % 1007,8 hPa 0,0 l/m 5,2 km/h S-SW 192 0 min 0,000 mm 0,0 UV-I 0 W/m 13,3 C 13,9 C 9,6 km/h 100,00 %
17.10.2019 00:17 13,8 C 96 % 1007,8 hPa 0,0 l/m 4,9 km/h S 169 0 min 0,000 mm 0,0 UV-I 0 W/m 13,2 C 13,8 C 9,6 km/h 97,62 %
17.10.2019 00:16 13,8 C 96 % 1007,9 hPa 0,0 l/m 8,9 km/h SO 138 0 min 0,000 mm 0,0 UV-I 0 W/m 13,2 C 12,3 C 13,4 km/h 94,12 %
17.10.2019 00:15 13,8 C 96 % 1007,9 hPa 0,0 l/m 7,8 km/h S-SO 148 0 min 0,000 mm 0,0 UV-I 0 W/m 13,2 C 13,0 C 9,6 km/h 100,00 %
17.10.2019 00:14 13,9 C 96 % 1007,9 hPa 0,0 l/m 11,0 km/h S-SO 165 0 min 0,000 mm 0,0 UV-I 0 W/m 13,3 C 11,4 C 17,2 km/h 100,00 %
17.10.2019 00:13 13,9 C 96 % 1007,9 hPa 0,0 l/m 4,0 km/h S-SO 153 0 min 0,000 mm 0,0 UV-I 0 W/m 13,3 C 13,9 C 13,4 km/h 91,30 %
17.10.2019 00:12 13,8 C 96 % 1007,9 hPa 0,0 l/m 6,3 km/h S-SO 164 0 min 0,000 mm 0,0 UV-I 0 W/m 13,2 C 13,8 C 17,2 km/h 96,30 %
17.10.2019 00:11 13,8 C 96 % 1007,9 hPa 0,0 l/m 6,9 km/h S 182 0 min 0,000 mm 0,0 UV-I 0 W/m 13,2 C 13,5 C 9,6 km/h 100,00 %
17.10.2019 00:10 13,8 C 96 % 1007,9 hPa 0,0 l/m 13,2 km/h S-SO 153 0 min 0,000 mm 0,0 UV-I 0 W/m 13,2 C 10,4 C 21,0 km/h 96,15 %
17.10.2019 00:09 13,8 C 96 % 1007,9 hPa 0,0 l/m 10,7 km/h S 183 0 min 0,000 mm 0,0 UV-I 0 W/m 13,2 C 11,5 C 13,4 km/h 100,00 %
17.10.2019 00:08 13,8 C 96 % 1007,9 hPa 0,0 l/m 8,3 km/h S-SO 154 0 min 0,000 mm 0,0 UV-I 0 W/m 13,2 C 12,7 C 13,4 km/h 95,83 %
17.10.2019 00:07 13,8 C 96 % 1007,9 hPa 0,0 l/m 8,5 km/h S 189 0 min 0,000 mm 0,0 UV-I 0 W/m 13,2 C 12,6 C 13,4 km/h 95,65 %
17.10.2019 00:06 13,8 C 96 % 1007,9 hPa 0,2 l/m 13,1 km/h S-SO 158 0 min 0,000 mm 0,0 UV-I 0 W/m 13,2 C 10,4 C 17,2 km/h 95,83 %
17.10.2019 00:05 13,8 C 96 % 1007,9 hPa 0,0 l/m 6,6 km/h S 185 0 min 0,000 mm 0,0 UV-I 0 W/m 13,2 C 13,7 C 13,4 km/h 100,00 %
17.10.2019 00:04 13,8 C 96 % 1007,9 hPa 0,0 l/m 5,7 km/h SO 142 0 min 0,000 mm 0,0 UV-I 0 W/m 13,2 C 13,8 C 9,6 km/h 96,30 %
17.10.2019 00:03 13,8 C 96 % 1007,9 hPa 0,0 l/m 7,0 km/h S 180 0 min 0,000 mm 0,0 UV-I 0 W/m 13,2 C 13,4 C 9,6 km/h 96,15 %
17.10.2019 00:02 13,8 C 96 % 1007,9 hPa 0,0 l/m 6,1 km/h S-SO 150 0 min 0,000 mm 0,0 UV-I 0 W/m 13,2 C 13,8 C 11,5 km/h 100,00 %
17.10.2019 00:01 13,8 C 96 % 1007,9 hPa 0,0 l/m 6,4 km/h S 169 0 min 0,000 mm 0,0 UV-I 0 W/m 13,2 C 13,8 C 9,6 km/h 92,31 %
17.10.2019 00:00 13,8 C 96 % 1007,9 hPa 0,0 l/m 7,1 km/h S-SO 154 0 min 0,000 mm 0,0 UV-I 0 W/m 13,2 C 13,4 C 13,4 km/h 100,00 %
16.10.2019 23:59 13,8 C 96 % 1007,9 hPa 0,0 l/m 7,9 km/h S-SO 155 0 min 0,000 mm 0,0 UV-I 0 W/m 13,2 C 12,9 C 11,5 km/h 96,15 %
16.10.2019 23:58 13,8 C 96 % 1007,9 hPa 0,0 l/m 10,7 km/h SO 138 0 min 0,000 mm 0,0 UV-I 0 W/m 13,2 C 11,5 C 15,3 km/h 96,30 %
16.10.2019 23:57 13,8 C 96 % 1007,9 hPa 0,0 l/m 6,7 km/h S 169 0 min 0,000 mm 0,0 UV-I 0 W/m 13,2 C 13,6 C 11,5 km/h 100,00 %
16.10.2019 23:56 13,8 C 96 % 1007,9 hPa 0,0 l/m 8,1 km/h SO 143 0 min 0,000 mm 0,0 UV-I 0 W/m 13,2 C 12,8 C 11,5 km/h 96,30 %
16.10.2019 23:55 13,9 C 96 % 1007,9 hPa 0,0 l/m 6,0 km/h S-SO 155 0 min 0,000 mm 0,0 UV-I 0 W/m 13,3 C 13,9 C 11,5 km/h 100,00 %
16.10.2019 23:54 13,8 C 96 % 1007,9 hPa 0,0 l/m 8,6 km/h S 175 0 min 0,000 mm 0,0 UV-I 0 W/m 13,2 C 12,5 C 13,4 km/h 91,67 %
16.10.2019 23:53 13,8 C 96 % 1007,9 hPa 0,0 l/m 12,3 km/h S 171 0 min 0,000 mm 0,0 UV-I 0 W/m 13,2 C 10,8 C 21,0 km/h 100,00 %
16.10.2019 23:52 13,8 C 96 % 1007,9 hPa 0,0 l/m 11,9 km/h S 173 0 min 0,000 mm 0,0 UV-I 0 W/m 13,2 C 10,9 C 17,2 km/h 95,65 %
16.10.2019 23:51 13,8 C 96 % 1007,9 hPa 0,0 l/m 8,9 km/h SO 140 0 min 0,000 mm 0,0 UV-I 0 W/m 13,2 C 12,3 C 19,1 km/h 100,00 %
16.10.2019 23:50 13,8 C 96 % 1008,0 hPa 0,0 l/m 9,4 km/h S-SO 156 0 min 0,000 mm 0,0 UV-I 0 W/m 13,2 C 12,1 C 17,2 km/h 95,65 %
16.10.2019 23:49 13,8 C 96 % 1007,9 hPa 0,0 l/m 6,1 km/h S 188 0 min 0,000 mm 0,0 UV-I 0 W/m 13,2 C 13,8 C 9,6 km/h 95,83 %
16.10.2019 23:48 13,8 C 96 % 1007,9 hPa 0,2 l/m 12,8 km/h S-SO 153 0 min 0,000 mm 0,0 UV-I 0 W/m 13,2 C 10,6 C 21,0 km/h 100,00 %
16.10.2019 23:47 13,8 C 96 % 1008,0 hPa 0,0 l/m 7,1 km/h S 178 0 min 0,000 mm 0,0 UV-I 0 W/m 13,2 C 13,4 C 13,4 km/h 100,00 %
16.10.2019 23:46 13,8 C 96 % 1007,9 hPa 0,0 l/m 6,7 km/h S 170 0 min 0,000 mm 0,0 UV-I 0 W/m 13,2 C 13,6 C 11,5 km/h 92,31 %
16.10.2019 23:45 13,8 C 96 % 1007,9 hPa 0,0 l/m 7,4 km/h S-SO 153 0 min 0,000 mm 0,0 UV-I 0 W/m 13,2 C 13,2 C 13,4 km/h 96,30 %
16.10.2019 23:44 13,8 C 96 % 1008,0 hPa 0,0 l/m 4,8 km/h S 175 0 min 0,000 mm 0,0 UV-I 0 W/m 13,2 C 13,8 C 5,7 km/h 96,30 %
16.10.2019 23:43 13,8 C 96 % 1008,0 hPa 0,0 l/m 6,1 km/h SO 144 0 min 0,000 mm 0,0 UV-I 0 W/m 13,2 C 13,8 C 11,5 km/h 96,30 %
16.10.2019 23:42 13,8 C 96 % 1008,0 hPa 0,0 l/m 9,6 km/h S 170 0 min 0,000 mm 0,0 UV-I 0 W/m 13,2 C 12,0 C 15,3 km/h 100,00 %
16.10.2019 23:41 13,8 C 96 % 1008,0 hPa 0,0 l/m 9,1 km/h S-SO 157 0 min 0,000 mm 0,0 UV-I 0 W/m 13,2 C 12,2 C 13,4 km/h 96,00 %
16.10.2019 23:40 13,8 C 96 % 1008,0 hPa 0,0 l/m 5,9 km/h S 175 0 min 0,000 mm 0,0 UV-I 0 W/m 13,2 C 13,8 C 9,6 km/h 95,65 %
16.10.2019 23:39 13,8 C 96 % 1008,0 hPa 0,0 l/m 8,1 km/h SO 140 0 min 0,000 mm 0,0 UV-I 0 W/m 13,2 C 12,8 C 9,6 km/h 96,00 %
16.10.2019 23:38 13,8 C 96 % 1008,0 hPa 0,2 l/m 7,2 km/h S-SO 167 0 min 0,000 mm 0,0 UV-I 0 W/m 13,2 C 13,3 C 9,6 km/h 95,65 %
16.10.2019 23:37 13,8 C 96 % 1008,0 hPa 0,0 l/m 9,6 km/h S-SO 160 0 min 0,000 mm 0,0 UV-I 0 W/m 13,2 C 12,0 C 19,1 km/h 100,00 %
16.10.2019 23:36 13,8 C 96 % 1008,0 hPa 0,0 l/m 9,3 km/h S-SO 155 0 min 0,000 mm 0,0 UV-I 0 W/m 13,2 C 12,1 C 17,2 km/h 95,83 %
16.10.2019 23:35 13,8 C 96 % 1008,0 hPa 0,0 l/m 8,4 km/h SO 138 0 min 0,000 mm 0,0 UV-I 0 W/m 13,2 C 12,6 C 13,4 km/h 100,00 %
16.10.2019 23:34 13,8 C 96 % 1008,0 hPa 0,0 l/m 5,2 km/h S 176 0 min 0,000 mm 0,0 UV-I 0 W/m 13,2 C 13,8 C 7,7 km/h 91,30 %
16.10.2019 23:33 13,8 C 96 % 1008,0 hPa 0,0 l/m 3,3 km/h S 175 0 min 0,000 mm 0,0 UV-I 0 W/m 13,2 C 13,8 C 5,7 km/h 100,00 %
16.10.2019 23:32 13,8 C 96 % 1008,0 hPa 0,0 l/m 6,7 km/h S 169 0 min 0,000 mm 0,0 UV-I 0 W/m 13,2 C 13,6 C 11,5 km/h 96,30 %
16.10.2019 23:31 13,8 C 96 % 1008,0 hPa 0,0 l/m 5,1 km/h S 176 0 min 0,000 mm 0,0 UV-I 0 W/m 13,2 C 13,8 C 9,6 km/h 96,15 %
16.10.2019 23:30 13,8 C 96 % 1008,0 hPa 0,0 l/m 6,3 km/h S-SO 161 0 min 0,000 mm 0,0 UV-I 0 W/m 13,2 C 13,8 C 7,7 km/h 100,00 %
16.10.2019 23:29 13,8 C 96 % 1008,0 hPa 0,0 l/m 7,9 km/h S-SO 150 0 min 0,000 mm 0,0 UV-I 0 W/m 13,2 C 12,9 C 11,5 km/h 92,86 %
16.10.2019 23:28 13,8 C 96 % 1008,0 hPa 0,0 l/m 10,0 km/h SO 127 0 min 0,000 mm 0,0 UV-I 0 W/m 13,2 C 11,8 C 17,2 km/h 95,83 %
16.10.2019 23:27 13,8 C 96 % 1008,0 hPa 0,0 l/m 6,0 km/h S 175 0 min 0,000 mm 0,0 UV-I 0 W/m 13,2 C 13,8 C 11,5 km/h 96,15 %
16.10.2019 23:26 13,8 C 96 % 1008,0 hPa 0,0 l/m 4,0 km/h S-SO 152 0 min 0,000 mm 0,0 UV-I 0 W/m 13,2 C 13,8 C 7,7 km/h 100,00 %
16.10.2019 23:25 13,8 C 96 % 1008,0 hPa 0,0 l/m 7,1 km/h SO 146 0 min 0,000 mm 0,0 UV-I 0 W/m 13,2 C 13,4 C 13,4 km/h 95,65 %
16.10.2019 23:24 13,8 C 96 % 1008,0 hPa 0,2 l/m 7,2 km/h S-SO 166 0 min 0,000 mm 0,0 UV-I 0 W/m 13,2 C 13,3 C 9,6 km/h 92,59 %
16.10.2019 23:23 13,8 C 96 % 1008,0 hPa 0,0 l/m 7,7 km/h S-SW 196 0 min 0,000 mm 0,0 UV-I 0 W/m 13,2 C 13,0 C 11,5 km/h 100,00 %
16.10.2019 23:22 13,8 C 96 % 1008,0 hPa 0,0 l/m 4,7 km/h S 178 0 min 0,000 mm 0,0 UV-I 0 W/m 13,2 C 13,8 C 7,7 km/h 100,00 %
16.10.2019 23:21 13,8 C 96 % 1008,0 hPa 0,0 l/m 6,0 km/h S 188 0 min 0,000 mm 0,0 UV-I 0 W/m 13,2 C 13,8 C 9,6 km/h 95,65 %
16.10.2019 23:20 13,8 C 96 % 1008,0 hPa 0,0 l/m 9,4 km/h S-SO 150 0 min 0,000 mm 0,0 UV-I 0 W/m 13,2 C 12,1 C 17,2 km/h 95,83 %
16.10.2019 23:19 13,8 C 96 % 1008,1 hPa 0,0 l/m 5,5 km/h SO 139 0 min 0,000 mm 0,0 UV-I 0 W/m 13,2 C 13,8 C 13,4 km/h 100,00 %
16.10.2019 23:18 13,8 C 96 % 1008,0 hPa 0,0 l/m 9,3 km/h SO 142 0 min 0,000 mm 0,0 UV-I 0 W/m 13,2 C 12,1 C 11,5 km/h 95,83 %
16.10.2019 23:17 13,8 C 96 % 1008,0 hPa 0,0 l/m 7,3 km/h S-SO 157 0 min 0,000 mm 0,0 UV-I 0 W/m 13,2 C 13,3 C 11,5 km/h 93,33 %
16.10.2019 23:16 13,8 C 96 % 1008,0 hPa 0,0 l/m 8,6 km/h S-SO 165 0 min 0,000 mm 0,0 UV-I 0 W/m 13,2 C 12,5 C 11,5 km/h 83,33 %
16.10.2019 23:15 13,8 C 96 % 1008,0 hPa 0,0 l/m 3,4 km/h S 184 0 min 0,000 mm 0,0 UV-I 0 W/m 13,2 C 13,8 C 9,6 km/h 100,00 %
16.10.2019 23:14 13,8 C 96 % 1008,0 hPa 0,2 l/m 5,2 km/h SO 142 0 min 0,000 mm 0,0 UV-I 0 W/m 13,2 C 13,8 C 11,5 km/h 93,10 %
16.10.2019 23:13 13,8 C 96 % 1008,0 hPa 0,0 l/m 9,7 km/h S 169 0 min 0,000 mm 0,0 UV-I 0 W/m 13,2 C 11,9 C 13,4 km/h 96,15 %
16.10.2019 23:12 13,8 C 96 % 1008,0 hPa 0,0 l/m 6,7 km/h SO 138 0 min 0,000 mm 0,0 UV-I 0 W/m 13,2 C 13,6 C 9,6 km/h 100,00 %
16.10.2019 23:11 13,8 C 96 % 1008,1 hPa 0,0 l/m 7,3 km/h S 171 0 min 0,000 mm 0,0 UV-I 0 W/m 13,2 C 13,3 C 11,5 km/h 96,00 %
16.10.2019 23:10 13,9 C 96 % 1008,1 hPa 0,0 l/m 6,2 km/h S 170 0 min 0,000 mm 0,0 UV-I 0 W/m 13,3 C 13,9 C 9,6 km/h 100,00 %
16.10.2019 23:09 13,8 C 96 % 1008,1 hPa 0,0 l/m 5,4 km/h S-SO 157 0 min 0,000 mm 0,0 UV-I 0 W/m 13,2 C 13,8 C 7,7 km/h 95,83 %
16.10.2019 23:08 13,8 C 96 % 1008,1 hPa 0,0 l/m 11,3 km/h S 180 0 min 0,000 mm 0,0 UV-I 0 W/m 13,2 C 11,2 C 17,2 km/h 100,00 %
16.10.2019 23:07 13,8 C 96 % 1008,1 hPa 0,0 l/m 9,1 km/h S 169 0 min 0,000 mm 0,0 UV-I 0 W/m 13,2 C 12,2 C 13,4 km/h 95,83 %
16.10.2019 23:06 13,9 C 96 % 1008,0 hPa 0,0 l/m 7,7 km/h S 177 0 min 0,000 mm 0,0 UV-I 0 W/m 13,3 C 13,1 C 9,6 km/h 100,00 %
16.10.2019 23:05 13,8 C 96 % 1008,1 hPa 0,0 l/m 8,8 km/h S-SO 161 0 min 0,000 mm 0,0 UV-I 0 W/m 13,2 C 12,4 C 11,5 km/h 95,83 %
16.10.2019 23:04 13,8 C 96 % 1008,0 hPa 0,0 l/m 9,2 km/h S 169 0 min 0,000 mm 0,0 UV-I 0 W/m 13,2 C 12,2 C 11,5 km/h 100,00 %
16.10.2019 23:03 13,8 C 96 % 1008,0 hPa 0,0 l/m 4,8 km/h S 182 0 min 0,000 mm 0,0 UV-I 0 W/m 13,2 C 13,8 C 7,7 km/h 95,83 %
16.10.2019 23:02 13,9 C 96 % 1008,0 hPa 0,2 l/m 5,3 km/h S-SO 157 0 min 0,000 mm 0,0 UV-I 0 W/m 13,3 C 13,9 C 9,6 km/h 95,65 %
16.10.2019 23:01 13,8 C 96 % 1008,0 hPa 0,0 l/m 8,8 km/h S-SO 150 0 min 0,000 mm 0,0 UV-I 0 W/m 13,2 C 12,4 C 11,5 km/h 100,00 %
16.10.2019 23:00 13,9 C 96 % 1008,0 hPa 0,0 l/m 9,6 km/h S 175 0 min 0,000 mm 0,0 UV-I 0 W/m 13,3 C 12,1 C 15,3 km/h 96,55 %
_ Min-Zeit 01:12 14:29 03:07 - 16:34 - - - - - - 14:35 05:02 16:34 23:16
Minimum _ 13,7 C 78 % 1007,5 hPa - 0,0 km/h - - - - - - 12,4 C 10,1 C 0,0 km/h 83,33 %
_ Max-Zeit 13:23 01:38 12:10 23:02 07:42 - - 12:12 13:00 13:28 13:17 12:52 13:21 07:09 23:01
Maximum _ 17,0 C 97 % 1011,0 hPa 0,2 l/m 15,2 km/h
S
- - 1 min 0,203 mm 2,0 UV-I 689 W/m 15,0 C 16,9 C 28,7 km/h
S-SO
100,00 %
Durchschnitt _ 14,5 C 93 % 1008,9 hPa #6,0 l/m 6,5 km/h S - #1:19 h #0,737 mm 1,0 UV-I 126 W/m 13,5 C 13,8 C 11,0 km/h 98,47 %